Wetterdaten: Mittwoch, 06.07.2016
Datum Zeit Temp. A. Feuchte A. Luftdruck Regen Wind Richtung Richtung Sonnenschein ET UV Solar Taupunkt Windchill Windben Empfang
06.07.2016 00:00 20,3 C 64 % 1013,4 hPa 0,0 l/m 10,3 km/h (2 Bft) SW 235 0 min 0,000 mm 0,0 UV-I 0 W/m 13,3 C 18,9 C 17,7 km/h (3 Bft) 97,56 %
06.07.2016 00:02 20,2 C 64 % 1013,5 hPa 0,0 l/m 14,1 km/h (3 Bft) W-SW 241 0 min 0,000 mm 0,0 UV-I 0 W/m 13,2 C 17,7 C 25,7 km/h (4 Bft) 100,00 %
06.07.2016 00:04 20,2 C 63 % 1013,6 hPa 0,0 l/m 10,5 km/h (2 Bft) W-SW 256 0 min 0,000 mm 0,0 UV-I 0 W/m 12,9 C 18,7 C 16,1 km/h (3 Bft) 96,00 %
06.07.2016 00:06 20,2 C 63 % 1013,6 hPa 0,0 l/m 9,6 km/h (2 Bft) W-SW 242 0 min 0,000 mm 0,0 UV-I 0 W/m 12,9 C 19,0 C 17,7 km/h (3 Bft) 98,00 %
06.07.2016 00:08 20,1 C 63 % 1013,6 hPa 0,0 l/m 11,5 km/h (2 Bft) W-SW 250 0 min 0,000 mm 0,0 UV-I 0 W/m 12,8 C 18,3 C 16,1 km/h (3 Bft) 98,00 %
06.07.2016 00:10 20,1 C 64 % 1013,6 hPa 0,0 l/m 8,9 km/h (2 Bft) W-SW 257 0 min 0,000 mm 0,0 UV-I 0 W/m 13,1 C 19,1 C 14,5 km/h (3 Bft) 97,37 %
06.07.2016 00:12 20,0 C 64 % 1013,7 hPa 0,0 l/m 10,9 km/h (2 Bft) W-SW 240 0 min 0,000 mm 0,0 UV-I 0 W/m 13,0 C 18,4 C 16,1 km/h (3 Bft) 98,11 %
06.07.2016 00:14 20,0 C 64 % 1013,8 hPa 0,0 l/m 12,2 km/h (2 Bft) SW 230 0 min 0,000 mm 0,0 UV-I 0 W/m 13,0 C 18,0 C 17,7 km/h (3 Bft) 97,62 %
06.07.2016 00:16 19,9 C 64 % 1013,7 hPa 0,0 l/m 11,5 km/h (2 Bft) SW 236 0 min 0,000 mm 0,0 UV-I 0 W/m 12,9 C 18,1 C 17,7 km/h (3 Bft) 98,08 %
06.07.2016 00:18 19,9 C 64 % 1013,7 hPa 0,0 l/m 14,8 km/h (3 Bft) W-SW 247 0 min 0,000 mm 0,0 UV-I 0 W/m 12,9 C 17,2 C 22,5 km/h (4 Bft) 97,92 %
06.07.2016 00:20 19,9 C 63 % 1013,8 hPa 0,0 l/m 10,6 km/h (2 Bft) W-SW 248 0 min 0,000 mm 0,0 UV-I 0 W/m 12,6 C 18,3 C 19,3 km/h (3 Bft) 95,12 %
06.07.2016 00:22 19,9 C 64 % 1013,8 hPa 0,0 l/m 11,8 km/h (2 Bft) W-SW 250 0 min 0,000 mm 0,0 UV-I 0 W/m 12,9 C 18,0 C 16,1 km/h (3 Bft) 100,00 %
06.07.2016 00:24 19,9 C 64 % 1013,9 hPa 0,0 l/m 12,7 km/h (3 Bft) W 269 0 min 0,000 mm 0,0 UV-I 0 W/m 12,9 C 17,7 C 24,1 km/h (4 Bft) 98,31 %
06.07.2016 00:26 19,9 C 63 % 1013,9 hPa 0,0 l/m 11,1 km/h (2 Bft) W-SW 246 0 min 0,000 mm 0,0 UV-I 0 W/m 12,6 C 18,2 C 17,7 km/h (3 Bft) 100,00 %
06.07.2016 00:28 19,9 C 63 % 1013,9 hPa 0,0 l/m 13,2 km/h (3 Bft) SW 225 0 min 0,000 mm 0,0 UV-I 0 W/m 12,6 C 17,6 C 19,3 km/h (3 Bft) 100,00 %
06.07.2016 00:30 19,9 C 63 % 1014,0 hPa 0,0 l/m 10,7 km/h (2 Bft) SW 222 0 min 0,000 mm 0,0 UV-I 0 W/m 12,6 C 18,3 C 14,5 km/h (3 Bft) 97,87 %
06.07.2016 00:32 19,8 C 64 % 1014,1 hPa 0,0 l/m 11,0 km/h (2 Bft) SW 234 0 min 0,000 mm 0,0 UV-I 0 W/m 12,8 C 18,1 C 17,7 km/h (3 Bft) 100,00 %
06.07.2016 00:34 19,8 C 64 % 1014,2 hPa 0,0 l/m 8,6 km/h (2 Bft) SW 215 0 min 0,000 mm 0,0 UV-I 0 W/m 12,8 C 18,9 C 14,5 km/h (3 Bft) 100,00 %
06.07.2016 00:36 19,7 C 65 % 1014,4 hPa 0,0 l/m 12,2 km/h (2 Bft) SW 222 0 min 0,000 mm 0,0 UV-I 0 W/m 12,9 C 17,6 C 19,3 km/h (3 Bft) 100,00 %
06.07.2016 00:38 19,6 C 67 % 1014,6 hPa 0,0 l/m 13,2 km/h (3 Bft) SW 226 0 min 0,000 mm 0,0 UV-I 0 W/m 13,3 C 17,2 C 22,5 km/h (4 Bft) 100,00 %
06.07.2016 00:40 19,6 C 68 % 1014,5 hPa 0,0 l/m 12,3 km/h (3 Bft) S 175 0 min 0,000 mm 0,0 UV-I 0 W/m 13,5 C 17,5 C 20,9 km/h (4 Bft) 100,00 %
06.07.2016 00:42 19,4 C 68 % 1014,5 hPa 0,0 l/m 11,6 km/h (2 Bft) S-SW 207 0 min 0,000 mm 0,0 UV-I 0 W/m 13,3 C 17,5 C 16,1 km/h (3 Bft) 100,00 %
06.07.2016 00:44 19,3 C 68 % 1014,5 hPa 0,0 l/m 13,6 km/h (3 Bft) W-SW 246 0 min 0,000 mm 0,0 UV-I 0 W/m 13,2 C 16,8 C 20,9 km/h (4 Bft) 96,43 %
06.07.2016 00:46 19,3 C 68 % 1014,5 hPa 0,0 l/m 15,7 km/h (3 Bft) SW 228 0 min 0,000 mm 0,0 UV-I 0 W/m 13,2 C 16,2 C 22,5 km/h (4 Bft) 100,00 %
06.07.2016 00:48 19,3 C 68 % 1014,5 hPa 0,0 l/m 11,2 km/h (2 Bft) W-SW 238 0 min 0,000 mm 0,0 UV-I 0 W/m 13,2 C 17,5 C 16,1 km/h (3 Bft) 100,00 %
06.07.2016 00:50 19,3 C 67 % 1014,6 hPa 0,0 l/m 14,2 km/h (3 Bft) SW 215 0 min 0,000 mm 0,0 UV-I 0 W/m 13,0 C 16,6 C 20,9 km/h (4 Bft) 96,00 %
06.07.2016 00:52 19,3 C 67 % 1014,6 hPa 0,0 l/m 11,7 km/h (2 Bft) SW 224 0 min 0,000 mm 0,0 UV-I 0 W/m 13,0 C 17,3 C 16,1 km/h (3 Bft) 100,00 %
06.07.2016 00:54 19,4 C 66 % 1014,6 hPa 0,0 l/m 14,0 km/h (3 Bft) W-SW 251 0 min 0,000 mm 0,0 UV-I 0 W/m 12,9 C 16,8 C 19,3 km/h (3 Bft) 100,00 %
06.07.2016 00:56 19,4 C 65 % 1014,7 hPa 0,0 l/m 15,5 km/h (3 Bft) SW 232 0 min 0,000 mm 0,0 UV-I 0 W/m 12,6 C 16,4 C 24,1 km/h (4 Bft) 100,00 %
06.07.2016 00:58 19,4 C 65 % 1014,8 hPa 0,0 l/m 12,8 km/h (3 Bft) SW 223 0 min 0,000 mm 0,0 UV-I 0 W/m 12,6 C 17,1 C 17,7 km/h (3 Bft) 100,00 %
06.07.2016 01:00 19,4 C 64 % 1014,8 hPa 0,0 l/m 13,1 km/h (3 Bft) SW 223 0 min 0,076 mm 0,0 UV-I 0 W/m 12,4 C 17,0 C 22,5 km/h (4 Bft) 98,00 %
06.07.2016 01:02 19,4 C 63 % 1014,8 hPa 0,0 l/m 13,4 km/h (3 Bft) SW 234 0 min 0,000 mm 0,0 UV-I 0 W/m 12,2 C 16,9 C 22,5 km/h (4 Bft) 97,87 %
06.07.2016 01:04 19,5 C 63 % 1014,9 hPa 0,0 l/m 16,1 km/h (3 Bft) SW 217 0 min 0,000 mm 0,0 UV-I 0 W/m 12,3 C 16,4 C 22,5 km/h (4 Bft) 100,00 %
06.07.2016 01:06 19,5 C 63 % 1014,9 hPa 0,0 l/m 15,9 km/h (3 Bft) W-SW 252 0 min 0,000 mm 0,0 UV-I 0 W/m 12,3 C 16,4 C 22,5 km/h (4 Bft) 98,11 %
06.07.2016 01:08 19,6 C 63 % 1014,9 hPa 0,0 l/m 11,9 km/h (2 Bft) W-SW 256 0 min 0,000 mm 0,0 UV-I 0 W/m 12,4 C 17,6 C 20,9 km/h (4 Bft) 100,00 %
06.07.2016 01:10 19,6 C 63 % 1015,0 hPa 0,0 l/m 15,2 km/h (3 Bft) W-SW 238 0 min 0,000 mm 0,0 UV-I 0 W/m 12,4 C 16,7 C 22,5 km/h (4 Bft) 100,00 %
06.07.2016 01:12 19,6 C 62 % 1015,0 hPa 0,0 l/m 15,2 km/h (3 Bft) SW 229 0 min 0,000 mm 0,0 UV-I 0 W/m 12,1 C 16,7 C 24,1 km/h (4 Bft) 100,00 %
06.07.2016 01:14 19,6 C 62 % 1015,0 hPa 0,0 l/m 13,5 km/h (3 Bft) W 263 0 min 0,000 mm 0,0 UV-I 0 W/m 12,1 C 17,1 C 17,7 km/h (3 Bft) 100,00 %
06.07.2016 01:16 19,6 C 62 % 1015,0 hPa 0,0 l/m 13,6 km/h (3 Bft) W 259 0 min 0,000 mm 0,0 UV-I 0 W/m 12,1 C 17,1 C 19,3 km/h (3 Bft) 100,00 %
06.07.2016 01:18 19,6 C 62 % 1015,0 hPa 0,0 l/m 14,3 km/h (3 Bft) W-SW 242 0 min 0,000 mm 0,0 UV-I 0 W/m 12,1 C 16,9 C 17,7 km/h (3 Bft) 100,00 %
06.07.2016 01:20 19,6 C 62 % 1015,0 hPa 0,0 l/m 14,6 km/h (3 Bft) W-SW 250 0 min 0,000 mm 0,0 UV-I 0 W/m 12,1 C 16,9 C 17,7 km/h (3 Bft) 100,00 %
06.07.2016 01:22 19,6 C 62 % 1015,0 hPa 0,0 l/m 16,9 km/h (3 Bft) W-SW 257 0 min 0,000 mm 0,0 UV-I 0 W/m 12,1 C 16,3 C 25,7 km/h (4 Bft) 100,00 %
06.07.2016 01:24 19,6 C 62 % 1015,0 hPa 0,0 l/m 12,9 km/h (3 Bft) W-SW 244 0 min 0,000 mm 0,0 UV-I 0 W/m 12,1 C 17,3 C 17,7 km/h (3 Bft) 96,43 %
06.07.2016 01:26 19,6 C 62 % 1015,0 hPa 0,0 l/m 14,3 km/h (3 Bft) SW 235 0 min 0,000 mm 0,0 UV-I 0 W/m 12,1 C 16,9 C 20,9 km/h (4 Bft) 97,73 %
06.07.2016 01:28 19,5 C 61 % 1015,0 hPa 0,0 l/m 14,5 km/h (3 Bft) W 268 0 min 0,000 mm 0,0 UV-I 0 W/m 11,8 C 16,8 C 24,1 km/h (4 Bft) 100,00 %
06.07.2016 01:30 19,5 C 61 % 1015,0 hPa 0,0 l/m 17,5 km/h (3 Bft) W 263 0 min 0,000 mm 0,0 UV-I 0 W/m 11,8 C 16,1 C 27,4 km/h (4 Bft) 97,87 %
06.07.2016 01:32 19,5 C 61 % 1015,0 hPa 0,0 l/m 11,5 km/h (2 Bft) W-SW 242 0 min 0,000 mm 0,0 UV-I 0 W/m 11,8 C 17,6 C 16,1 km/h (3 Bft) 100,00 %
06.07.2016 01:34 19,5 C 62 % 1015,1 hPa 0,0 l/m 13,0 km/h (3 Bft) W-SW 248 0 min 0,000 mm 0,0 UV-I 0 W/m 12,0 C 17,2 C 19,3 km/h (3 Bft) 97,87 %
06.07.2016 01:36 19,4 C 62 % 1015,1 hPa 0,0 l/m 12,6 km/h (3 Bft) W-SW 247 0 min 0,000 mm 0,0 UV-I 0 W/m 11,9 C 17,2 C 17,7 km/h (3 Bft) 97,62 %
06.07.2016 01:38 19,4 C 62 % 1015,1 hPa 0,0 l/m 11,8 km/h (2 Bft) W-SW 254 0 min 0,000 mm 0,0 UV-I 0 W/m 11,9 C 17,4 C 17,7 km/h (3 Bft) 98,11 %
06.07.2016 01:40 19,3 C 63 % 1015,1 hPa 0,0 l/m 11,2 km/h (2 Bft) W-SW 240 0 min 0,000 mm 0,0 UV-I 0 W/m 12,1 C 17,5 C 16,1 km/h (3 Bft) 100,00 %
06.07.2016 01:42 19,2 C 63 % 1015,1 hPa 0,0 l/m 9,2 km/h (2 Bft) W-SW 248 0 min 0,000 mm 0,0 UV-I 0 W/m 12,0 C 18,0 C 14,5 km/h (3 Bft) 100,00 %
06.07.2016 01:44 19,1 C 64 % 1015,1 hPa 0,0 l/m 9,5 km/h (2 Bft) SW 225 0 min 0,000 mm 0,0 UV-I 0 W/m 12,1 C 17,8 C 16,1 km/h (3 Bft) 96,15 %
06.07.2016 01:46 19,1 C 65 % 1015,1 hPa 0,0 l/m 10,1 km/h (2 Bft) W-SW 241 0 min 0,000 mm 0,0 UV-I 0 W/m 12,4 C 17,6 C 17,7 km/h (3 Bft) 97,06 %
06.07.2016 01:48 18,8 C 66 % 1015,1 hPa 0,0 l/m 11,8 km/h (2 Bft) SW 223 0 min 0,000 mm 0,0 UV-I 0 W/m 12,3 C 16,7 C 16,1 km/h (3 Bft) 95,74 %
06.07.2016 01:50 18,7 C 67 % 1015,1 hPa 0,0 l/m 11,2 km/h (2 Bft) SW 235 0 min 0,000 mm 0,0 UV-I 0 W/m 12,4 C 16,8 C 16,1 km/h (3 Bft) 98,00 %
06.07.2016 01:52 18,6 C 68 % 1015,1 hPa 0,0 l/m 9,1 km/h (2 Bft) SW 229 0 min 0,000 mm 0,0 UV-I 0 W/m 12,6 C 17,4 C 16,1 km/h (3 Bft) 97,37 %
06.07.2016 01:54 18,4 C 69 % 1015,1 hPa 0,0 l/m 7,1 km/h (2 Bft) SW 230 0 min 0,000 mm 0,0 UV-I 0 W/m 12,6 C 18,1 C 11,3 km/h (2 Bft) 97,56 %
06.07.2016 01:56 18,3 C 69 % 1015,0 hPa 0,0 l/m 6,7 km/h (2 Bft) SW 234 0 min 0,000 mm 0,0 UV-I 0 W/m 12,5 C 18,2 C 9,7 km/h (2 Bft) 98,18 %
06.07.2016 01:58 18,2 C 70 % 1015,0 hPa 0,0 l/m 5,5 km/h (1 Bft) S-SW 209 0 min 0,000 mm 0,0 UV-I 0 W/m 12,6 C 18,2 C 8,0 km/h (2 Bft) 98,11 %
06.07.2016 02:00 18,0 C 71 % 1015,0 hPa 0,0 l/m 8,1 km/h (2 Bft) S-SW 203 0 min 0,076 mm 0,0 UV-I 0 W/m 12,7 C 17,2 C 12,9 km/h (3 Bft) 95,74 %
06.07.2016 02:02 17,9 C 71 % 1015,1 hPa 0,0 l/m 8,2 km/h (2 Bft) S 186 0 min 0,000 mm 0,0 UV-I 0 W/m 12,6 C 17,1 C 11,3 km/h (2 Bft) 97,87 %
06.07.2016 02:04 17,8 C 72 % 1015,1 hPa 0,0 l/m 9,2 km/h (2 Bft) SW 216 0 min 0,000 mm 0,0 UV-I 0 W/m 12,7 C 16,5 C 11,3 km/h (2 Bft) 97,87 %
06.07.2016 02:06 17,8 C 73 % 1015,1 hPa 0,0 l/m 8,7 km/h (2 Bft) SW 227 0 min 0,000 mm 0,0 UV-I 0 W/m 12,9 C 16,7 C 12,9 km/h (3 Bft) 97,67 %
06.07.2016 02:08 17,7 C 73 % 1015,1 hPa 0,0 l/m 9,4 km/h (2 Bft) SW 223 0 min 0,000 mm 0,0 UV-I 0 W/m 12,8 C 16,3 C 14,5 km/h (3 Bft) 97,73 %
06.07.2016 02:10 17,7 C 73 % 1015,1 hPa 0,0 l/m 8,8 km/h (2 Bft) S-SW 210 0 min 0,000 mm 0,0 UV-I 0 W/m 12,8 C 16,6 C 12,9 km/h (3 Bft) 97,62 %
06.07.2016 02:12 17,6 C 74 % 1015,0 hPa 0,0 l/m 10,7 km/h (2 Bft) S-SW 200 0 min 0,000 mm 0,0 UV-I 0 W/m 12,9 C 15,7 C 16,1 km/h (3 Bft) 98,18 %
06.07.2016 02:14 17,5 C 74 % 1015,1 hPa 0,0 l/m 9,6 km/h (2 Bft) S-SW 211 0 min 0,000 mm 0,0 UV-I 0 W/m 12,8 C 16,0 C 12,9 km/h (3 Bft) 96,00 %
06.07.2016 02:16 17,5 C 74 % 1015,1 hPa 0,0 l/m 10,8 km/h (2 Bft) S-SW 201 0 min 0,000 mm 0,0 UV-I 0 W/m 12,8 C 15,6 C 16,1 km/h (3 Bft) 95,12 %
06.07.2016 02:18 17,4 C 74 % 1015,1 hPa 0,0 l/m 13,1 km/h (3 Bft) W-SW 241 0 min 0,000 mm 0,0 UV-I 0 W/m 12,7 C 14,7 C 19,3 km/h (3 Bft) 97,37 %
06.07.2016 02:20 17,5 C 74 % 1015,1 hPa 0,0 l/m 11,3 km/h (2 Bft) S-SW 198 0 min 0,000 mm 0,0 UV-I 0 W/m 12,8 C 15,4 C 20,9 km/h (4 Bft) 100,00 %
06.07.2016 02:22 17,5 C 74 % 1015,1 hPa 0,0 l/m 12,6 km/h (3 Bft) SW 224 0 min 0,000 mm 0,0 UV-I 0 W/m 12,8 C 15,0 C 19,3 km/h (3 Bft) 100,00 %
06.07.2016 02:24 17,5 C 74 % 1015,0 hPa 0,0 l/m 13,9 km/h (3 Bft) W-SW 241 0 min 0,000 mm 0,0 UV-I 0 W/m 12,8 C 14,5 C 22,5 km/h (4 Bft) 98,21 %
06.07.2016 02:26 17,5 C 74 % 1015,1 hPa 0,0 l/m 12,3 km/h (3 Bft) W 260 0 min 0,000 mm 0,0 UV-I 0 W/m 12,8 C 15,0 C 16,1 km/h (3 Bft) 97,73 %
06.07.2016 02:28 17,6 C 74 % 1015,1 hPa 0,0 l/m 8,4 km/h (2 Bft) SW 219 0 min 0,000 mm 0,0 UV-I 0 W/m 12,9 C 16,7 C 14,5 km/h (3 Bft) 97,56 %
06.07.2016 02:30 17,5 C 75 % 1015,1 hPa 0,0 l/m 9,6 km/h (2 Bft) SW 221 0 min 0,000 mm 0,0 UV-I 0 W/m 13,0 C 16,0 C 16,1 km/h (3 Bft) 98,00 %
06.07.2016 02:32 17,4 C 75 % 1015,0 hPa 0,0 l/m 10,7 km/h (2 Bft) W-SW 241 0 min 0,000 mm 0,0 UV-I 0 W/m 12,9 C 15,5 C 17,7 km/h (3 Bft) 100,00 %
06.07.2016 02:34 17,3 C 75 % 1015,1 hPa 0,0 l/m 9,9 km/h (2 Bft) W-SW 243 0 min 0,000 mm 0,0 UV-I 0 W/m 12,8 C 15,7 C 16,1 km/h (3 Bft) 100,00 %
06.07.2016 02:36 17,3 C 76 % 1015,0 hPa 0,0 l/m 10,1 km/h (2 Bft) S-SW 212 0 min 0,000 mm 0,0 UV-I 0 W/m 13,0 C 15,6 C 16,1 km/h (3 Bft) 100,00 %
06.07.2016 02:38 17,3 C 76 % 1015,0 hPa 0,0 l/m 8,5 km/h (2 Bft) SW 227 0 min 0,000 mm 0,0 UV-I 0 W/m 13,0 C 16,3 C 12,9 km/h (3 Bft) 100,00 %
06.07.2016 02:40 17,3 C 76 % 1015,1 hPa 0,0 l/m 10,2 km/h (2 Bft) SW 231 0 min 0,000 mm 0,0 UV-I 0 W/m 13,0 C 15,6 C 16,1 km/h (3 Bft) 100,00 %
06.07.2016 02:42 17,2 C 76 % 1015,0 hPa 0,0 l/m 9,1 km/h (2 Bft) SW 231 0 min 0,000 mm 0,0 UV-I 0 W/m 12,9 C 15,9 C 12,9 km/h (3 Bft) 100,00 %
06.07.2016 02:44 17,2 C 76 % 1015,1 hPa 0,0 l/m 10,0 km/h (2 Bft) SW 231 0 min 0,000 mm 0,0 UV-I 0 W/m 12,9 C 15,5 C 16,1 km/h (3 Bft) 100,00 %
06.07.2016 02:46 17,2 C 76 % 1015,1 hPa 0,0 l/m 8,1 km/h (2 Bft) SW 228 0 min 0,000 mm 0,0 UV-I 0 W/m 12,9 C 16,4 C 12,9 km/h (3 Bft) 96,30 %
06.07.2016 02:48 17,1 C 77 % 1015,1 hPa 0,0 l/m 10,3 km/h (2 Bft) SW 224 0 min 0,000 mm 0,0 UV-I 0 W/m 13,0 C 15,3 C 14,5 km/h (3 Bft) 100,00 %
06.07.2016 02:50 17,1 C 77 % 1015,1 hPa 0,0 l/m 9,5 km/h (2 Bft) W-SW 239 0 min 0,000 mm 0,0 UV-I 0 W/m 13,0 C 15,6 C 16,1 km/h (3 Bft) 100,00 %
06.07.2016 02:52 17,1 C 78 % 1015,1 hPa 0,0 l/m 8,3 km/h (2 Bft) W-SW 242 0 min 0,000 mm 0,0 UV-I 0 W/m 13,2 C 16,2 C 12,9 km/h (3 Bft) 100,00 %
06.07.2016 02:54 17,0 C 78 % 1015,1 hPa 0,0 l/m 9,2 km/h (2 Bft) S-SW 205 0 min 0,000 mm 0,0 UV-I 0 W/m 13,1 C 15,7 C 14,5 km/h (3 Bft) 100,00 %
06.07.2016 02:56 17,0 C 78 % 1015,1 hPa 0,0 l/m 9,5 km/h (2 Bft) W-SW 242 0 min 0,000 mm 0,0 UV-I 0 W/m 13,1 C 15,5 C 14,5 km/h (3 Bft) 100,00 %
06.07.2016 02:58 17,0 C 78 % 1015,1 hPa 0,0 l/m 8,7 km/h (2 Bft) SW 219 0 min 0,000 mm 0,0 UV-I 0 W/m 13,1 C 15,9 C 14,5 km/h (3 Bft) 100,00 %
06.07.2016 03:00 17,0 C 78 % 1015,0 hPa 0,0 l/m 9,2 km/h (2 Bft) SW 217 0 min 0,000 mm 0,0 UV-I 0 W/m 13,1 C 15,7 C 16,1 km/h (3 Bft) 100,00 %
06.07.2016 03:02 17,0 C 78 % 1015,0 hPa 0,0 l/m 8,0 km/h (2 Bft) SW 228 0 min 0,026 mm 0,0 UV-I 0 W/m 13,1 C 16,2 C 12,9 km/h (3 Bft) 100,00 %
06.07.2016 03:04 16,9 C 78 % 1015,0 hPa 0,0 l/m 9,3 km/h (2 Bft) S 176 0 min 0,000 mm 0,0 UV-I 0 W/m 13,0 C 15,5 C 14,5 km/h (3 Bft) 100,00 %
06.07.2016 03:06 17,0 C 78 % 1015,0 hPa 0,0 l/m 7,9 km/h (2 Bft) SW 217 0 min 0,000 mm 0,0 UV-I 0 W/m 13,1 C 16,2 C 14,5 km/h (3 Bft) 100,00 %
06.07.2016 03:08 17,0 C 78 % 1014,9 hPa 0,0 l/m 9,0 km/h (2 Bft) S-SW 198 0 min 0,000 mm 0,0 UV-I 0 W/m 13,1 C 15,7 C 14,5 km/h (3 Bft) 100,00 %
06.07.2016 03:10 17,1 C 78 % 1015,0 hPa 0,0 l/m 8,8 km/h (2 Bft) S-SW 202 0 min 0,000 mm 0,0 UV-I 0 W/m 13,2 C 15,9 C 14,5 km/h (3 Bft) 100,00 %
06.07.2016 03:12 17,1 C 78 % 1014,9 hPa 0,0 l/m 10,7 km/h (2 Bft) SW 231 0 min 0,000 mm 0,0 UV-I 0 W/m 13,2 C 15,2 C 16,1 km/h (3 Bft) 100,00 %
06.07.2016 03:14 17,1 C 77 % 1014,9 hPa 0,0 l/m 6,4 km/h (2 Bft) SW 233 0 min 0,000 mm 0,0 UV-I 0 W/m 13,0 C 17,1 C 11,3 km/h (2 Bft) 97,87 %
06.07.2016 03:16 17,1 C 77 % 1014,9 hPa 0,0 l/m 9,1 km/h (2 Bft) S-SW 203 0 min 0,000 mm 0,0 UV-I 0 W/m 13,0 C 15,8 C 14,5 km/h (3 Bft) 100,00 %
06.07.2016 03:18 17,1 C 77 % 1014,9 hPa 0,0 l/m 8,7 km/h (2 Bft) W-SW 247 0 min 0,000 mm 0,0 UV-I 0 W/m 13,0 C 16,0 C 12,9 km/h (3 Bft) 100,00 %
06.07.2016 03:20 17,1 C 77 % 1014,9 hPa 0,0 l/m 7,6 km/h (2 Bft) W-SW 245 0 min 0,000 mm 0,0 UV-I 0 W/m 13,0 C 16,5 C 11,3 km/h (2 Bft) 100,00 %
06.07.2016 03:22 17,1 C 77 % 1014,9 hPa 0,0 l/m 8,9 km/h (2 Bft) W-SW 244 0 min 0,000 mm 0,0 UV-I 0 W/m 13,0 C 15,9 C 16,1 km/h (3 Bft) 100,00 %
06.07.2016 03:24 17,1 C 77 % 1014,9 hPa 0,0 l/m 9,5 km/h (2 Bft) S-SW 211 0 min 0,000 mm 0,0 UV-I 0 W/m 13,0 C 15,6 C 14,5 km/h (3 Bft) 100,00 %
06.07.2016 03:26 17,1 C 77 % 1014,9 hPa 0,0 l/m 7,9 km/h (2 Bft) SW 216 0 min 0,000 mm 0,0 UV-I 0 W/m 13,0 C 16,4 C 11,3 km/h (2 Bft) 100,00 %
06.07.2016 03:28 17,1 C 77 % 1014,9 hPa 0,0 l/m 9,2 km/h (2 Bft) W-SW 239 0 min 0,000 mm 0,0 UV-I 0 W/m 13,0 C 15,8 C 14,5 km/h (3 Bft) 96,00 %
06.07.2016 03:30 17,1 C 77 % 1014,8 hPa 0,0 l/m 9,7 km/h (2 Bft) SW 233 0 min 0,000 mm 0,0 UV-I 0 W/m 13,0 C 15,6 C 14,5 km/h (3 Bft) 97,22 %
06.07.2016 03:32 17,0 C 77 % 1014,9 hPa 0,0 l/m 9,4 km/h (2 Bft) SW 226 0 min 0,000 mm 0,0 UV-I 0 W/m 12,9 C 15,6 C 12,9 km/h (3 Bft) 100,00 %
06.07.2016 03:34 16,9 C 77 % 1014,9 hPa 0,0 l/m 7,4 km/h (2 Bft) SW 221 0 min 0,000 mm 0,0 UV-I 0 W/m 12,8 C 16,4 C 11,3 km/h (2 Bft) 100,00 %
06.07.2016 03:36 16,9 C 77 % 1014,8 hPa 0,0 l/m 10,9 km/h (2 Bft) W-SW 238 0 min 0,000 mm 0,0 UV-I 0 W/m 12,8 C 14,9 C 19,3 km/h (3 Bft) 96,23 %
06.07.2016 03:38 16,9 C 77 % 1014,9 hPa 0,0 l/m 10,6 km/h (2 Bft) S-SW 199 0 min 0,000 mm 0,0 UV-I 0 W/m 12,8 C 15,0 C 16,1 km/h (3 Bft) 100,00 %
06.07.2016 03:40 16,9 C 77 % 1014,9 hPa 0,0 l/m 8,1 km/h (2 Bft) W-SW 244 0 min 0,000 mm 0,0 UV-I 0 W/m 12,8 C 16,0 C 12,9 km/h (3 Bft) 100,00 %
06.07.2016 03:42 16,9 C 77 % 1014,9 hPa 0,0 l/m 7,8 km/h (2 Bft) SW 226 0 min 0,000 mm 0,0 UV-I 0 W/m 12,8 C 16,2 C 12,9 km/h (3 Bft) 97,87 %
06.07.2016 03:44 16,9 C 77 % 1014,9 hPa 0,0 l/m 7,6 km/h (2 Bft) SW 235 0 min 0,000 mm 0,0 UV-I 0 W/m 12,8 C 16,3 C 12,9 km/h (3 Bft) 97,56 %
06.07.2016 03:46 16,9 C 77 % 1014,9 hPa 0,0 l/m 8,5 km/h (2 Bft) S-SW 203 0 min 0,000 mm 0,0 UV-I 0 W/m 12,8 C 15,9 C 12,9 km/h (3 Bft) 96,23 %
06.07.2016 03:48 17,0 C 76 % 1014,9 hPa 0,0 l/m 9,1 km/h (2 Bft) W-SW 238 0 min 0,000 mm 0,0 UV-I 0 W/m 12,7 C 15,7 C 17,7 km/h (3 Bft) 97,37 %
06.07.2016 03:50 17,0 C 76 % 1014,8 hPa 0,0 l/m 11,5 km/h (2 Bft) SW 215 0 min 0,000 mm 0,0 UV-I 0 W/m 12,7 C 14,8 C 20,9 km/h (4 Bft) 98,11 %
06.07.2016 03:52 17,1 C 75 % 1014,8 hPa 0,0 l/m 8,3 km/h (2 Bft) S 190 0 min 0,000 mm 0,0 UV-I 0 W/m 12,6 C 16,2 C 11,3 km/h (2 Bft) 97,37 %
06.07.2016 03:54 17,2 C 75 % 1014,8 hPa 0,0 l/m 9,5 km/h (2 Bft) W-SW 252 0 min 0,000 mm 0,0 UV-I 0 W/m 12,7 C 15,8 C 16,1 km/h (3 Bft) 98,21 %
06.07.2016 03:56 17,2 C 74 % 1014,8 hPa 0,0 l/m 8,2 km/h (2 Bft) W-SW 250 0 min 0,000 mm 0,0 UV-I 0 W/m 12,5 C 16,3 C 16,1 km/h (3 Bft) 97,14 %
06.07.2016 03:58 17,3 C 74 % 1014,8 hPa 0,0 l/m 9,4 km/h (2 Bft) W-SW 239 0 min 0,000 mm 0,0 UV-I 0 W/m 12,6 C 15,9 C 17,7 km/h (3 Bft) 95,12 %
06.07.2016 04:00 17,3 C 74 % 1014,8 hPa 0,0 l/m 9,7 km/h (2 Bft) SW 219 0 min 0,000 mm 0,0 UV-I 0 W/m 12,6 C 15,8 C 17,7 km/h (3 Bft) 98,39 %
06.07.2016 04:02 17,2 C 74 % 1014,7 hPa 0,0 l/m 10,5 km/h (2 Bft) S-SW 207 0 min 0,025 mm 0,0 UV-I 0 W/m 12,5 C 15,4 C 16,1 km/h (3 Bft) 100,00 %
06.07.2016 04:04 17,2 C 74 % 1014,7 hPa 0,0 l/m 10,3 km/h (2 Bft) SW 231 0 min 0,000 mm 0,0 UV-I 0 W/m 12,5 C 15,4 C 16,1 km/h (3 Bft) 96,23 %
06.07.2016 04:06 17,2 C 74 % 1014,7 hPa 0,0 l/m 9,8 km/h (2 Bft) S-SW 198 0 min 0,000 mm 0,0 UV-I 0 W/m 12,5 C 15,6 C 16,1 km/h (3 Bft) 94,74 %
06.07.2016 04:08 17,2 C 74 % 1014,7 hPa 0,0 l/m 8,9 km/h (2 Bft) S-SW 205 0 min 0,000 mm 0,0 UV-I 0 W/m 12,5 C 16,0 C 12,9 km/h (3 Bft) 98,00 %
06.07.2016 04:10 17,2 C 74 % 1014,7 hPa 0,0 l/m 8,7 km/h (2 Bft) S 191 0 min 0,000 mm 0,0 UV-I 0 W/m 12,5 C 16,1 C 16,1 km/h (3 Bft) 97,78 %
06.07.2016 04:12 17,2 C 74 % 1014,7 hPa 0,0 l/m 7,6 km/h (2 Bft) SW 218 0 min 0,000 mm 0,0 UV-I 0 W/m 12,5 C 16,6 C 12,9 km/h (3 Bft) 98,00 %
06.07.2016 04:14 17,2 C 74 % 1014,7 hPa 0,0 l/m 9,4 km/h (2 Bft) S-SW 192 0 min 0,000 mm 0,0 UV-I 0 W/m 12,5 C 15,8 C 12,9 km/h (3 Bft) 98,00 %
06.07.2016 04:16 17,2 C 74 % 1014,7 hPa 0,0 l/m 7,9 km/h (2 Bft) S-SW 199 0 min 0,000 mm 0,0 UV-I 0 W/m 12,5 C 16,5 C 14,5 km/h (3 Bft) 98,00 %
06.07.2016 04:18 17,1 C 74 % 1014,6 hPa 0,0 l/m 10,8 km/h (2 Bft) SW 217 0 min 0,000 mm 0,0 UV-I 0 W/m 12,4 C 15,1 C 19,3 km/h (3 Bft) 100,00 %
06.07.2016 04:20 17,1 C 74 % 1014,7 hPa 0,0 l/m 7,1 km/h (2 Bft) S-SW 213 0 min 0,000 mm 0,0 UV-I 0 W/m 12,4 C 16,7 C 11,3 km/h (2 Bft) 100,00 %
06.07.2016 04:22 17,1 C 73 % 1014,7 hPa 0,0 l/m 10,1 km/h (2 Bft) S-SW 205 0 min 0,000 mm 0,0 UV-I 0 W/m 12,2 C 15,4 C 14,5 km/h (3 Bft) 97,73 %
06.07.2016 04:24 17,1 C 73 % 1014,7 hPa 0,0 l/m 9,6 km/h (2 Bft) SW 230 0 min 0,000 mm 0,0 UV-I 0 W/m 12,2 C 15,6 C 14,5 km/h (3 Bft) 100,00 %
06.07.2016 04:26 17,2 C 73 % 1014,8 hPa 0,0 l/m 8,3 km/h (2 Bft) S-SW 194 0 min 0,000 mm 0,0 UV-I 0 W/m 12,3 C 16,3 C 14,5 km/h (3 Bft) 100,00 %
06.07.2016 04:28 17,2 C 73 % 1014,8 hPa 0,0 l/m 8,1 km/h (2 Bft) SW 220 0 min 0,000 mm 0,0 UV-I 0 W/m 12,3 C 16,4 C 12,9 km/h (3 Bft) 100,00 %
06.07.2016 04:30 17,2 C 73 % 1014,7 hPa 0,0 l/m 8,0 km/h (2 Bft) SW 228 0 min 0,000 mm 0,0 UV-I 0 W/m 12,3 C 16,4 C 14,5 km/h (3 Bft) 100,00 %
06.07.2016 04:32 17,2 C 73 % 1014,7 hPa 0,0 l/m 10,9 km/h (2 Bft) W-SW 245 0 min 0,000 mm 0,0 UV-I 0 W/m 12,3 C 15,2 C 17,7 km/h (3 Bft) 100,00 %
06.07.2016 04:34 17,2 C 73 % 1014,8 hPa 0,0 l/m 8,1 km/h (2 Bft) S-SW 198 0 min 0,000 mm 0,0 UV-I 0 W/m 12,3 C 16,4 C 16,1 km/h (3 Bft) 97,73 %
06.07.2016 04:36 17,2 C 73 % 1014,7 hPa 0,0 l/m 10,7 km/h (2 Bft) SW 217 0 min 0,000 mm 0,0 UV-I 0 W/m 12,3 C 15,3 C 16,1 km/h (3 Bft) 97,73 %
06.07.2016 04:38 17,2 C 73 % 1014,7 hPa 0,0 l/m 9,0 km/h (2 Bft) S 190 0 min 0,000 mm 0,0 UV-I 0 W/m 12,3 C 16,0 C 14,5 km/h (3 Bft) 98,00 %
06.07.2016 04:40 17,2 C 73 % 1014,7 hPa 0,0 l/m 8,3 km/h (2 Bft) S-SW 208 0 min 0,000 mm 0,0 UV-I 0 W/m 12,3 C 16,3 C 14,5 km/h (3 Bft) 95,74 %
06.07.2016 04:42 17,2 C 73 % 1014,7 hPa 0,0 l/m 10,4 km/h (2 Bft) S-SW 195 0 min 0,000 mm 0,0 UV-I 0 W/m 12,3 C 15,4 C 16,1 km/h (3 Bft) 100,00 %
06.07.2016 04:44 17,2 C 73 % 1014,7 hPa 0,0 l/m 8,0 km/h (2 Bft) SW 223 0 min 0,000 mm 0,0 UV-I 0 W/m 12,3 C 16,4 C 14,5 km/h (3 Bft) 100,00 %
06.07.2016 04:46 17,2 C 73 % 1014,8 hPa 0,0 l/m 7,4 km/h (2 Bft) S-SW 197 0 min 0,000 mm 0,0 UV-I 0 W/m 12,3 C 16,7 C 11,3 km/h (2 Bft) 100,00 %
06.07.2016 04:48 17,2 C 73 % 1014,7 hPa 0,0 l/m 9,5 km/h (2 Bft) W-SW 248 0 min 0,000 mm 0,0 UV-I 0 W/m 12,3 C 15,8 C 17,7 km/h (3 Bft) 100,00 %
06.07.2016 04:50 17,2 C 73 % 1014,7 hPa 0,0 l/m 9,1 km/h (2 Bft) SW 230 0 min 0,000 mm 0,0 UV-I 0 W/m 12,3 C 15,9 C 12,9 km/h (3 Bft) 100,00 %
06.07.2016 04:52 17,2 C 73 % 1014,7 hPa 0,0 l/m 10,1 km/h (2 Bft) SW 230 0 min 0,000 mm 0,0 UV-I 0 W/m 12,3 C 15,5 C 16,1 km/h (3 Bft) 97,56 %
06.07.2016 04:54 17,2 C 73 % 1014,7 hPa 0,0 l/m 8,1 km/h (2 Bft) S-SW 200 0 min 0,000 mm 0,0 UV-I 0 W/m 12,3 C 16,4 C 12,9 km/h (3 Bft) 98,00 %
06.07.2016 04:56 17,2 C 73 % 1014,7 hPa 0,0 l/m 7,8 km/h (2 Bft) S-SW 207 0 min 0,000 mm 0,0 UV-I 0 W/m 12,3 C 16,5 C 11,3 km/h (2 Bft) 100,00 %
06.07.2016 04:58 17,2 C 73 % 1014,7 hPa 0,0 l/m 6,7 km/h (2 Bft) SW 232 0 min 0,000 mm 0,0 UV-I 0 W/m 12,3 C 17,1 C 12,9 km/h (3 Bft) 100,00 %
06.07.2016 05:00 17,2 C 73 % 1014,7 hPa 0,0 l/m 8,4 km/h (2 Bft) SW 236 0 min 0,000 mm 0,0 UV-I 0 W/m 12,3 C 16,2 C 12,9 km/h (3 Bft) 100,00 %
06.07.2016 05:02 17,2 C 73 % 1014,8 hPa 0,0 l/m 8,4 km/h (2 Bft) W-SW 240 0 min 0,026 mm 0,0 UV-I 0 W/m 12,3 C 16,2 C 14,5 km/h (3 Bft) 100,00 %
06.07.2016 05:04 17,1 C 74 % 1014,7 hPa 0,0 l/m 7,7 km/h (2 Bft) W-SW 240 0 min 0,000 mm 0,0 UV-I 0 W/m 12,4 C 16,5 C 14,5 km/h (3 Bft) 100,00 %
06.07.2016 05:06 17,1 C 74 % 1014,7 hPa 0,0 l/m 8,8 km/h (2 Bft) SW 231 0 min 0,000 mm 0,0 UV-I 0 W/m 12,4 C 15,9 C 16,1 km/h (3 Bft) 100,00 %
06.07.2016 05:08 17,0 C 74 % 1014,7 hPa 0,0 l/m 7,5 km/h (2 Bft) SW 221 0 min 0,000 mm 0,0 UV-I 0 W/m 12,3 C 16,4 C 12,9 km/h (3 Bft) 100,00 %
06.07.2016 05:10 16,9 C 74 % 1014,8 hPa 0,0 l/m 9,2 km/h (2 Bft) W-SW 243 0 min 0,000 mm 0,0 UV-I 0 W/m 12,2 C 15,6 C 17,7 km/h (3 Bft) 100,00 %
06.07.2016 05:12 16,9 C 74 % 1014,8 hPa 0,0 l/m 8,1 km/h (2 Bft) S-SW 207 0 min 0,000 mm 0,0 UV-I 0 W/m 12,2 C 16,0 C 11,3 km/h (2 Bft) 100,00 %
06.07.2016 05:14 16,8 C 75 % 1014,8 hPa 0,0 l/m 8,9 km/h (2 Bft) SW 227 0 min 0,000 mm 0,0 UV-I 4 W/m 12,3 C 15,6 C 12,9 km/h (3 Bft) 100,00 %
06.07.2016 05:16 16,8 C 75 % 1014,8 hPa 0,0 l/m 10,8 km/h (2 Bft) SW 230 0 min 0,000 mm 0,0 UV-I 5 W/m 12,3 C 14,8 C 14,5 km/h (3 Bft) 97,56 %
06.07.2016 05:18 16,7 C 76 % 1014,8 hPa 0,0 l/m 10,7 km/h (2 Bft) SW 236 0 min 0,000 mm 0,0 UV-I 5 W/m 12,4 C 14,7 C 16,1 km/h (3 Bft) 98,21 %
06.07.2016 05:20 16,7 C 76 % 1014,8 hPa 0,0 l/m 10,5 km/h (2 Bft) SW 225 0 min 0,000 mm 0,0 UV-I 7 W/m 12,4 C 14,8 C 14,5 km/h (3 Bft) 100,00 %
06.07.2016 05:22 16,7 C 76 % 1014,8 hPa 0,0 l/m 10,9 km/h (2 Bft) W-SW 244 0 min 0,000 mm 0,0 UV-I 7 W/m 12,4 C 14,6 C 16,1 km/h (3 Bft) 100,00 %
06.07.2016 05:24 16,7 C 76 % 1014,9 hPa 0,0 l/m 11,6 km/h (2 Bft) S-SW 202 0 min 0,000 mm 0,0 UV-I 8 W/m 12,4 C 14,4 C 16,1 km/h (3 Bft) 100,00 %
06.07.2016 05:26 16,7 C 76 % 1014,9 hPa 0,0 l/m 9,3 km/h (2 Bft) S-SW 212 0 min 0,000 mm 0,0 UV-I 9 W/m 12,4 C 15,3 C 14,5 km/h (3 Bft) 97,87 %
06.07.2016 05:28 16,7 C 76 % 1015,0 hPa 0,0 l/m 11,0 km/h (2 Bft) W-SW 246 0 min 0,000 mm 0,0 UV-I 11 W/m 12,4 C 14,6 C 14,5 km/h (3 Bft) 100,00 %
06.07.2016 05:30 16,8 C 76 % 1015,0 hPa 0,0 l/m 8,5 km/h (2 Bft) SW 220 0 min 0,000 mm 0,0 UV-I 11 W/m 12,5 C 15,8 C 12,9 km/h (3 Bft) 100,00 %
06.07.2016 05:32 16,8 C 76 % 1014,9 hPa 0,0 l/m 8,3 km/h (2 Bft) W 263 0 min 0,000 mm 0,0 UV-I 11 W/m 12,5 C 15,8 C 14,5 km/h (3 Bft) 100,00 %
06.07.2016 05:34 16,8 C 76 % 1014,9 hPa 0,0 l/m 8,8 km/h (2 Bft) SW 227 0 min 0,000 mm 0,0 UV-I 12 W/m 12,5 C 15,6 C 12,9 km/h (3 Bft) 95,12 %
06.07.2016 05:36 16,8 C 76 % 1014,9 hPa 0,0 l/m 9,2 km/h (2 Bft) SW 230 0 min 0,000 mm 0,0 UV-I 12 W/m 12,5 C 15,4 C 14,5 km/h (3 Bft) 100,00 %
06.07.2016 05:38 16,7 C 76 % 1014,9 hPa 0,0 l/m 10,5 km/h (2 Bft) SW 236 0 min 0,000 mm 0,0 UV-I 13 W/m 12,4 C 14,8 C 16,1 km/h (3 Bft) 100,00 %
06.07.2016 05:40 16,7 C 76 % 1014,9 hPa 0,0 l/m 8,4 km/h (2 Bft) W-SW 242 0 min 0,000 mm 0,0 UV-I 15 W/m 12,4 C 15,7 C 11,3 km/h (2 Bft) 97,87 %
06.07.2016 05:42 16,7 C 76 % 1015,0 hPa 0,0 l/m 10,8 km/h (2 Bft) W-SW 242 0 min 0,000 mm 0,0 UV-I 17 W/m 12,4 C 14,7 C 16,1 km/h (3 Bft) 98,04 %
06.07.2016 05:44 16,7 C 76 % 1014,9 hPa 0,0 l/m 7,9 km/h (2 Bft) SW 229 0 min 0,000 mm 0,0 UV-I 19 W/m 12,4 C 15,9 C 14,5 km/h (3 Bft) 97,56 %
06.07.2016 05:46 16,7 C 77 % 1015,0 hPa 0,0 l/m 7,9 km/h (2 Bft) SW 236 0 min 0,000 mm 0,0 UV-I 21 W/m 12,6 C 15,9 C 12,9 km/h (3 Bft) 90,57 %
06.07.2016 05:48 16,6 C 77 % 1015,0 hPa 0,0 l/m 6,5 km/h (2 Bft) W-SW 238 0 min 0,000 mm 0,0 UV-I 21 W/m 12,5 C 16,6 C 9,7 km/h (2 Bft) 97,56 %
06.07.2016 05:50 16,6 C 77 % 1014,9 hPa 0,0 l/m 6,3 km/h (2 Bft) W-SW 257 0 min 0,000 mm 0,0 UV-I 21 W/m 12,5 C 16,6 C 11,3 km/h (2 Bft) 98,00 %
06.07.2016 05:52 16,6 C 77 % 1015,0 hPa 0,0 l/m 5,5 km/h (1 Bft) W-SW 249 0 min 0,000 mm 0,0 UV-I 21 W/m 12,5 C 16,6 C 8,0 km/h (2 Bft) 95,83 %
06.07.2016 05:54 16,6 C 77 % 1015,0 hPa 0,0 l/m 5,1 km/h (1 Bft) W-SW 243 0 min 0,000 mm 0,0 UV-I 21 W/m 12,5 C 16,6 C 8,0 km/h (2 Bft) 95,74 %
06.07.2016 05:56 16,6 C 77 % 1015,0 hPa 0,0 l/m 4,7 km/h (1 Bft) W-SW 240 0 min 0,000 mm 0,0 UV-I 21 W/m 12,5 C 16,6 C 6,4 km/h (2 Bft) 95,74 %
06.07.2016 05:58 16,6 C 77 % 1015,0 hPa 0,0 l/m 5,9 km/h (2 Bft) W-SW 238 0 min 0,000 mm 0,0 UV-I 25 W/m 12,5 C 16,6 C 8,0 km/h (2 Bft) 97,56 %
06.07.2016 06:00 16,6 C 78 % 1015,0 hPa 0,0 l/m 6,5 km/h (2 Bft) SW 231 0 min 0,000 mm 0,0 UV-I 30 W/m 12,7 C 16,6 C 9,7 km/h (2 Bft) 98,00 %
06.07.2016 06:02 16,6 C 78 % 1015,0 hPa 0,0 l/m 5,3 km/h (1 Bft) S-SW 204 0 min 0,025 mm 0,0 UV-I 30 W/m 12,7 C 16,6 C 8,0 km/h (2 Bft) 96,67 %
06.07.2016 06:04 16,6 C 78 % 1015,1 hPa 0,0 l/m 6,2 km/h (2 Bft) SW 236 0 min 0,000 mm 0,0 UV-I 30 W/m 12,7 C 16,6 C 9,7 km/h (2 Bft) 97,14 %
06.07.2016 06:06 16,6 C 78 % 1015,1 hPa 0,0 l/m 5,3 km/h (1 Bft) SW 217 0 min 0,000 mm 0,0 UV-I 32 W/m 12,7 C 16,6 C 6,4 km/h (2 Bft) 97,87 %
06.07.2016 06:08 16,6 C 78 % 1015,1 hPa 0,0 l/m 4,5 km/h (1 Bft) SW 229 0 min 0,000 mm 0,0 UV-I 33 W/m 12,7 C 16,6 C 8,0 km/h (2 Bft) 94,87 %
06.07.2016 06:10 16,6 C 78 % 1015,1 hPa 0,0 l/m 7,3 km/h (2 Bft) SW 233 0 min 0,000 mm 0,0 UV-I 36 W/m 12,7 C 16,1 C 9,7 km/h (2 Bft) 96,00 %
06.07.2016 06:12 16,6 C 78 % 1015,1 hPa 0,0 l/m 6,3 km/h (2 Bft) SW 232 0 min 0,000 mm 0,0 UV-I 36 W/m 12,7 C 16,6 C 8,0 km/h (2 Bft) 97,73 %
06.07.2016 06:14 16,6 C 78 % 1015,1 hPa 0,0 l/m 5,7 km/h (1 Bft) W-SW 240 0 min 0,000 mm 0,0 UV-I 36 W/m 12,7 C 16,6 C 8,0 km/h (2 Bft) 98,11 %
06.07.2016 06:16 16,6 C 78 % 1015,2 hPa 0,0 l/m 4,7 km/h (1 Bft) SW 215 0 min 0,000 mm 0,0 UV-I 39 W/m 12,7 C 16,6 C 8,0 km/h (2 Bft) 100,00 %
06.07.2016 06:18 16,5 C 78 % 1015,1 hPa 0,0 l/m 6,3 km/h (2 Bft) SW 232 0 min 0,000 mm 0,0 UV-I 44 W/m 12,6 C 16,5 C 8,0 km/h (2 Bft) 100,00 %
06.07.2016 06:20 16,6 C 79 % 1015,1 hPa 0,0 l/m 6,3 km/h (2 Bft) SW 219 0 min 0,000 mm 0,0 UV-I 47 W/m 12,9 C 16,6 C 8,0 km/h (2 Bft) 97,37 %
06.07.2016 06:22 16,6 C 79 % 1015,1 hPa 0,0 l/m 4,7 km/h (1 Bft) SW 219 0 min 0,000 mm 0,0 UV-I 49 W/m 12,9 C 16,6 C 8,0 km/h (2 Bft) 98,11 %
06.07.2016 06:24 16,6 C 79 % 1015,1 hPa 0,0 l/m 7,7 km/h (2 Bft) W-SW 245 0 min 0,000 mm 0,0 UV-I 49 W/m 12,9 C 15,9 C 11,3 km/h (2 Bft) 100,00 %
06.07.2016 06:26 16,5 C 79 % 1015,1 hPa 0,0 l/m 6,9 km/h (2 Bft) SW 236 0 min 0,000 mm 0,0 UV-I 52 W/m 12,8 C 16,2 C 11,3 km/h (2 Bft) 100,00 %
06.07.2016 06:28 16,6 C 79 % 1015,2 hPa 0,0 l/m 7,4 km/h (2 Bft) SW 228 0 min 0,000 mm 0,0 UV-I 52 W/m 12,9 C 16,1 C 11,3 km/h (2 Bft) 96,23 %
06.07.2016 06:30 16,5 C 79 % 1015,2 hPa 0,0 l/m 7,2 km/h (2 Bft) SW 228 0 min 0,000 mm 0,0 UV-I 61 W/m 12,8 C 16,1 C 11,3 km/h (2 Bft) 98,11 %
06.07.2016 06:32 16,6 C 79 % 1015,2 hPa 0,0 l/m 6,3 km/h (2 Bft) SW 232 0 min 0,000 mm 0,0 UV-I 60 W/m 12,9 C 16,6 C 9,7 km/h (2 Bft) 100,00 %
06.07.2016 06:34 16,6 C 79 % 1015,1 hPa 0,0 l/m 4,7 km/h (1 Bft) SW 225 0 min 0,000 mm 0,0 UV-I 66 W/m 12,9 C 16,6 C 6,4 km/h (2 Bft) 100,00 %
06.07.2016 06:36 16,7 C 79 % 1015,1 hPa 0,0 l/m 6,0 km/h (2 Bft) SW 236 0 min 0,000 mm 0,0 UV-I 69 W/m 13,0 C 16,7 C 8,0 km/h (2 Bft) 100,00 %
06.07.2016 06:38 16,7 C 79 % 1015,1 hPa 0,0 l/m 5,4 km/h (1 Bft) SW 219 0 min 0,000 mm 0,0 UV-I 64 W/m 13,0 C 16,7 C 8,0 km/h (2 Bft) 100,00 %
06.07.2016 06:40 16,7 C 79 % 1015,2 hPa 0,0 l/m 6,0 km/h (2 Bft) W-SW 238 0 min 0,000 mm 0,0 UV-I 62 W/m 13,0 C 16,7 C 8,0 km/h (2 Bft) 100,00 %
06.07.2016 06:42 16,7 C 78 % 1015,2 hPa 0,0 l/m 6,7 km/h (2 Bft) W-SW 241 0 min 0,000 mm 0,0 UV-I 66 W/m 12,8 C 16,6 C 9,7 km/h (2 Bft) 100,00 %
06.07.2016 06:44 16,8 C 78 % 1015,2 hPa 0,0 l/m 5,4 km/h (1 Bft) SW 220 0 min 0,000 mm 0,0 UV-I 74 W/m 12,9 C 16,8 C 8,0 km/h (2 Bft) 97,62 %
06.07.2016 06:46 16,8 C 78 % 1015,2 hPa 0,0 l/m 6,0 km/h (2 Bft) W-SW 237 0 min 0,000 mm 0,0 UV-I 80 W/m 12,9 C 16,8 C 11,3 km/h (2 Bft) 98,00 %
06.07.2016 06:48 16,9 C 78 % 1015,2 hPa 0,0 l/m 7,1 km/h (2 Bft) W-SW 251 0 min 0,000 mm 0,0 UV-I 82 W/m 13,0 C 16,5 C 8,0 km/h (2 Bft) 100,00 %
06.07.2016 06:50 16,9 C 78 % 1015,2 hPa 0,0 l/m 6,2 km/h (2 Bft) W-SW 245 0 min 0,000 mm 0,0 UV-I 81 W/m 13,0 C 16,9 C 11,3 km/h (2 Bft) 100,00 %
06.07.2016 06:52 17,1 C 78 % 1015,2 hPa 0,0 l/m 5,7 km/h (1 Bft) SW 236 0 min 0,000 mm 0,0 UV-I 86 W/m 13,2 C 17,1 C 12,9 km/h (3 Bft) 100,00 %
06.07.2016 06:54 17,1 C 78 % 1015,2 hPa 0,0 l/m 4,5 km/h (1 Bft) SW 234 0 min 0,000 mm 0,0 UV-I 90 W/m 13,2 C 17,1 C 8,0 km/h (2 Bft) 100,00 %
06.07.2016 06:56 17,1 C 77 % 1015,2 hPa 0,0 l/m 5,2 km/h (1 Bft) W-SW 239 0 min 0,000 mm 0,0 UV-I 94 W/m 13,0 C 17,1 C 8,0 km/h (2 Bft) 100,00 %
06.07.2016 06:58 17,2 C 77 % 1015,2 hPa 0,0 l/m 5,9 km/h (2 Bft) W-SW 251 0 min 0,000 mm 0,0 UV-I 91 W/m 13,1 C 17,2 C 9,7 km/h (2 Bft) 95,92 %
06.07.2016 07:00 17,2 C 77 % 1015,2 hPa 0,0 l/m 5,8 km/h (2 Bft) W 263 0 min 0,051 mm 0,0 UV-I 97 W/m 13,1 C 17,2 C 12,9 km/h (3 Bft) 100,00 %
06.07.2016 07:02 17,3 C 76 % 1015,2 hPa 0,0 l/m 7,3 km/h (2 Bft) SW 235 0 min 0,000 mm 0,0 UV-I 115 W/m 13,0 C 16,9 C 9,7 km/h (2 Bft) 100,00 %
06.07.2016 07:04 17,4 C 76 % 1015,3 hPa 0,0 l/m 5,6 km/h (1 Bft) SW 219 0 min 0,000 mm 0,0 UV-I 148 W/m 13,1 C 17,4 C 9,7 km/h (2 Bft) 98,00 %
06.07.2016 07:06 17,5 C 76 % 1015,3 hPa 0,0 l/m 7,6 km/h (2 Bft) W-SW 257 0 min 0,000 mm 0,0 UV-I 107 W/m 13,2 C 16,9 C 12,9 km/h (3 Bft) 100,00 %
06.07.2016 07:08 17,6 C 75 % 1015,3 hPa 0,0 l/m 7,4 km/h (2 Bft) W 265 0 min 0,000 mm 0,0 UV-I 91 W/m 13,1 C 17,1 C 11,3 km/h (2 Bft) 98,00 %
06.07.2016 07:10 17,6 C 75 % 1015,3 hPa 0,0 l/m 7,3 km/h (2 Bft) W 274 0 min 0,000 mm 0,0 UV-I 83 W/m 13,1 C 17,2 C 12,9 km/h (3 Bft) 100,00 %
06.07.2016 07:12 17,6 C 74 % 1015,3 hPa 0,0 l/m 8,9 km/h (2 Bft) W 269 0 min 0,000 mm 0,0 UV-I 89 W/m 12,9 C 16,4 C 14,5 km/h (3 Bft) 100,00 %
06.07.2016 07:14 17,7 C 73 % 1015,3 hPa 0,0 l/m 10,1 km/h (2 Bft) W-NW 290 0 min 0,000 mm 0,0 UV-I 75 W/m 12,8 C 16,1 C 17,7 km/h (3 Bft) 100,00 %
06.07.2016 07:16 17,7 C 74 % 1015,3 hPa 0,0 l/m 6,6 km/h (2 Bft) W-NW 288 0 min 0,000 mm 0,0 UV-I 85 W/m 13,0 C 17,6 C 16,1 km/h (3 Bft) 100,00 %
06.07.2016 07:18 17,7 C 73 % 1015,4 hPa 0,0 l/m 5,8 km/h (2 Bft) W-NW 284 0 min 0,000 mm 0,0 UV-I 107 W/m 12,8 C 17,7 C 9,7 km/h (2 Bft) 97,56 %
06.07.2016 07:20 17,7 C 73 % 1015,3 hPa 0,0 l/m 6,4 km/h (2 Bft) W-SW 247 0 min 0,000 mm 0,0 UV-I 113 W/m 12,8 C 17,7 C 8,0 km/h (2 Bft) 97,87 %
06.07.2016 07:22 17,7 C 72 % 1015,3 hPa 0,0 l/m 7,3 km/h (2 Bft) W 262 0 min 0,000 mm 0,0 UV-I 97 W/m 12,6 C 17,3 C 12,9 km/h (3 Bft) 100,00 %
06.07.2016 07:24 17,7 C 72 % 1015,3 hPa 0,0 l/m 6,2 km/h (2 Bft) NW 316 0 min 0,000 mm 0,5 UV-I 134 W/m 12,6 C 17,7 C 12,9 km/h (3 Bft) 100,00 %
06.07.2016 07:26 17,8 C 72 % 1015,3 hPa 0,0 l/m 5,3 km/h (1 Bft) SW 227 2 min 0,000 mm 0,6 UV-I 231 W/m 12,7 C 17,8 C 9,7 km/h (2 Bft) 98,08 %
06.07.2016 07:28 17,9 C 72 % 1015,3 hPa 0,0 l/m 7,0 km/h (2 Bft) W-SW 246 2 min 0,000 mm 0,6 UV-I 298 W/m 12,8 C 17,6 C 12,9 km/h (3 Bft) 100,00 %
06.07.2016 07:30 18,1 C 71 % 1015,3 hPa 0,0 l/m 6,9 km/h (2 Bft) W 259 2 min 0,000 mm 0,5 UV-I 299 W/m 12,8 C 17,9 C 14,5 km/h (3 Bft) 100,00 %
06.07.2016 07:32 18,1 C 71 % 1015,4 hPa 0,0 l/m 6,9 km/h (2 Bft) W-SW 247 0 min 0,000 mm 0,5 UV-I 179 W/m 12,8 C 17,9 C 12,9 km/h (3 Bft) 97,56 %
06.07.2016 07:34 18,2 C 70 % 1015,4 hPa 0,0 l/m 8,3 km/h (2 Bft) W-SW 250 2 min 0,000 mm 0,5 UV-I 192 W/m 12,6 C 17,3 C 16,1 km/h (3 Bft) 96,00 %
06.07.2016 07:36 18,2 C 68 % 1015,4 hPa 0,0 l/m 6,7 km/h (2 Bft) W 278 0 min 0,000 mm 0,1 UV-I 143 W/m 12,2 C 18,1 C 14,5 km/h (3 Bft) 100,00 %
06.07.2016 07:38 18,2 C 68 % 1015,4 hPa 0,0 l/m 9,4 km/h (2 Bft) W-SW 240 0 min 0,000 mm 0,5 UV-I 128 W/m 12,2 C 16,9 C 16,1 km/h (3 Bft) 100,00 %
06.07.2016 07:40 18,2 C 67 % 1015,4 hPa 0,0 l/m 10,4 km/h (2 Bft) SW 215 0 min 0,000 mm 0,6 UV-I 114 W/m 12,0 C 16,5 C 17,7 km/h (3 Bft) 98,21 %
06.07.2016 07:42 18,1 C 68 % 1015,4 hPa 0,0 l/m 7,9 km/h (2 Bft) W 279 0 min 0,000 mm 0,6 UV-I 108 W/m 12,1 C 17,4 C 16,1 km/h (3 Bft) 94,00 %
06.07.2016 07:44 18,1 C 68 % 1015,3 hPa 0,0 l/m 9,1 km/h (2 Bft) W-SW 239 0 min 0,000 mm 0,8 UV-I 170 W/m 12,1 C 16,9 C 17,7 km/h (3 Bft) 95,12 %
06.07.2016 07:46 18,1 C 67 % 1015,4 hPa 0,0 l/m 9,7 km/h (2 Bft) SW 229 2 min 0,000 mm 0,8 UV-I 304 W/m 11,9 C 16,7 C 16,1 km/h (3 Bft) 96,23 %
06.07.2016 07:48 18,2 C 67 % 1015,4 hPa 0,0 l/m 7,8 km/h (2 Bft) SW 220 2 min 0,000 mm 0,8 UV-I 316 W/m 12,0 C 17,6 C 16,1 km/h (3 Bft) 95,12 %
06.07.2016 07:50 18,3 C 68 % 1015,4 hPa 0,0 l/m 6,1 km/h (2 Bft) S-SW 198 2 min 0,000 mm 0,9 UV-I 327 W/m 12,3 C 18,3 C 11,3 km/h (2 Bft) 98,00 %
06.07.2016 07:52 18,4 C 68 % 1015,4 hPa 0,0 l/m 7,7 km/h (2 Bft) W-SW 246 2 min 0,000 mm 0,8 UV-I 348 W/m 12,4 C 17,8 C 14,5 km/h (3 Bft) 97,92 %
06.07.2016 07:54 18,5 C 68 % 1015,4 hPa 0,0 l/m 9,3 km/h (2 Bft) W-NW 295 2 min 0,000 mm 0,8 UV-I 341 W/m 12,5 C 17,2 C 17,7 km/h (3 Bft) 95,74 %
06.07.2016 07:56 18,4 C 66 % 1015,4 hPa 0,0 l/m 8,6 km/h (2 Bft) W-SW 252 0 min 0,000 mm 0,8 UV-I 215 W/m 11,9 C 17,4 C 14,5 km/h (3 Bft) 97,73 %
06.07.2016 07:58 18,4 C 66 % 1015,4 hPa 0,0 l/m 6,0 km/h (2 Bft) SW 215 2 min 0,000 mm 0,9 UV-I 248 W/m 11,9 C 18,4 C 16,1 km/h (3 Bft) 97,37 %
06.07.2016 08:00 18,3 C 67 % 1015,4 hPa 0,0 l/m 6,8 km/h (2 Bft) SW 216 0 min 0,127 mm 0,8 UV-I 167 W/m 12,1 C 18,1 C 12,9 km/h (3 Bft) 98,11 %
06.07.2016 08:02 18,3 C 67 % 1015,5 hPa 0,0 l/m 10,1 km/h (2 Bft) W-SW 254 0 min 0,000 mm 1,0 UV-I 184 W/m 12,1 C 16,7 C 16,1 km/h (3 Bft) 97,50 %
06.07.2016 08:04 18,4 C 67 % 1015,5 hPa 0,0 l/m 6,6 km/h (2 Bft) W-SW 244 2 min 0,000 mm 1,1 UV-I 368 W/m 12,2 C 18,3 C 12,9 km/h (3 Bft) 96,00 %
06.07.2016 08:06 18,5 C 67 % 1015,5 hPa 0,0 l/m 6,2 km/h (2 Bft) W-NW 296 2 min 0,000 mm 1,1 UV-I 372 W/m 12,3 C 18,5 C 12,9 km/h (3 Bft) 96,00 %
06.07.2016 08:08 18,7 C 67 % 1015,4 hPa 0,0 l/m 8,7 km/h (2 Bft) W-SW 248 2 min 0,000 mm 1,2 UV-I 408 W/m 12,4 C 17,7 C 19,3 km/h (3 Bft) 96,00 %
06.07.2016 08:10 18,8 C 67 % 1015,5 hPa 0,0 l/m 10,4 km/h (2 Bft) W-SW 245 2 min 0,000 mm 1,2 UV-I 458 W/m 12,5 C 17,2 C 20,9 km/h (4 Bft) 100,00 %
06.07.2016 08:12 18,9 C 66 % 1015,5 hPa 0,0 l/m 9,9 km/h (2 Bft) SW 234 2 min 0,000 mm 1,1 UV-I 431 W/m 12,4 C 17,5 C 16,1 km/h (3 Bft) 98,53 %
06.07.2016 08:14 18,8 C 65 % 1015,5 hPa 0,0 l/m 14,5 km/h (3 Bft) W-SW 252 0 min 0,000 mm 0,8 UV-I 199 W/m 12,1 C 15,9 C 24,1 km/h (4 Bft) 97,56 %
06.07.2016 08:16 18,7 C 64 % 1015,5 hPa 0,0 l/m 11,9 km/h (2 Bft) W-NW 287 0 min 0,000 mm 0,8 UV-I 168 W/m 11,7 C 16,6 C 20,9 km/h (4 Bft) 95,74 %
06.07.2016 08:18 18,4 C 66 % 1015,5 hPa 0,0 l/m 9,1 km/h (2 Bft) W 271 0 min 0,000 mm 0,8 UV-I 158 W/m 11,9 C 17,2 C 16,1 km/h (3 Bft) 98,11 %
06.07.2016 08:20 18,3 C 67 % 1015,4 hPa 0,0 l/m 13,9 km/h (3 Bft) W-SW 241 0 min 0,000 mm 0,9 UV-I 181 W/m 12,1 C 15,5 C 19,3 km/h (3 Bft) 100,00 %
06.07.2016 08:22 18,3 C 66 % 1015,4 hPa 0,0 l/m 8,4 km/h (2 Bft) W-NW 284 0 min 0,000 mm 0,9 UV-I 167 W/m 11,8 C 17,4 C 16,1 km/h (3 Bft) 100,00 %
06.07.2016 08:24 18,2 C 67 % 1015,5 hPa 0,0 l/m 11,7 km/h (2 Bft) W-SW 253 0 min 0,000 mm 1,0 UV-I 162 W/m 12,0 C 16,1 C 19,3 km/h (3 Bft) 97,56 %
06.07.2016 08:26 18,2 C 67 % 1015,5 hPa 0,0 l/m 9,4 km/h (2 Bft) SW 228 0 min 0,000 mm 1,2 UV-I 177 W/m 12,0 C 16,9 C 16,1 km/h (3 Bft) 98,00 %
06.07.2016 08:28 18,2 C 68 % 1015,6 hPa 0,0 l/m 5,9 km/h (2 Bft) W-SW 258 0 min 0,000 mm 1,3 UV-I 202 W/m 12,2 C 18,2 C 8,0 km/h (2 Bft) 97,73 %
06.07.2016 08:30 18,3 C 68 % 1015,6 hPa 0,0 l/m 10,6 km/h (2 Bft) SW 218 0 min 0,000 mm 1,3 UV-I 202 W/m 12,3 C 16,5 C 17,7 km/h (3 Bft) 100,00 %
06.07.2016 08:32 18,3 C 68 % 1015,6 hPa 0,0 l/m 11,7 km/h (2 Bft) W 263 0 min 0,000 mm 1,4 UV-I 268 W/m 12,3 C 16,2 C 19,3 km/h (3 Bft) 100,00 %
06.07.2016 08:34 18,5 C 68 % 1015,6 hPa 0,0 l/m 10,0 km/h (2 Bft) W-NW 298 2 min 0,000 mm 1,5 UV-I 548 W/m 12,5 C 17,0 C 17,7 km/h (3 Bft) 100,00 %
06.07.2016 08:36 18,6 C 67 % 1015,7 hPa 0,0 l/m 12,2 km/h (2 Bft) W-SW 238 2 min 0,000 mm 1,1 UV-I 365 W/m 12,3 C 16,4 C 19,3 km/h (3 Bft) 97,37 %
06.07.2016 08:38 18,6 C 67 % 1015,6 hPa 0,0 l/m 12,4 km/h (3 Bft) W-SW 254 0 min 0,000 mm 1,0 UV-I 223 W/m 12,3 C 16,3 C 17,7 km/h (3 Bft) 100,00 %
06.07.2016 08:40 18,6 C 67 % 1015,7 hPa 0,0 l/m 11,3 km/h (2 Bft) SW 221 0 min 0,000 mm 0,9 UV-I 187 W/m 12,3 C 16,6 C 17,7 km/h (3 Bft) 100,00 %
06.07.2016 08:42 18,4 C 67 % 1015,7 hPa 0,0 l/m 11,5 km/h (2 Bft) W-NW 295 0 min 0,000 mm 0,9 UV-I 173 W/m 12,2 C 16,4 C 17,7 km/h (3 Bft) 100,00 %
06.07.2016 08:44 18,4 C 68 % 1015,7 hPa 0,0 l/m 9,5 km/h (2 Bft) W-SW 258 0 min 0,000 mm 0,9 UV-I 171 W/m 12,4 C 17,1 C 17,7 km/h (3 Bft) 100,00 %
06.07.2016 08:46 18,3 C 67 % 1015,8 hPa 0,0 l/m 8,6 km/h (2 Bft) SW 235 0 min 0,000 mm 0,9 UV-I 164 W/m 12,1 C 17,3 C 17,7 km/h (3 Bft) 100,00 %
06.07.2016 08:48 18,3 C 68 % 1015,7 hPa 0,0 l/m 6,6 km/h (2 Bft) W-SW 238 0 min 0,000 mm 1,1 UV-I 187 W/m 12,3 C 18,2 C 14,5 km/h (3 Bft) 100,00 %
06.07.2016 08:50 18,3 C 70 % 1015,8 hPa 0,0 l/m 8,3 km/h (2 Bft) W 264 0 min 0,000 mm 1,2 UV-I 234 W/m 12,7 C 17,4 C 14,5 km/h (3 Bft) 97,73 %
06.07.2016 08:52 18,4 C 68 % 1015,8 hPa 0,0 l/m 6,7 km/h (2 Bft) W-SW 257 0 min 0,000 mm 1,1 UV-I 234 W/m 12,4 C 18,3 C 12,9 km/h (3 Bft) 100,00 %
06.07.2016 08:54 18,4 C 68 % 1015,8 hPa 0,0 l/m 7,9 km/h (2 Bft) SW 214 0 min 0,000 mm 1,1 UV-I 204 W/m 12,4 C 17,7 C 20,9 km/h (4 Bft) 100,00 %
06.07.2016 08:56 18,4 C 69 % 1015,8 hPa 0,0 l/m 7,3 km/h (2 Bft) W-SW 250 0 min 0,000 mm 1,2 UV-I 210 W/m 12,6 C 18,0 C 17,7 km/h (3 Bft) 100,00 %
06.07.2016 08:58 18,4 C 69 % 1015,8 hPa 0,0 l/m 7,3 km/h (2 Bft) W 276 0 min 0,000 mm 1,3 UV-I 234 W/m 12,6 C 18,0 C 12,9 km/h (3 Bft) 100,00 %
06.07.2016 09:00 18,4 C 70 % 1015,8 hPa 0,0 l/m 8,4 km/h (2 Bft) W-NW 298 0 min 0,000 mm 1,6 UV-I 265 W/m 12,8 C 17,5 C 14,5 km/h (3 Bft) 97,87 %
06.07.2016 09:02 18,5 C 69 % 1015,8 hPa 0,0 l/m 6,4 km/h (2 Bft) SW 234 0 min 0,178 mm 1,9 UV-I 283 W/m 12,7 C 18,5 C 11,3 km/h (2 Bft) 98,11 %
06.07.2016 09:04 18,6 C 68 % 1015,7 hPa 0,0 l/m 7,1 km/h (2 Bft) W-SW 238 0 min 0,000 mm 1,7 UV-I 283 W/m 12,6 C 18,3 C 14,5 km/h (3 Bft) 100,00 %
06.07.2016 09:06 18,6 C 69 % 1015,7 hPa 0,0 l/m 7,5 km/h (2 Bft) W 277 2 min 0,000 mm 1,7 UV-I 322 W/m 12,8 C 18,1 C 12,9 km/h (3 Bft) 97,87 %
06.07.2016 09:08 18,8 C 70 % 1015,7 hPa 0,0 l/m 7,0 km/h (2 Bft) SW 229 2 min 0,000 mm 2,1 UV-I 408 W/m 13,2 C 18,5 C 17,7 km/h (3 Bft) 100,00 %
06.07.2016 09:10 18,9 C 68 % 1015,7 hPa 0,0 l/m 11,4 km/h (2 Bft) W-SW 257 2 min 0,000 mm 1,7 UV-I 365 W/m 12,9 C 17,0 C 20,9 km/h (4 Bft) 100,00 %
06.07.2016 09:12 18,9 C 67 % 1015,8 hPa 0,0 l/m 13,3 km/h (3 Bft) W 276 2 min 0,000 mm 1,6 UV-I 326 W/m 12,6 C 16,4 C 19,3 km/h (3 Bft) 100,00 %
06.07.2016 09:14 18,9 C 67 % 1015,7 hPa 0,0 l/m 12,5 km/h (3 Bft) SW 233 0 min 0,000 mm 1,4 UV-I 242 W/m 12,6 C 16,6 C 20,9 km/h (4 Bft) 100,00 %
06.07.2016 09:16 18,8 C 68 % 1015,8 hPa 0,0 l/m 11,0 km/h (2 Bft) W 269 0 min 0,000 mm 1,6 UV-I 248 W/m 12,8 C 17,0 C 22,5 km/h (4 Bft) 100,00 %
06.07.2016 09:18 18,8 C 68 % 1015,7 hPa 0,0 l/m 9,5 km/h (2 Bft) W 276 0 min 0,000 mm 1,9 UV-I 249 W/m 12,8 C 17,5 C 16,1 km/h (3 Bft) 98,11 %
06.07.2016 09:20 18,8 C 69 % 1015,7 hPa 0,0 l/m 11,2 km/h (2 Bft) W-NW 298 0 min 0,000 mm 2,5 UV-I 287 W/m 13,0 C 16,9 C 19,3 km/h (3 Bft) 100,00 %
06.07.2016 09:22 19,0 C 69 % 1015,8 hPa 0,0 l/m 6,4 km/h (2 Bft) W-SW 245 2 min 0,000 mm 2,7 UV-I 513 W/m 13,2 C 19,0 C 14,5 km/h (3 Bft) 100,00 %
06.07.2016 09:24 19,2 C 68 % 1015,7 hPa 0,0 l/m 10,5 km/h (2 Bft) W-SW 239 2 min 0,000 mm 2,7 UV-I 531 W/m 13,1 C 17,6 C 17,7 km/h (3 Bft) 100,00 %
06.07.2016 09:26 19,3 C 67 % 1015,7 hPa 0,0 l/m 12,4 km/h (3 Bft) W-SW 246 2 min 0,000 mm 2,9 UV-I 583 W/m 13,0 C 17,1 C 19,3 km/h (3 Bft) 100,00 %
06.07.2016 09:28 19,6 C 67 % 1015,7 hPa 0,0 l/m 9,5 km/h (2 Bft) W 277 2 min 0,000 mm 2,6 UV-I 565 W/m 13,3 C 18,4 C 14,5 km/h (3 Bft) 100,00 %
06.07.2016 09:30 19,6 C 67 % 1015,6 hPa 0,0 l/m 6,5 km/h (2 Bft) W 259 2 min 0,000 mm 3,0 UV-I 585 W/m 13,3 C 19,6 C 12,9 km/h (3 Bft) 100,00 %
06.07.2016 09:32 19,8 C 68 % 1015,7 hPa 0,0 l/m 5,5 km/h (1 Bft) W 279 2 min 0,000 mm 2,8 UV-I 642 W/m 13,7 C 19,8 C 11,3 km/h (2 Bft) 100,00 %
06.07.2016 09:34 19,9 C 66 % 1015,7 hPa 0,0 l/m 8,8 km/h (2 Bft) W 259 2 min 0,000 mm 2,6 UV-I 627 W/m 13,4 C 18,9 C 16,1 km/h (3 Bft) 100,00 %
06.07.2016 09:36 19,9 C 66 % 1015,6 hPa 0,0 l/m 9,6 km/h (2 Bft) W-NW 290 2 min 0,000 mm 3,1 UV-I 628 W/m 13,4 C 18,7 C 20,9 km/h (4 Bft) 95,12 %
06.07.2016 09:38 20,0 C 66 % 1015,6 hPa 0,0 l/m 11,0 km/h (2 Bft) S-SW 207 2 min 0,000 mm 2,7 UV-I 617 W/m 13,4 C 18,3 C 17,7 km/h (3 Bft) 97,56 %
06.07.2016 09:40 20,0 C 67 % 1015,7 hPa 0,0 l/m 5,7 km/h (1 Bft) NW 305 2 min 0,000 mm 2,2 UV-I 503 W/m 13,7 C 20,0 C 11,3 km/h (2 Bft) 97,73 %
06.07.2016 09:42 19,8 C 64 % 1015,7 hPa 0,0 l/m 8,8 km/h (2 Bft) SW 229 0 min 0,000 mm 1,9 UV-I 302 W/m 12,8 C 18,8 C 20,9 km/h (4 Bft) 98,21 %
06.07.2016 09:44 19,7 C 65 % 1015,7 hPa 0,0 l/m 11,5 km/h (2 Bft) W-SW 242 0 min 0,000 mm 1,7 UV-I 234 W/m 12,9 C 17,8 C 17,7 km/h (3 Bft) 98,00 %
06.07.2016 09:46 19,6 C 66 % 1015,7 hPa 0,0 l/m 9,6 km/h (2 Bft) W-SW 244 0 min 0,000 mm 1,8 UV-I 229 W/m 13,1 C 18,3 C 17,7 km/h (3 Bft) 93,62 %
06.07.2016 09:48 19,4 C 65 % 1015,7 hPa 0,0 l/m 10,5 km/h (2 Bft) W 263 0 min 0,000 mm 2,2 UV-I 230 W/m 12,6 C 17,8 C 24,1 km/h (4 Bft) 97,73 %
06.07.2016 09:50 19,4 C 66 % 1015,7 hPa 0,0 l/m 12,2 km/h (2 Bft) W-SW 248 2 min 0,000 mm 2,7 UV-I 401 W/m 12,9 C 17,3 C 17,7 km/h (3 Bft) 97,56 %
06.07.2016 09:52 19,5 C 66 % 1015,7 hPa 0,0 l/m 11,5 km/h (2 Bft) S-SW 212 2 min 0,000 mm 3,3 UV-I 541 W/m 13,0 C 17,6 C 16,1 km/h (3 Bft) 94,00 %
06.07.2016 09:54 19,8 C 68 % 1015,7 hPa 0,0 l/m 8,4 km/h (2 Bft) W-SW 255 2 min 0,000 mm 3,1 UV-I 541 W/m 13,7 C 19,0 C 12,9 km/h (3 Bft) 98,11 %
06.07.2016 09:56 20,0 C 65 % 1015,6 hPa 0,0 l/m 14,9 km/h (3 Bft) W-NW 300 0 min 0,000 mm 2,2 UV-I 324 W/m 13,2 C 17,3 C 22,5 km/h (4 Bft) 97,73 %
06.07.2016 09:58 19,9 C 63 % 1015,7 hPa 0,0 l/m 13,0 km/h (3 Bft) W 263 0 min 0,000 mm 2,5 UV-I 332 W/m 12,6 C 17,6 C 17,7 km/h (3 Bft) 95,12 %
06.07.2016 10:00 20,0 C 64 % 1015,6 hPa 0,0 l/m 11,9 km/h (2 Bft) W 270 0 min 0,279 mm 2,6 UV-I 338 W/m 13,0 C 18,1 C 17,7 km/h (3 Bft) 98,11 %
06.07.2016 10:02 19,9 C 64 % 1015,6 hPa 0,0 l/m 11,4 km/h (2 Bft) SW 224 0 min 0,000 mm 2,1 UV-I 214 W/m 12,9 C 18,1 C 17,7 km/h (3 Bft) 97,62 %
06.07.2016 10:04 20,0 C 64 % 1015,7 hPa 0,0 l/m 11,1 km/h (2 Bft) SW 222 2 min 0,000 mm 3,7 UV-I 418 W/m 13,0 C 18,3 C 22,5 km/h (4 Bft) 98,11 %
06.07.2016 10:06 20,2 C 64 % 1015,7 hPa 0,0 l/m 11,1 km/h (2 Bft) W 273 2 min 0,000 mm 3,2 UV-I 816 W/m 13,2 C 18,5 C 22,5 km/h (4 Bft) 93,62 %
06.07.2016 10:08 20,2 C 62 % 1015,7 hPa 0,0 l/m 11,3 km/h (2 Bft) W-SW 250 0 min 0,000 mm 2,7 UV-I 313 W/m 12,7 C 18,5 C 24,1 km/h (4 Bft) 100,00 %
06.07.2016 10:10 20,1 C 63 % 1015,6 hPa 0,0 l/m 12,8 km/h (3 Bft) W-SW 247 0 min 0,000 mm 2,3 UV-I 324 W/m 12,8 C 17,9 C 24,1 km/h (4 Bft) 100,00 %
06.07.2016 10:12 19,9 C 64 % 1015,7 hPa 0,0 l/m 13,0 km/h (3 Bft) SW 229 0 min 0,000 mm 2,9 UV-I 357 W/m 12,9 C 17,6 C 22,5 km/h (4 Bft) 96,43 %
06.07.2016 10:14 19,8 C 64 % 1015,7 hPa 0,0 l/m 15,2 km/h (3 Bft) W 277 0 min 0,000 mm 3,2 UV-I 364 W/m 12,8 C 17,0 C 25,7 km/h (4 Bft) 100,00 %
06.07.2016 10:16 19,8 C 66 % 1015,7 hPa 0,0 l/m 8,0 km/h (2 Bft) W-SW 240 0 min 0,000 mm 2,2 UV-I 327 W/m 13,3 C 19,1 C 22,5 km/h (4 Bft) 100,00 %
06.07.2016 10:18 19,8 C 65 % 1015,7 hPa 0,0 l/m 9,9 km/h (2 Bft) W-SW 238 0 min 0,000 mm 2,1 UV-I 319 W/m 13,0 C 18,5 C 19,3 km/h (3 Bft) 100,00 %
06.07.2016 10:20 19,6 C 64 % 1015,7 hPa 0,0 l/m 12,2 km/h (2 Bft) W 260 0 min 0,000 mm 2,0 UV-I 281 W/m 12,6 C 17,5 C 16,1 km/h (3 Bft) 100,00 %
06.07.2016 10:22 19,6 C 65 % 1015,7 hPa 0,0 l/m 14,2 km/h (3 Bft) W-NW 293 0 min 0,000 mm 3,1 UV-I 278 W/m 12,8 C 17,0 C 20,9 km/h (4 Bft) 97,56 %
06.07.2016 10:24 19,6 C 67 % 1015,7 hPa 0,0 l/m 9,9 km/h (2 Bft) W 273 2 min 0,000 mm 2,9 UV-I 818 W/m 13,3 C 18,2 C 17,7 km/h (3 Bft) 100,00 %
06.07.2016 10:26 19,6 C 66 % 1015,8 hPa 0,0 l/m 8,9 km/h (2 Bft) SW 219 0 min 0,000 mm 2,1 UV-I 232 W/m 13,1 C 18,6 C 17,7 km/h (3 Bft) 100,00 %
06.07.2016 10:28 19,6 C 66 % 1015,8 hPa 0,0 l/m 9,6 km/h (2 Bft) W 263 0 min 0,000 mm 2,7 UV-I 298 W/m 13,1 C 18,3 C 22,5 km/h (4 Bft) 97,56 %
06.07.2016 10:30 19,5 C 67 % 1015,8 hPa 0,0 l/m 9,1 km/h (2 Bft) W-NW 294 0 min 0,000 mm 3,0 UV-I 360 W/m 13,2 C 18,4 C 19,3 km/h (3 Bft) 100,00 %
06.07.2016 10:32 19,6 C 66 % 1015,8 hPa 0,0 l/m 9,2 km/h (2 Bft) W-NW 300 0 min 0,000 mm 2,6 UV-I 323 W/m 13,1 C 18,5 C 19,3 km/h (3 Bft) 100,00 %
06.07.2016 10:34 19,5 C 68 % 1015,9 hPa 0,0 l/m 8,9 km/h (2 Bft) SW 232 0 min 0,000 mm 2,2 UV-I 301 W/m 13,4 C 18,5 C 16,1 km/h (3 Bft) 100,00 %
06.07.2016 10:36 19,5 C 66 % 1015,9 hPa 0,0 l/m 12,1 km/h (2 Bft) W 267 0 min 0,000 mm 2,2 UV-I 307 W/m 13,0 C 17,4 C 27,4 km/h (4 Bft) 100,00 %
06.07.2016 10:38 19,4 C 66 % 1015,9 hPa 0,0 l/m 13,1 km/h (3 Bft) W 263 0 min 0,000 mm 2,1 UV-I 279 W/m 12,9 C 17,0 C 20,9 km/h (4 Bft) 97,56 %
06.07.2016 10:40 19,3 C 66 % 1015,9 hPa 0,0 l/m 11,2 km/h (2 Bft) NW 305 0 min 0,000 mm 2,1 UV-I 258 W/m 12,8 C 17,5 C 17,7 km/h (3 Bft) 100,00 %
06.07.2016 10:42 19,2 C 67 % 1015,9 hPa 0,0 l/m 11,8 km/h (2 Bft) W-SW 238 0 min 0,000 mm 2,2 UV-I 282 W/m 12,9 C 17,2 C 22,5 km/h (4 Bft) 100,00 %
06.07.2016 10:44 19,2 C 67 % 1016,0 hPa 0,0 l/m 11,3 km/h (2 Bft) SW 234 0 min 0,000 mm 2,3 UV-I 293 W/m 12,9 C 17,3 C 24,1 km/h (4 Bft) 94,34 %
06.07.2016 10:46 19,2 C 66 % 1015,9 hPa 0,0 l/m 13,1 km/h (3 Bft) W-NW 294 0 min 0,000 mm 2,7 UV-I 302 W/m 12,7 C 16,8 C 22,5 km/h (4 Bft) 96,00 %
06.07.2016 10:48 19,2 C 66 % 1016,0 hPa 0,0 l/m 11,3 km/h (2 Bft) W-NW 292 0 min 0,000 mm 3,2 UV-I 278 W/m 12,7 C 17,3 C 25,7 km/h (4 Bft) 100,00 %
06.07.2016 10:50 19,3 C 68 % 1015,9 hPa 0,0 l/m 9,5 km/h (2 Bft) W-SW 254 0 min 0,000 mm 4,2 UV-I 278 W/m 13,2 C 18,0 C 17,7 km/h (3 Bft) 100,00 %
06.07.2016 10:52 19,4 C 67 % 1016,0 hPa 0,0 l/m 11,7 km/h (2 Bft) W-SW 256 2 min 0,000 mm 5,1 UV-I 436 W/m 13,1 C 17,4 C 20,9 km/h (4 Bft) 97,56 %
06.07.2016 10:54 19,6 C 66 % 1015,9 hPa 0,0 l/m 12,9 km/h (3 Bft) W 269 2 min 0,000 mm 5,3 UV-I 827 W/m 13,1 C 17,3 C 22,5 km/h (4 Bft) 100,00 %
06.07.2016 10:56 19,8 C 65 % 1015,9 hPa 0,0 l/m 13,6 km/h (3 Bft) SW 220 2 min 0,000 mm 5,4 UV-I 927 W/m 13,0 C 17,4 C 22,5 km/h (4 Bft) 100,00 %
06.07.2016 10:58 20,0 C 66 % 1016,0 hPa 0,0 l/m 12,2 km/h (2 Bft) W 267 2 min 0,000 mm 3,7 UV-I 780 W/m 13,4 C 18,0 C 20,9 km/h (4 Bft) 100,00 %
06.07.2016 11:00 20,1 C 66 % 1015,9 hPa 0,0 l/m 14,4 km/h (3 Bft) W 263 0 min 0,305 mm 3,0 UV-I 421 W/m 13,5 C 17,5 C 19,3 km/h (3 Bft) 100,00 %
06.07.2016 11:02 20,1 C 65 % 1016,0 hPa 0,0 l/m 10,0 km/h (2 Bft) W-SW 242 0 min 0,000 mm 2,2 UV-I 325 W/m 13,3 C 18,8 C 17,7 km/h (3 Bft) 100,00 %
06.07.2016 11:04 19,9 C 65 % 1016,0 hPa 0,0 l/m 13,9 km/h (3 Bft) W-NW 298 0 min 0,000 mm 1,5 UV-I 209 W/m 13,1 C 17,4 C 20,9 km/h (4 Bft) 100,00 %
06.07.2016 11:06 19,8 C 64 % 1016,0 hPa 0,0 l/m 13,6 km/h (3 Bft) W 277 0 min 0,000 mm 1,6 UV-I 202 W/m 12,8 C 17,4 C 22,5 km/h (4 Bft) 100,00 %
06.07.2016 11:08 19,7 C 66 % 1016,1 hPa 0,0 l/m 11,8 km/h (2 Bft) W-SW 258 0 min 0,000 mm 2,2 UV-I 245 W/m 13,2 C 17,7 C 17,7 km/h (3 Bft) 100,00 %
06.07.2016 11:10 19,6 C 66 % 1016,1 hPa 0,0 l/m 11,3 km/h (2 Bft) SW 234 0 min 0,000 mm 3,4 UV-I 272 W/m 13,1 C 17,8 C 20,9 km/h (4 Bft) 100,00 %
06.07.2016 11:12 19,6 C 65 % 1016,1 hPa 0,0 l/m 7,9 km/h (2 Bft) W 263 0 min 0,000 mm 3,7 UV-I 371 W/m 12,8 C 19,0 C 17,7 km/h (3 Bft) 100,00 %
06.07.2016 11:14 19,9 C 67 % 1016,1 hPa 0,0 l/m 14,1 km/h (3 Bft) W 264 2 min 0,000 mm 5,5 UV-I 854 W/m 13,6 C 17,3 C 25,7 km/h (4 Bft) 100,00 %
06.07.2016 11:16 20,1 C 66 % 1016,1 hPa 0,0 l/m 10,9 km/h (2 Bft) W 266 2 min 0,000 mm 5,7 UV-I 853 W/m 13,5 C 18,5 C 22,5 km/h (4 Bft) 100,00 %
06.07.2016 11:18 20,3 C 65 % 1016,1 hPa 0,0 l/m 12,1 km/h (2 Bft) W-SW 246 2 min 0,000 mm 5,8 UV-I 897 W/m 13,5 C 18,3 C 19,3 km/h (3 Bft) 97,87 %
06.07.2016 11:20 20,5 C 64 % 1016,0 hPa 0,0 l/m 8,7 km/h (2 Bft) W 265 2 min 0,000 mm 5,1 UV-I 972 W/m 13,5 C 19,6 C 20,9 km/h (4 Bft) 100,00 %
06.07.2016 11:22 20,7 C 64 % 1016,0 hPa 0,0 l/m 11,8 km/h (2 Bft) SW 236 2 min 0,000 mm 4,1 UV-I 972 W/m 13,6 C 18,9 C 17,7 km/h (3 Bft) 98,21 %
06.07.2016 11:24 20,7 C 62 % 1016,0 hPa 0,0 l/m 14,7 km/h (3 Bft) W-SW 237 0 min 0,000 mm 3,1 UV-I 403 W/m 13,2 C 18,2 C 27,4 km/h (4 Bft) 100,00 %
06.07.2016 11:26 20,4 C 62 % 1016,1 hPa 0,0 l/m 17,7 km/h (3 Bft) W-SW 242 0 min 0,000 mm 3,2 UV-I 309 W/m 12,9 C 17,2 C 29,0 km/h (5 Bft) 100,00 %
06.07.2016 11:28 20,2 C 64 % 1015,9 hPa 0,0 l/m 11,8 km/h (2 Bft) NW 315 0 min 0,000 mm 4,2 UV-I 275 W/m 13,2 C 18,3 C 20,9 km/h (4 Bft) 98,11 %
06.07.2016 11:30 20,3 C 64 % 1016,1 hPa 0,0 l/m 12,4 km/h (3 Bft) W 275 2 min 0,000 mm 6,2 UV-I 771 W/m 13,3 C 18,3 C 17,7 km/h (3 Bft) 100,00 %
06.07.2016 11:32 20,6 C 64 % 1016,1 hPa 0,0 l/m 9,8 km/h (2 Bft) W 259 2 min 0,000 mm 6,4 UV-I 1068 W/m 13,5 C 19,4 C 20,9 km/h (4 Bft) 97,87 %
06.07.2016 11:34 20,8 C 63 % 1016,2 hPa 0,0 l/m 11,2 km/h (2 Bft) W-NW 292 2 min 0,000 mm 5,5 UV-I 1085 W/m 13,5 C 19,2 C 20,9 km/h (4 Bft) 97,73 %
06.07.2016 11:36 20,9 C 63 % 1016,2 hPa 0,0 l/m 12,4 km/h (3 Bft) W-NW 291 2 min 0,000 mm 5,9 UV-I 1069 W/m 13,6 C 19,0 C 17,7 km/h (3 Bft) 96,00 %
06.07.2016 11:38 20,8 C 61 % 1016,2 hPa 0,0 l/m 12,8 km/h (3 Bft) NW 320 2 min 0,000 mm 6,3 UV-I 884 W/m 13,0 C 18,7 C 29,0 km/h (5 Bft) 95,12 %
06.07.2016 11:40 20,8 C 66 % 1016,2 hPa 0,0 l/m 8,9 km/h (2 Bft) NW 320 2 min 0,000 mm 6,3 UV-I 928 W/m 14,2 C 19,9 C 20,9 km/h (4 Bft) 95,45 %
06.07.2016 11:42 20,8 C 63 % 1016,2 hPa 0,0 l/m 16,9 km/h (3 Bft) SW 219 2 min 0,000 mm 6,4 UV-I 936 W/m 13,5 C 17,8 C 25,7 km/h (4 Bft) 96,23 %
06.07.2016 11:44 21,0 C 62 % 1016,3 hPa 0,0 l/m 13,3 km/h (3 Bft) N-NW 329 2 min 0,000 mm 6,4 UV-I 946 W/m 13,4 C 18,9 C 22,5 km/h (4 Bft) 98,00 %
06.07.2016 11:46 20,9 C 64 % 1016,1 hPa 0,0 l/m 11,5 km/h (2 Bft) W-NW 284 2 min 0,000 mm 6,6 UV-I 1000 W/m 13,8 C 19,2 C 22,5 km/h (4 Bft) 97,37 %
06.07.2016 11:48 21,1 C 63 % 1016,2 hPa 0,0 l/m 16,2 km/h (3 Bft) W 278 2 min 0,000 mm 6,3 UV-I 1065 W/m 13,8 C 18,3 C 29,0 km/h (5 Bft) 98,31 %
06.07.2016 11:50 20,8 C 62 % 1016,3 hPa 0,0 l/m 12,3 km/h (3 Bft) W-NW 284 2 min 0,000 mm 5,8 UV-I 1065 W/m 13,2 C 18,9 C 19,3 km/h (3 Bft) 96,30 %
06.07.2016 11:52 20,7 C 61 % 1016,1 hPa 0,0 l/m 11,3 km/h (2 Bft) SW 219 2 min 0,000 mm 6,5 UV-I 988 W/m 12,9 C 19,0 C 17,7 km/h (3 Bft) 97,01 %
06.07.2016 11:54 20,9 C 64 % 1016,2 hPa 0,0 l/m 12,1 km/h (2 Bft) W 276 2 min 0,000 mm 6,4 UV-I 964 W/m 13,8 C 19,0 C 19,3 km/h (3 Bft) 97,56 %
06.07.2016 11:56 21,1 C 61 % 1016,2 hPa 0,0 l/m 13,6 km/h (3 Bft) W 275 2 min 0,000 mm 6,3 UV-I 938 W/m 13,3 C 18,9 C 25,7 km/h (4 Bft) 97,44 %
06.07.2016 11:58 21,1 C 61 % 1016,1 hPa 0,0 l/m 9,3 km/h (2 Bft) W 273 2 min 0,000 mm 6,2 UV-I 876 W/m 13,3 C 20,1 C 16,1 km/h (3 Bft) 98,36 %
06.07.2016 12:00 21,2 C 62 % 1016,2 hPa 0,0 l/m 12,4 km/h (3 Bft) SW 222 2 min 0,482 mm 5,9 UV-I 868 W/m 13,6 C 19,3 C 19,3 km/h (3 Bft) 97,44 %
06.07.2016 12:02 21,2 C 59 % 1016,3 hPa 0,0 l/m 16,2 km/h (3 Bft) W-NW 291 2 min 0,000 mm 5,7 UV-I 866 W/m 12,9 C 18,5 C 32,2 km/h (5 Bft) 96,23 %
06.07.2016 12:04 21,1 C 60 % 1016,3 hPa 0,0 l/m 18,7 km/h (3 Bft) W-NW 284 2 min 0,000 mm 6,4 UV-I 920 W/m 13,0 C 17,9 C 32,2 km/h (5 Bft) 97,56 %
06.07.2016 12:06 21,0 C 59 % 1016,4 hPa 0,0 l/m 18,1 km/h (3 Bft) W-NW 286 2 min 0,000 mm 6,5 UV-I 945 W/m 12,7 C 17,8 C 27,4 km/h (4 Bft) 96,23 %
06.07.2016 12:08 21,1 C 59 % 1016,4 hPa 0,0 l/m 14,6 km/h (3 Bft) W-SW 253 2 min 0,000 mm 6,5 UV-I 1038 W/m 12,8 C 18,7 C 22,5 km/h (4 Bft) 95,12 %
06.07.2016 12:10 21,1 C 59 % 1016,4 hPa 0,0 l/m 20,0 km/h (4 Bft) W-SW 237 2 min 0,000 mm 5,3 UV-I 724 W/m 12,8 C 17,6 C 30,6 km/h (5 Bft) 95,45 %
06.07.2016 12:12 20,8 C 59 % 1016,4 hPa 0,0 l/m 19,0 km/h (3 Bft) W-SW 247 0 min 0,000 mm 3,6 UV-I 433 W/m 12,5 C 17,4 C 30,6 km/h (5 Bft) 98,31 %
06.07.2016 12:14 20,6 C 60 % 1016,5 hPa 0,0 l/m 17,2 km/h (3 Bft) W-SW 248 0 min 0,000 mm 2,5 UV-I 314 W/m 12,6 C 17,5 C 29,0 km/h (5 Bft) 93,75 %
06.07.2016 12:16 20,4 C 61 % 1016,5 hPa 0,0 l/m 12,9 km/h (3 Bft) W 261 0 min 0,000 mm 3,7 UV-I 344 W/m 12,6 C 18,2 C 35,4 km/h (5 Bft) 100,00 %
06.07.2016 12:18 20,4 C 61 % 1016,4 hPa 0,0 l/m 24,7 km/h (4 Bft) SW 236 0 min 0,000 mm 4,4 UV-I 357 W/m 12,6 C 16,0 C 38,6 km/h (5 Bft) 92,00 %
06.07.2016 12:20 20,4 C 62 % 1016,5 hPa 0,0 l/m 12,4 km/h (3 Bft) W-SW 254 0 min 0,000 mm 5,2 UV-I 357 W/m 12,9 C 18,4 C 24,1 km/h (4 Bft) 100,00 %
06.07.2016 12:22 20,6 C 61 % 1016,4 hPa 0,0 l/m 15,9 km/h (3 Bft) W 270 0 min 0,000 mm 6,2 UV-I 357 W/m 12,8 C 17,8 C 24,1 km/h (4 Bft) 100,00 %
06.07.2016 12:24 20,7 C 62 % 1016,4 hPa 0,0 l/m 11,7 km/h (2 Bft) W-SW 257 2 min 0,000 mm 6,5 UV-I 685 W/m 13,2 C 18,9 C 22,5 km/h (4 Bft) 96,97 %
06.07.2016 12:26 20,9 C 63 % 1016,5 hPa 0,0 l/m 7,4 km/h (2 Bft) W-SW 237 2 min 0,000 mm 6,4 UV-I 911 W/m 13,6 C 20,5 C 16,1 km/h (3 Bft) 100,00 %
06.07.2016 12:28 21,2 C 62 % 1016,5 hPa 0,0 l/m 6,7 km/h (2 Bft) W-NW 287 2 min 0,000 mm 6,5 UV-I 918 W/m 13,6 C 21,1 C 16,1 km/h (3 Bft) 100,00 %
06.07.2016 12:30 21,3 C 61 % 1016,5 hPa 0,0 l/m 15,0 km/h (3 Bft) SW 222 2 min 0,000 mm 6,5 UV-I 945 W/m 13,5 C 18,8 C 25,7 km/h (4 Bft) 100,00 %
06.07.2016 12:32 21,2 C 61 % 1016,5 hPa 0,0 l/m 7,9 km/h (2 Bft) W-SW 241 2 min 0,000 mm 6,3 UV-I 962 W/m 13,4 C 20,6 C 14,5 km/h (3 Bft) 98,21 %
06.07.2016 12:34 21,1 C 60 % 1016,5 hPa 0,0 l/m 15,7 km/h (3 Bft) W-SW 244 2 min 0,000 mm 4,4 UV-I 1015 W/m 13,0 C 18,4 C 22,5 km/h (4 Bft) 100,00 %
06.07.2016 12:36 21,1 C 61 % 1016,5 hPa 0,0 l/m 14,5 km/h (3 Bft) W-SW 252 2 min 0,000 mm 4,2 UV-I 1018 W/m 13,3 C 18,7 C 27,4 km/h (4 Bft) 100,00 %
06.07.2016 12:38 20,8 C 60 % 1016,6 hPa 0,0 l/m 12,3 km/h (3 Bft) W 261 0 min 0,000 mm 2,8 UV-I 469 W/m 12,7 C 18,9 C 22,5 km/h (4 Bft) 100,00 %
06.07.2016 12:40 20,6 C 61 % 1016,5 hPa 0,0 l/m 10,4 km/h (2 Bft) W 268 0 min 0,000 mm 2,3 UV-I 285 W/m 12,8 C 19,2 C 17,7 km/h (3 Bft) 100,00 %
06.07.2016 12:42 20,3 C 61 % 1016,6 hPa 0,0 l/m 14,1 km/h (3 Bft) W 264 0 min 0,000 mm 3,2 UV-I 334 W/m 12,5 C 17,8 C 30,6 km/h (5 Bft) 97,87 %
06.07.2016 12:44 20,3 C 62 % 1016,6 hPa 0,0 l/m 19,8 km/h (3 Bft) W 271 0 min 0,000 mm 4,5 UV-I 359 W/m 12,8 C 16,6 C 41,8 km/h (6 Bft) 100,00 %
06.07.2016 12:46 20,1 C 61 % 1016,6 hPa 0,0 l/m 18,0 km/h (3 Bft) W-SW 257 0 min 0,000 mm 3,2 UV-I 349 W/m 12,3 C 16,7 C 32,2 km/h (5 Bft) 97,37 %
06.07.2016 12:48 20,0 C 62 % 1016,6 hPa 0,0 l/m 8,7 km/h (2 Bft) W-SW 248 0 min 0,000 mm 2,9 UV-I 355 W/m 12,5 C 19,1 C 19,3 km/h (3 Bft) 100,00 %
06.07.2016 12:50 20,0 C 63 % 1016,6 hPa 0,0 l/m 9,0 km/h (2 Bft) W 265 0 min 0,000 mm 3,3 UV-I 393 W/m 12,7 C 19,0 C 17,7 km/h (3 Bft) 97,37 %
06.07.2016 12:52 19,9 C 63 % 1016,7 hPa 0,0 l/m 12,0 km/h (2 Bft) W-NW 293 0 min 0,000 mm 3,9 UV-I 432 W/m 12,6 C 17,9 C 24,1 km/h (4 Bft) 98,21 %
06.07.2016 12:54 19,9 C 62 % 1016,8 hPa 0,0 l/m 15,8 km/h (3 Bft) NW 323 0 min 0,000 mm 4,4 UV-I 458 W/m 12,4 C 16,9 C 27,4 km/h (4 Bft) 100,00 %
06.07.2016 12:56 19,9 C 63 % 1016,8 hPa 0,0 l/m 12,9 km/h (3 Bft) W 269 0 min 0,000 mm 6,0 UV-I 432 W/m 12,6 C 17,7 C 29,0 km/h (5 Bft) 94,34 %
06.07.2016 12:58 20,2 C 64 % 1016,7 hPa 0,0 l/m 8,3 km/h (2 Bft) W-NW 296 2 min 0,000 mm 6,7 UV-I 766 W/m 13,2 C 19,4 C 22,5 km/h (4 Bft) 100,00 %
06.07.2016 13:00 20,4 C 62 % 1016,8 hPa 0,0 l/m 12,6 km/h (3 Bft) W 281 2 min 0,483 mm 4,7 UV-I 773 W/m 12,9 C 18,3 C 20,9 km/h (4 Bft) 100,00 %
06.07.2016 13:02 20,4 C 63 % 1016,6 hPa 0,0 l/m 14,9 km/h (3 Bft) W-SW 254 2 min 0,000 mm 5,9 UV-I 773 W/m 13,1 C 17,8 C 25,7 km/h (4 Bft) 100,00 %
06.07.2016 13:04 20,7 C 64 % 1016,7 hPa 0,0 l/m 16,7 km/h (3 Bft) W 264 2 min 0,000 mm 6,2 UV-I 773 W/m 13,6 C 17,7 C 24,1 km/h (4 Bft) 100,00 %
06.07.2016 13:06 20,9 C 58 % 1016,6 hPa 0,0 l/m 20,3 km/h (4 Bft) W-SW 249 2 min 0,000 mm 6,9 UV-I 836 W/m 12,3 C 17,3 C 27,4 km/h (4 Bft) 97,87 %
06.07.2016 13:08 20,9 C 60 % 1016,7 hPa 0,0 l/m 16,3 km/h (3 Bft) W 280 2 min 0,000 mm 5,9 UV-I 1005 W/m 12,8 C 18,1 C 27,4 km/h (4 Bft) 97,56 %
06.07.2016 13:10 20,8 C 60 % 1016,6 hPa 0,0 l/m 22,5 km/h (4 Bft) W-NW 284 2 min 0,000 mm 5,4 UV-I 680 W/m 12,7 C 16,8 C 35,4 km/h (5 Bft) 100,00 %
06.07.2016 13:12 20,7 C 58 % 1016,6 hPa 0,0 l/m 23,1 km/h (4 Bft) W 271 0 min 0,000 mm 3,4 UV-I 314 W/m 12,1 C 16,6 C 43,5 km/h (6 Bft) 100,00 %
06.07.2016 13:14 20,6 C 59 % 1016,6 hPa 0,0 l/m 16,9 km/h (3 Bft) SW 217 0 min 0,000 mm 4,5 UV-I 287 W/m 12,3 C 17,6 C 25,7 km/h (4 Bft) 100,00 %
06.07.2016 13:16 20,7 C 61 % 1016,7 hPa 0,0 l/m 19,4 km/h (3 Bft) W 263 0 min 0,000 mm 5,7 UV-I 287 W/m 12,9 C 17,2 C 30,6 km/h (5 Bft) 97,87 %
06.07.2016 13:18 20,8 C 58 % 1016,6 hPa 0,0 l/m 23,3 km/h (4 Bft) SW 234 2 min 0,000 mm 5,8 UV-I 808 W/m 12,2 C 16,7 C 37,0 km/h (5 Bft) 100,00 %
06.07.2016 13:20 20,8 C 58 % 1016,6 hPa 0,0 l/m 18,8 km/h (3 Bft) W-SW 253 2 min 0,000 mm 5,8 UV-I 1047 W/m 12,2 C 17,5 C 29,0 km/h (5 Bft) 97,78 %
06.07.2016 13:22 20,7 C 59 % 1016,6 hPa 0,0 l/m 18,3 km/h (3 Bft) W-NW 300 2 min 0,000 mm 3,6 UV-I 566 W/m 12,4 C 17,4 C 30,6 km/h (5 Bft) 97,56 %
06.07.2016 13:24 20,8 C 59 % 1016,6 hPa 0,0 l/m 15,5 km/h (3 Bft) W-SW 250 0 min 0,000 mm 4,7 UV-I 265 W/m 12,5 C 18,1 C 22,5 km/h (4 Bft) 98,11 %
06.07.2016 13:26 20,8 C 59 % 1016,6 hPa 0,0 l/m 12,8 km/h (3 Bft) W 273 0 min 0,000 mm 4,4 UV-I 300 W/m 12,5 C 18,7 C 22,5 km/h (4 Bft) 97,87 %
06.07.2016 13:28 20,8 C 58 % 1016,6 hPa 0,0 l/m 15,9 km/h (3 Bft) SW 217 2 min 0,000 mm 5,7 UV-I 805 W/m 12,2 C 18,0 C 27,4 km/h (4 Bft) 98,00 %
06.07.2016 13:30 20,9 C 59 % 1016,6 hPa 0,0 l/m 16,9 km/h (3 Bft) SW 234 2 min 0,000 mm 6,6 UV-I 1038 W/m 12,6 C 17,9 C 32,2 km/h (5 Bft) 97,56 %
06.07.2016 13:32 21,1 C 60 % 1016,6 hPa 0,0 l/m 15,9 km/h (3 Bft) W 263 2 min 0,000 mm 4,7 UV-I 717 W/m 13,0 C 18,4 C 20,9 km/h (4 Bft) 95,45 %
06.07.2016 13:34 21,1 C 58 % 1016,6 hPa 0,0 l/m 15,2 km/h (3 Bft) W-NW 302 0 min 0,000 mm 3,5 UV-I 327 W/m 12,5 C 18,5 C 20,9 km/h (4 Bft) 94,34 %
06.07.2016 13:36 20,9 C 57 % 1016,7 hPa 0,0 l/m 11,6 km/h (2 Bft) W-SW 244 0 min 0,000 mm 4,1 UV-I 356 W/m 12,1 C 19,2 C 19,3 km/h (3 Bft) 97,73 %
06.07.2016 13:38 20,8 C 57 % 1016,7 hPa 0,0 l/m 15,4 km/h (3 Bft) W 280 0 min 0,000 mm 5,2 UV-I 366 W/m 12,0 C 18,1 C 24,1 km/h (4 Bft) 95,45 %
06.07.2016 13:40 20,8 C 58 % 1016,6 hPa 0,0 l/m 15,9 km/h (3 Bft) W-SW 246 0 min 0,000 mm 3,3 UV-I 326 W/m 12,2 C 18,0 C 27,4 km/h (4 Bft) 93,62 %
06.07.2016 13:42 20,7 C 57 % 1016,7 hPa 0,0 l/m 17,8 km/h (3 Bft) SW 216 0 min 0,000 mm 3,6 UV-I 367 W/m 11,9 C 17,5 C 29,0 km/h (5 Bft) 98,00 %
06.07.2016 13:44 20,6 C 59 % 1016,6 hPa 0,0 l/m 17,4 km/h (3 Bft) SW 229 0 min 0,000 mm 4,3 UV-I 388 W/m 12,3 C 17,5 C 32,2 km/h (5 Bft) 97,56 %
06.07.2016 13:46 20,7 C 58 % 1016,6 hPa 0,0 l/m 17,8 km/h (3 Bft) W 262 0 min 0,000 mm 5,7 UV-I 390 W/m 12,1 C 17,5 C 29,0 km/h (5 Bft) 95,12 %
06.07.2016 13:48 20,8 C 58 % 1016,6 hPa 0,0 l/m 16,1 km/h (3 Bft) W-SW 239 2 min 0,000 mm 5,2 UV-I 571 W/m 12,2 C 18,0 C 24,1 km/h (4 Bft) 98,21 %
06.07.2016 13:50 21,2 C 59 % 1016,6 hPa 0,0 l/m 12,9 km/h (3 Bft) W 270 2 min 0,000 mm 6,9 UV-I 1124 W/m 12,9 C 19,2 C 20,9 km/h (4 Bft) 97,73 %
06.07.2016 13:52 21,4 C 55 % 1016,5 hPa 0,0 l/m 23,4 km/h (4 Bft) W 273 2 min 0,000 mm 4,7 UV-I 942 W/m 12,0 C 17,5 C 37,0 km/h (5 Bft) 96,43 %
06.07.2016 13:54 21,4 C 56 % 1016,5 hPa 0,0 l/m 19,1 km/h (3 Bft) W-SW 250 0 min 0,000 mm 4,4 UV-I 476 W/m 12,3 C 18,2 C 41,8 km/h (6 Bft) 97,87 %
06.07.2016 13:56 21,3 C 55 % 1016,6 hPa 0,0 l/m 17,7 km/h (3 Bft) W-SW 248 0 min 0,000 mm 5,7 UV-I 429 W/m 11,9 C 18,3 C 27,4 km/h (4 Bft) 100,00 %
06.07.2016 13:58 21,4 C 56 % 1016,5 hPa 0,0 l/m 20,9 km/h (4 Bft) SW 222 2 min 0,000 mm 6,0 UV-I 692 W/m 12,3 C 17,9 C 27,4 km/h (4 Bft) 98,00 %
06.07.2016 14:00 21,6 C 55 % 1016,6 hPa 0,0 l/m 19,1 km/h (3 Bft) W-SW 244 2 min 0,508 mm 4,4 UV-I 827 W/m 12,2 C 18,4 C 30,6 km/h (5 Bft) 100,00 %
06.07.2016 14:02 21,6 C 55 % 1016,5 hPa 0,0 l/m 10,2 km/h (2 Bft) W 261 0 min 0,000 mm 4,2 UV-I 457 W/m 12,2 C 20,4 C 16,1 km/h (3 Bft) 100,00 %
06.07.2016 14:04 21,4 C 55 % 1016,4 hPa 0,0 l/m 12,1 km/h (2 Bft) S 185 0 min 0,000 mm 5,7 UV-I 406 W/m 12,0 C 19,6 C 19,3 km/h (3 Bft) 100,00 %
06.07.2016 14:06 21,3 C 55 % 1016,5 hPa 0,0 l/m 11,8 km/h (2 Bft) W-NW 282 0 min 0,000 mm 4,7 UV-I 357 W/m 11,9 C 19,6 C 22,5 km/h (4 Bft) 96,00 %
06.07.2016 14:08 21,3 C 55 % 1016,5 hPa 0,0 l/m 14,3 km/h (3 Bft) W-NW 283 0 min 0,000 mm 3,8 UV-I 335 W/m 11,9 C 19,0 C 22,5 km/h (4 Bft) 100,00 %
06.07.2016 14:10 21,2 C 56 % 1016,5 hPa 0,0 l/m 17,8 km/h (3 Bft) W-SW 245 0 min 0,000 mm 3,9 UV-I 315 W/m 12,1 C 18,1 C 45,1 km/h (6 Bft) 100,00 %
06.07.2016 14:12 21,2 C 54 % 1016,4 hPa 0,0 l/m 25,3 km/h (4 Bft) W 264 2 min 0,000 mm 4,8 UV-I 683 W/m 11,5 C 17,0 C 37,0 km/h (5 Bft) 100,00 %
06.07.2016 14:14 21,3 C 53 % 1016,5 hPa 0,0 l/m 18,8 km/h (3 Bft) W-SW 240 2 min 0,000 mm 6,0 UV-I 691 W/m 11,3 C 18,1 C 27,4 km/h (4 Bft) 95,12 %
06.07.2016 14:16 21,3 C 52 % 1016,5 hPa 0,0 l/m 27,0 km/h (4 Bft) SW 236 2 min 0,000 mm 4,3 UV-I 934 W/m 11,0 C 16,9 C 41,8 km/h (6 Bft) 94,34 %
06.07.2016 14:18 21,2 C 52 % 1016,5 hPa 0,0 l/m 22,0 km/h (4 Bft) W-SW 257 0 min 0,000 mm 3,8 UV-I 354 W/m 10,9 C 17,4 C 32,2 km/h (5 Bft) 100,00 %
06.07.2016 14:20 21,2 C 53 % 1016,5 hPa 0,0 l/m 22,0 km/h (4 Bft) W-SW 246 0 min 0,000 mm 5,1 UV-I 360 W/m 11,2 C 17,4 C 33,8 km/h (5 Bft) 100,00 %
06.07.2016 14:22 21,1 C 54 % 1016,6 hPa 0,0 l/m 18,7 km/h (3 Bft) W-SW 238 0 min 0,000 mm 3,2 UV-I 351 W/m 11,4 C 17,9 C 30,6 km/h (5 Bft) 93,10 %
06.07.2016 14:24 21,1 C 55 % 1016,6 hPa 0,0 l/m 17,6 km/h (3 Bft) W-SW 248 0 min 0,000 mm 2,7 UV-I 276 W/m 11,7 C 18,1 C 24,1 km/h (4 Bft) 100,00 %
06.07.2016 14:26 20,9 C 54 % 1016,6 hPa 0,0 l/m 22,4 km/h (4 Bft) W-NW 284 0 min 0,000 mm 2,8 UV-I 290 W/m 11,2 C 17,0 C 35,4 km/h (5 Bft) 100,00 %
06.07.2016 14:28 20,8 C 53 % 1016,5 hPa 0,0 l/m 18,5 km/h (3 Bft) W-SW 257 0 min 0,000 mm 3,2 UV-I 289 W/m 10,9 C 17,5 C 27,4 km/h (4 Bft) 96,23 %
06.07.2016 14:30 20,8 C 54 % 1016,5 hPa 0,0 l/m 21,0 km/h (4 Bft) W 259 0 min 0,000 mm 4,3 UV-I 341 W/m 11,1 C 17,1 C 32,2 km/h (5 Bft) 97,73 %
06.07.2016 14:32 21,1 C 55 % 1016,5 hPa 0,0 l/m 27,0 km/h (4 Bft) W-SW 240 2 min 0,000 mm 5,6 UV-I 741 W/m 11,7 C 16,6 C 35,4 km/h (5 Bft) 100,00 %
06.07.2016 14:34 21,3 C 53 % 1016,6 hPa 0,0 l/m 27,3 km/h (4 Bft) W 265 2 min 0,000 mm 6,0 UV-I 987 W/m 11,3 C 16,9 C 41,8 km/h (6 Bft) 100,00 %
06.07.2016 14:36 21,5 C 51 % 1016,6 hPa 0,0 l/m 27,2 km/h (4 Bft) SW 236 2 min 0,000 mm 5,4 UV-I 930 W/m 10,9 C 17,1 C 35,4 km/h (5 Bft) 100,00 %
06.07.2016 14:38 21,6 C 52 % 1016,6 hPa 0,0 l/m 19,4 km/h (3 Bft) W 279 2 min 0,000 mm 5,8 UV-I 887 W/m 11,3 C 18,4 C 29,0 km/h (5 Bft) 97,87 %
06.07.2016 14:40 21,7 C 52 % 1016,4 hPa 0,0 l/m 13,6 km/h (3 Bft) SW 232 2 min 0,000 mm 5,5 UV-I 797 W/m 11,4 C 19,6 C 27,4 km/h (4 Bft) 100,00 %
06.07.2016 14:42 21,8 C 51 % 1016,6 hPa 0,0 l/m 15,7 km/h (3 Bft) W-SW 255 2 min 0,000 mm 5,5 UV-I 857 W/m 11,2 C 19,3 C 25,7 km/h (4 Bft) 100,00 %
06.07.2016 14:44 21,8 C 51 % 1016,5 hPa 0,0 l/m 22,9 km/h (4 Bft) SW 224 2 min 0,000 mm 4,8 UV-I 862 W/m 11,2 C 18,1 C 46,7 km/h (6 Bft) 95,12 %
06.07.2016 14:46 21,7 C 50 % 1016,6 hPa 0,0 l/m 16,9 km/h (3 Bft) W 273 2 min 0,000 mm 4,2 UV-I 617 W/m 10,8 C 18,9 C 25,7 km/h (4 Bft) 97,73 %
06.07.2016 14:48 21,5 C 50 % 1016,5 hPa 0,0 l/m 29,2 km/h (5 Bft) W-SW 250 2 min 0,000 mm 3,9 UV-I 601 W/m 10,6 C 16,9 C 45,1 km/h (6 Bft) 100,00 %
06.07.2016 14:50 21,6 C 50 % 1016,5 hPa 0,0 l/m 25,6 km/h (4 Bft) SW 236 2 min 0,000 mm 5,2 UV-I 821 W/m 10,7 C 17,5 C 45,1 km/h (6 Bft) 97,56 %
06.07.2016 14:52 21,6 C 50 % 1016,5 hPa 0,0 l/m 23,6 km/h (4 Bft) SW 233 2 min 0,000 mm 3,6 UV-I 821 W/m 10,7 C 17,7 C 35,4 km/h (5 Bft) 100,00 %
06.07.2016 14:54 21,4 C 50 % 1016,6 hPa 0,0 l/m 18,4 km/h (3 Bft) W-SW 243 2 min 0,000 mm 3,6 UV-I 732 W/m 10,5 C 18,3 C 33,8 km/h (5 Bft) 100,00 %
06.07.2016 14:56 21,4 C 50 % 1016,5 hPa 0,0 l/m 20,0 km/h (4 Bft) W 261 0 min 0,000 mm 3,5 UV-I 409 W/m 10,5 C 18,0 C 37,0 km/h (5 Bft) 100,00 %
06.07.2016 14:58 21,4 C 52 % 1016,6 hPa 0,0 l/m 18,7 km/h (3 Bft) W-SW 238 0 min 0,000 mm 4,7 UV-I 411 W/m 11,1 C 18,2 C 29,0 km/h (5 Bft) 95,12 %
06.07.2016 15:00 21,5 C 51 % 1016,5 hPa 0,0 l/m 16,1 km/h (3 Bft) W 269 0 min 0,000 mm 3,8 UV-I 389 W/m 10,9 C 18,8 C 25,7 km/h (4 Bft) 100,00 %
06.07.2016 15:02 21,5 C 51 % 1016,5 hPa 0,0 l/m 19,9 km/h (4 Bft) W-SW 258 0 min 0,508 mm 4,2 UV-I 364 W/m 10,9 C 18,2 C 32,2 km/h (5 Bft) 96,00 %
06.07.2016 15:04 21,4 C 51 % 1016,5 hPa 0,0 l/m 17,8 km/h (3 Bft) W 263 0 min 0,000 mm 3,7 UV-I 393 W/m 10,8 C 18,4 C 30,6 km/h (5 Bft) 100,00 %
06.07.2016 15:06 21,5 C 53 % 1016,5 hPa 0,0 l/m 13,7 km/h (3 Bft) W-SW 246 2 min 0,000 mm 4,4 UV-I 616 W/m 11,5 C 19,4 C 22,5 km/h (4 Bft) 100,00 %
06.07.2016 15:08 21,7 C 52 % 1016,6 hPa 0,0 l/m 18,7 km/h (3 Bft) W-SW 242 2 min 0,000 mm 5,0 UV-I 889 W/m 11,4 C 18,6 C 27,4 km/h (4 Bft) 100,00 %
06.07.2016 15:10 21,9 C 51 % 1016,5 hPa 0,0 l/m 18,6 km/h (3 Bft) W-NW 295 2 min 0,000 mm 4,6 UV-I 972 W/m 11,3 C 18,9 C 29,0 km/h (5 Bft) 98,73 %
06.07.2016 15:12 22,0 C 52 % 1016,5 hPa 0,0 l/m 20,8 km/h (4 Bft) W-SW 239 2 min 0,000 mm 4,6 UV-I 963 W/m 11,7 C 18,7 C 37,0 km/h (5 Bft) 100,00 %
06.07.2016 15:14 22,0 C 49 % 1016,5 hPa 0,0 l/m 20,3 km/h (4 Bft) S-SW 200 2 min 0,000 mm 3,4 UV-I 842 W/m 10,8 C 18,7 C 32,2 km/h (5 Bft) 97,96 %
06.07.2016 15:16 21,9 C 50 % 1016,5 hPa 0,0 l/m 17,4 km/h (3 Bft) W-SW 240 0 min 0,000 mm 3,4 UV-I 384 W/m 11,0 C 19,1 C 27,4 km/h (4 Bft) 100,00 %
06.07.2016 15:18 21,7 C 51 % 1016,5 hPa 0,0 l/m 17,4 km/h (3 Bft) W 269 0 min 0,000 mm 3,7 UV-I 306 W/m 11,1 C 18,8 C 27,4 km/h (4 Bft) 97,56 %
06.07.2016 15:20 21,6 C 51 % 1016,5 hPa 0,0 l/m 15,9 km/h (3 Bft) W-NW 284 0 min 0,000 mm 3,8 UV-I 297 W/m 11,0 C 19,0 C 29,0 km/h (5 Bft) 96,49 %
06.07.2016 15:22 21,3 C 50 % 1016,5 hPa 0,0 l/m 13,8 km/h (3 Bft) SW 236 0 min 0,000 mm 3,1 UV-I 235 W/m 10,4 C 19,1 C 20,9 km/h (4 Bft) 96,23 %
06.07.2016 15:24 21,4 C 50 % 1016,6 hPa 0,0 l/m 16,4 km/h (3 Bft) W-SW 252 2 min 0,000 mm 4,0 UV-I 595 W/m 10,5 C 18,7 C 27,4 km/h (4 Bft) 95,45 %
06.07.2016 15:26 21,6 C 49 % 1016,4 hPa 0,0 l/m 18,6 km/h (3 Bft) W-SW 243 2 min 0,000 mm 4,3 UV-I 671 W/m 10,4 C 18,5 C 30,6 km/h (5 Bft) 97,37 %
06.07.2016 15:28 21,7 C 50 % 1016,5 hPa 0,0 l/m 16,4 km/h (3 Bft) W-SW 244 2 min 0,000 mm 3,9 UV-I 628 W/m 10,8 C 19,0 C 25,7 km/h (4 Bft) 97,73 %
06.07.2016 15:30 21,8 C 52 % 1016,5 hPa 0,0 l/m 16,5 km/h (3 Bft) W-SW 254 2 min 0,000 mm 4,2 UV-I 519 W/m 11,5 C 19,1 C 27,4 km/h (4 Bft) 96,61 %
06.07.2016 15:32 21,9 C 50 % 1016,5 hPa 0,0 l/m 25,4 km/h (4 Bft) W 269 0 min 0,000 mm 2,9 UV-I 372 W/m 11,0 C 17,9 C 38,6 km/h (5 Bft) 95,45 %
06.07.2016 15:34 21,7 C 48 % 1016,5 hPa 0,0 l/m 15,7 km/h (3 Bft) SW 236 0 min 0,000 mm 2,6 UV-I 330 W/m 10,2 C 19,2 C 24,1 km/h (4 Bft) 97,73 %
06.07.2016 15:36 21,6 C 50 % 1016,5 hPa 0,0 l/m 17,7 km/h (3 Bft) W-SW 243 0 min 0,000 mm 2,4 UV-I 278 W/m 10,7 C 18,7 C 24,1 km/h (4 Bft) 97,56 %
06.07.2016 15:38 21,4 C 49 % 1016,5 hPa 0,0 l/m 12,0 km/h (2 Bft) SW 229 0 min 0,000 mm 2,7 UV-I 275 W/m 10,2 C 19,6 C 17,7 km/h (3 Bft) 94,00 %
06.07.2016 15:40 21,4 C 50 % 1016,5 hPa 0,0 l/m 16,7 km/h (3 Bft) W-NW 290 0 min 0,000 mm 2,7 UV-I 319 W/m 10,5 C 18,6 C 25,7 km/h (4 Bft) 97,87 %
06.07.2016 15:42 21,3 C 49 % 1016,5 hPa 0,0 l/m 18,0 km/h (3 Bft) W-SW 246 0 min 0,000 mm 2,4 UV-I 269 W/m 10,1 C 18,2 C 33,8 km/h (5 Bft) 98,11 %
06.07.2016 15:44 21,2 C 50 % 1016,5 hPa 0,0 l/m 22,6 km/h (4 Bft) W 279 0 min 0,000 mm 2,6 UV-I 315 W/m 10,4 C 17,3 C 32,2 km/h (5 Bft) 97,73 %
06.07.2016 15:46 21,2 C 49 % 1016,4 hPa 0,0 l/m 19,1 km/h (3 Bft) W 262 0 min 0,000 mm 2,8 UV-I 327 W/m 10,1 C 17,9 C 25,7 km/h (4 Bft) 97,56 %
06.07.2016 15:48 21,2 C 49 % 1016,5 hPa 0,0 l/m 24,6 km/h (4 Bft) W-SW 237 0 min 0,000 mm 2,7 UV-I 304 W/m 10,1 C 17,1 C 35,4 km/h (5 Bft) 100,00 %
06.07.2016 15:50 21,2 C 50 % 1016,4 hPa 0,0 l/m 18,1 km/h (3 Bft) W 265 0 min 0,000 mm 2,9 UV-I 346 W/m 10,4 C 18,1 C 29,0 km/h (5 Bft) 100,00 %
06.07.2016 15:52 21,2 C 51 % 1016,4 hPa 0,0 l/m 14,1 km/h (3 Bft) SW 229 0 min 0,000 mm 3,1 UV-I 340 W/m 10,7 C 18,9 C 20,9 km/h (4 Bft) 98,00 %
06.07.2016 15:54 21,4 C 51 % 1016,4 hPa 0,0 l/m 17,0 km/h (3 Bft) W-SW 247 0 min 0,000 mm 3,7 UV-I 388 W/m 10,8 C 18,5 C 24,1 km/h (4 Bft) 97,87 %
06.07.2016 15:56 21,7 C 50 % 1016,4 hPa 0,0 l/m 14,3 km/h (3 Bft) S-SW 211 2 min 0,000 mm 3,4 UV-I 427 W/m 10,8 C 19,5 C 24,1 km/h (4 Bft) 100,00 %
06.07.2016 15:58 21,9 C 49 % 1016,3 hPa 0,0 l/m 18,3 km/h (3 Bft) SW 234 2 min 0,000 mm 3,8 UV-I 725 W/m 10,7 C 18,9 C 30,6 km/h (5 Bft) 100,00 %
06.07.2016 16:00 22,1 C 46 % 1016,2 hPa 0,0 l/m 21,0 km/h (4 Bft) W-SW 244 2 min 0,432 mm 3,1 UV-I 674 W/m 9,9 C 18,8 C 29,0 km/h (5 Bft) 100,00 %
06.07.2016 16:02 21,9 C 47 % 1016,3 hPa 0,0 l/m 18,6 km/h (3 Bft) W 264 0 min 0,000 mm 2,4 UV-I 249 W/m 10,1 C 18,9 C 27,4 km/h (4 Bft) 100,00 %
06.07.2016 16:04 21,9 C 47 % 1016,4 hPa 0,0 l/m 11,3 km/h (2 Bft) W-SW 254 2 min 0,000 mm 2,7 UV-I 419 W/m 10,1 C 20,4 C 17,7 km/h (3 Bft) 100,00 %
06.07.2016 16:06 21,9 C 49 % 1016,3 hPa 0,0 l/m 20,8 km/h (4 Bft) W-SW 258 2 min 0,000 mm 2,8 UV-I 575 W/m 10,7 C 18,5 C 33,8 km/h (5 Bft) 100,00 %
06.07.2016 16:08 21,8 C 48 % 1016,3 hPa 0,0 l/m 15,2 km/h (3 Bft) SW 229 2 min 0,000 mm 2,4 UV-I 395 W/m 10,3 C 19,4 C 25,7 km/h (4 Bft) 98,00 %
06.07.2016 16:10 21,7 C 48 % 1016,3 hPa 0,0 l/m 11,7 km/h (2 Bft) S-SO 165 0 min 0,000 mm 2,6 UV-I 343 W/m 10,2 C 20,1 C 20,9 km/h (4 Bft) 100,00 %
06.07.2016 16:12 21,7 C 48 % 1016,2 hPa 0,0 l/m 12,8 km/h (3 Bft) W-SW 254 0 min 0,000 mm 2,4 UV-I 309 W/m 10,2 C 19,8 C 24,1 km/h (4 Bft) 98,11 %
06.07.2016 16:14 21,7 C 46 % 1016,2 hPa 0,0 l/m 12,2 km/h (2 Bft) W-SW 255 0 min 0,000 mm 2,0 UV-I 248 W/m 9,6 C 19,9 C 27,4 km/h (4 Bft) 97,37 %
06.07.2016 16:16 21,6 C 46 % 1016,2 hPa 0,0 l/m 15,6 km/h (3 Bft) W-NW 286 0 min 0,000 mm 1,8 UV-I 231 W/m 9,5 C 19,1 C 24,1 km/h (4 Bft) 100,00 %
06.07.2016 16:18 21,4 C 46 % 1016,2 hPa 0,0 l/m 11,6 km/h (2 Bft) W-SW 250 0 min 0,000 mm 2,0 UV-I 265 W/m 9,3 C 19,7 C 19,3 km/h (3 Bft) 100,00 %
06.07.2016 16:20 21,3 C 47 % 1016,3 hPa 0,0 l/m 10,9 km/h (2 Bft) W-SW 248 0 min 0,000 mm 2,7 UV-I 353 W/m 9,5 C 19,8 C 22,5 km/h (4 Bft) 100,00 %
06.07.2016 16:22 21,3 C 47 % 1016,3 hPa 0,0 l/m 15,9 km/h (3 Bft) W-SW 248 0 min 0,000 mm 2,0 UV-I 245 W/m 9,5 C 18,6 C 25,7 km/h (4 Bft) 100,00 %
06.07.2016 16:24 21,3 C 45 % 1016,3 hPa 0,0 l/m 18,8 km/h (3 Bft) W-SW 256 0 min 0,000 mm 2,1 UV-I 265 W/m 8,9 C 18,1 C 30,6 km/h (5 Bft) 100,00 %
06.07.2016 16:26 21,3 C 46 % 1016,3 hPa 0,0 l/m 13,1 km/h (3 Bft) W-SW 242 0 min 0,000 mm 1,8 UV-I 295 W/m 9,2 C 19,3 C 22,5 km/h (4 Bft) 100,00 %
06.07.2016 16:28 21,4 C 46 % 1016,3 hPa 0,0 l/m 20,2 km/h (4 Bft) W-SW 256 2 min 0,000 mm 2,7 UV-I 394 W/m 9,3 C 18,0 C 33,8 km/h (5 Bft) 100,00 %
06.07.2016 16:30 21,6 C 46 % 1016,4 hPa 0,0 l/m 15,2 km/h (3 Bft) SW 227 2 min 0,000 mm 2,6 UV-I 394 W/m 9,5 C 19,1 C 24,1 km/h (4 Bft) 100,00 %
06.07.2016 16:32 21,7 C 47 % 1016,4 hPa 0,0 l/m 11,6 km/h (2 Bft) W-SW 247 2 min 0,000 mm 2,7 UV-I 371 W/m 9,9 C 20,1 C 19,3 km/h (3 Bft) 100,00 %
06.07.2016 16:34 21,8 C 48 % 1016,3 hPa 0,0 l/m 9,3 km/h (2 Bft) W 273 0 min 0,000 mm 2,2 UV-I 316 W/m 10,3 C 20,8 C 20,9 km/h (4 Bft) 100,00 %
06.07.2016 16:36 21,8 C 50 % 1016,2 hPa 0,0 l/m 6,6 km/h (2 Bft) W-SW 255 0 min 0,000 mm 2,1 UV-I 330 W/m 10,9 C 21,7 C 19,3 km/h (3 Bft) 94,29 %
06.07.2016 16:38 21,7 C 48 % 1016,3 hPa 0,0 l/m 9,5 km/h (2 Bft) W 265 0 min 0,000 mm 2,2 UV-I 326 W/m 10,2 C 20,7 C 16,1 km/h (3 Bft) 98,39 %
06.07.2016 16:40 21,5 C 47 % 1016,3 hPa 0,0 l/m 7,4 km/h (2 Bft) W-NW 295 0 min 0,000 mm 2,1 UV-I 304 W/m 9,7 C 21,1 C 17,7 km/h (3 Bft) 100,00 %
06.07.2016 16:42 21,4 C 48 % 1016,4 hPa 0,0 l/m 6,4 km/h (2 Bft) W-SW 254 0 min 0,000 mm 2,3 UV-I 324 W/m 9,9 C 21,4 C 12,9 km/h (3 Bft) 96,00 %
06.07.2016 16:44 21,4 C 48 % 1016,4 hPa 0,0 l/m 8,8 km/h (2 Bft) SW 236 0 min 0,000 mm 2,4 UV-I 331 W/m 9,9 C 20,6 C 14,5 km/h (3 Bft) 100,00 %
06.07.2016 16:46 21,5 C 49 % 1016,3 hPa 0,0 l/m 6,1 km/h (2 Bft) W-SW 238 0 min 0,000 mm 2,5 UV-I 338 W/m 10,3 C 21,5 C 14,5 km/h (3 Bft) 100,00 %
06.07.2016 16:48 21,6 C 49 % 1016,4 hPa 0,0 l/m 9,8 km/h (2 Bft) W-SW 242 2 min 0,000 mm 2,7 UV-I 413 W/m 10,4 C 20,5 C 16,1 km/h (3 Bft) 100,00 %
06.07.2016 16:50 21,8 C 49 % 1016,3 hPa 0,0 l/m 8,5 km/h (2 Bft) N-NW 339 2 min 0,000 mm 2,7 UV-I 710 W/m 10,6 C 21,1 C 19,3 km/h (3 Bft) 100,00 %
06.07.2016 16:52 21,9 C 48 % 1016,3 hPa 0,0 l/m 11,3 km/h (2 Bft) W-SW 239 2 min 0,000 mm 2,0 UV-I 690 W/m 10,4 C 20,4 C 20,9 km/h (4 Bft) 100,00 %
06.07.2016 16:54 21,9 C 46 % 1016,3 hPa 0,0 l/m 15,8 km/h (3 Bft) W-NW 303 2 min 0,000 mm 2,2 UV-I 424 W/m 9,7 C 19,4 C 24,1 km/h (4 Bft) 100,00 %
06.07.2016 16:56 21,8 C 49 % 1016,3 hPa 0,0 l/m 11,6 km/h (2 Bft) N-NW 329 0 min 0,000 mm 1,6 UV-I 288 W/m 10,6 C 20,2 C 19,3 km/h (3 Bft) 98,31 %
06.07.2016 16:58 21,6 C 49 % 1016,2 hPa 0,0 l/m 5,4 km/h (1 Bft) W-SW 250 0 min 0,000 mm 1,7 UV-I 302 W/m 10,4 C 21,6 C 11,3 km/h (2 Bft) 97,37 %
06.07.2016 17:00 21,5 C 49 % 1016,2 hPa 0,0 l/m 2,8 km/h (1 Bft) SW 227 0 min 0,330 mm 2,0 UV-I 301 W/m 10,3 C 21,5 C 4,8 km/h (1 Bft) 97,56 %
06.07.2016 17:02 21,6 C 49 % 1016,3 hPa 0,0 l/m 6,9 km/h (2 Bft) NW 321 2 min 0,000 mm 2,3 UV-I 493 W/m 10,4 C 21,4 C 17,7 km/h (3 Bft) 100,00 %
06.07.2016 17:04 21,8 C 50 % 1016,3 hPa 0,0 l/m 5,3 km/h (1 Bft) W 266 2 min 0,000 mm 2,3 UV-I 631 W/m 10,9 C 21,8 C 12,9 km/h (3 Bft) 100,00 %
06.07.2016 17:06 22,1 C 50 % 1016,2 hPa 0,0 l/m 7,9 km/h (2 Bft) W-SW 253 2 min 0,000 mm 2,2 UV-I 616 W/m 11,2 C 21,6 C 14,5 km/h (3 Bft) 100,00 %
06.07.2016 17:08 22,0 C 46 % 1016,3 hPa 0,0 l/m 7,1 km/h (2 Bft) W-SW 250 2 min 0,000 mm 1,9 UV-I 322 W/m 9,8 C 21,8 C 12,9 km/h (3 Bft) 100,00 %
06.07.2016 17:10 21,9 C 48 % 1016,2 hPa 0,0 l/m 10,2 km/h (2 Bft) W 273 2 min 0,000 mm 2,2 UV-I 564 W/m 10,4 C 20,7 C 17,7 km/h (3 Bft) 97,56 %
06.07.2016 17:12 21,9 C 47 % 1016,3 hPa 0,0 l/m 7,4 km/h (2 Bft) W-SW 253 2 min 0,000 mm 2,1 UV-I 545 W/m 10,1 C 21,5 C 11,3 km/h (2 Bft) 95,56 %
06.07.2016 17:14 22,0 C 47 % 1016,3 hPa 0,0 l/m 7,7 km/h (2 Bft) N-NW 339 2 min 0,000 mm 2,1 UV-I 572 W/m 10,2 C 21,6 C 14,5 km/h (3 Bft) 97,56 %
06.07.2016 17:16 21,9 C 47 % 1016,3 hPa 0,0 l/m 10,8 km/h (2 Bft) W-SW 250 2 min 0,000 mm 2,2 UV-I 593 W/m 10,1 C 20,5 C 17,7 km/h (3 Bft) 98,25 %
06.07.2016 17:18 22,0 C 47 % 1016,2 hPa 0,0 l/m 10,1 km/h (2 Bft) W 260 2 min 0,000 mm 2,1 UV-I 574 W/m 10,2 C 20,8 C 14,5 km/h (3 Bft) 96,00 %
06.07.2016 17:20 22,1 C 47 % 1016,3 hPa 0,0 l/m 10,0 km/h (2 Bft) W 259 2 min 0,000 mm 2,1 UV-I 570 W/m 10,3 C 21,0 C 16,1 km/h (3 Bft) 97,56 %
06.07.2016 17:22 22,2 C 45 % 1016,3 hPa 0,0 l/m 10,8 km/h (2 Bft) W 262 2 min 0,000 mm 2,1 UV-I 563 W/m 9,7 C 20,9 C 19,3 km/h (3 Bft) 95,74 %
06.07.2016 17:24 22,2 C 45 % 1016,3 hPa 0,0 l/m 10,2 km/h (2 Bft) W 272 2 min 0,000 mm 1,9 UV-I 558 W/m 9,7 C 21,0 C 30,6 km/h (5 Bft) 97,73 %
06.07.2016 17:26 22,2 C 44 % 1016,3 hPa 0,0 l/m 11,5 km/h (2 Bft) W 265 2 min 0,000 mm 1,7 UV-I 557 W/m 9,4 C 20,7 C 19,3 km/h (3 Bft) 98,21 %
06.07.2016 17:28 22,2 C 48 % 1016,3 hPa 0,0 l/m 6,3 km/h (2 Bft) W-SW 248 2 min 0,000 mm 1,9 UV-I 548 W/m 10,7 C 22,2 C 16,1 km/h (3 Bft) 94,74 %
06.07.2016 17:30 22,1 C 46 % 1016,3 hPa 0,0 l/m 6,6 km/h (2 Bft) S 175 2 min 0,000 mm 1,8 UV-I 542 W/m 9,9 C 22,0 C 12,9 km/h (3 Bft) 98,21 %
06.07.2016 17:32 22,2 C 45 % 1016,3 hPa 0,0 l/m 9,8 km/h (2 Bft) W 265 2 min 0,000 mm 1,7 UV-I 533 W/m 9,7 C 21,1 C 19,3 km/h (3 Bft) 95,12 %
06.07.2016 17:34 22,1 C 45 % 1016,2 hPa 0,0 l/m 11,0 km/h (2 Bft) W-NW 291 2 min 0,000 mm 1,8 UV-I 535 W/m 9,6 C 20,7 C 16,1 km/h (3 Bft) 93,88 %
06.07.2016 17:36 22,1 C 49 % 1016,2 hPa 0,0 l/m 4,0 km/h (1 Bft) NW 315 2 min 0,000 mm 1,7 UV-I 520 W/m 10,9 C 22,1 C 12,9 km/h (3 Bft) 97,56 %
06.07.2016 17:38 22,2 C 46 % 1016,2 hPa 0,0 l/m 4,9 km/h (1 Bft) N-NW 328 2 min 0,000 mm 1,7 UV-I 519 W/m 10,0 C 22,2 C 16,1 km/h (3 Bft) 96,23 %
06.07.2016 17:40 22,1 C 47 % 1016,3 hPa 0,0 l/m 7,5 km/h (2 Bft) N-NW 333 2 min 0,000 mm 1,7 UV-I 519 W/m 10,3 C 21,7 C 19,3 km/h (3 Bft) 98,00 %
06.07.2016 17:42 21,9 C 48 % 1016,3 hPa 0,0 l/m 5,5 km/h (1 Bft) W-SW 255 2 min 0,000 mm 1,5 UV-I 519 W/m 10,4 C 21,9 C 11,3 km/h (2 Bft) 94,87 %
06.07.2016 17:44 21,7 C 47 % 1016,3 hPa 0,0 l/m 5,3 km/h (1 Bft) NW 314 2 min 0,000 mm 1,3 UV-I 505 W/m 9,9 C 21,7 C 9,7 km/h (2 Bft) 100,00 %
06.07.2016 17:46 21,6 C 48 % 1016,3 hPa 0,0 l/m 6,9 km/h (2 Bft) SW 232 0 min 0,000 mm 1,2 UV-I 179 W/m 10,1 C 21,4 C 12,9 km/h (3 Bft) 100,00 %
06.07.2016 17:48 21,4 C 47 % 1016,4 hPa 0,0 l/m 6,6 km/h (2 Bft) W-NW 282 2 min 0,000 mm 1,3 UV-I 358 W/m 9,6 C 21,3 C 11,3 km/h (2 Bft) 100,00 %
06.07.2016 17:50 21,4 C 48 % 1016,3 hPa 0,0 l/m 5,7 km/h (1 Bft) W-SW 251 2 min 0,000 mm 1,3 UV-I 449 W/m 9,9 C 21,4 C 14,5 km/h (3 Bft) 97,87 %
06.07.2016 17:52 21,6 C 47 % 1016,4 hPa 0,0 l/m 9,4 km/h (2 Bft) NW 317 2 min 0,000 mm 1,4 UV-I 485 W/m 9,8 C 20,6 C 16,1 km/h (3 Bft) 100,00 %
06.07.2016 17:54 21,7 C 47 % 1016,3 hPa 0,0 l/m 5,6 km/h (1 Bft) NO 41 2 min 0,000 mm 1,4 UV-I 479 W/m 9,9 C 21,7 C 14,5 km/h (3 Bft) 97,87 %
06.07.2016 17:56 21,7 C 47 % 1016,4 hPa 0,0 l/m 9,0 km/h (2 Bft) N 5 2 min 0,000 mm 1,3 UV-I 422 W/m 9,9 C 20,8 C 19,3 km/h (3 Bft) 100,00 %
06.07.2016 17:58 21,6 C 50 % 1016,4 hPa 0,0 l/m 2,8 km/h (1 Bft) W 263 2 min 0,000 mm 1,3 UV-I 438 W/m 10,7 C 21,6 C 8,0 km/h (2 Bft) 98,11 %
06.07.2016 18:00 21,8 C 49 % 1016,3 hPa 0,0 l/m 4,3 km/h (1 Bft) W-NW 299 2 min 0,356 mm 1,2 UV-I 429 W/m 10,6 C 21,8 C 12,9 km/h (3 Bft) 100,00 %
06.07.2016 18:02 21,7 C 47 % 1016,3 hPa 0,0 l/m 6,8 km/h (2 Bft) NW 306 2 min 0,000 mm 1,2 UV-I 433 W/m 9,9 C 21,6 C 12,9 km/h (3 Bft) 100,00 %
06.07.2016 18:04 21,7 C 50 % 1016,3 hPa 0,0 l/m 3,6 km/h (1 Bft) SW 227 2 min 0,000 mm 1,2 UV-I 422 W/m 10,8 C 21,7 C 6,4 km/h (2 Bft) 98,00 %
06.07.2016 18:06 21,7 C 47 % 1016,3 hPa 0,0 l/m 7,1 km/h (2 Bft) W 267 2 min 0,000 mm 1,1 UV-I 414 W/m 9,9 C 21,5 C 12,9 km/h (3 Bft) 100,00 %
06.07.2016 18:08 21,7 C 47 % 1016,3 hPa 0,0 l/m 8,7 km/h (2 Bft) W 259 2 min 0,000 mm 1,1 UV-I 394 W/m 9,9 C 20,9 C 19,3 km/h (3 Bft) 100,00 %
06.07.2016 18:10 21,7 C 48 % 1016,4 hPa 0,0 l/m 3,7 km/h (1 Bft) W 275 2 min 0,000 mm 1,0 UV-I 300 W/m 10,2 C 21,7 C 8,0 km/h (2 Bft) 100,00 %
06.07.2016 18:12 21,6 C 46 % 1016,4 hPa 0,0 l/m 9,6 km/h (2 Bft) W-SW 244 2 min 0,000 mm 0,9 UV-I 326 W/m 9,5 C 20,5 C 20,9 km/h (4 Bft) 97,56 %
06.07.2016 18:14 21,4 C 48 % 1016,3 hPa 0,0 l/m 5,4 km/h (1 Bft) W-SW 257 2 min 0,000 mm 0,9 UV-I 322 W/m 9,9 C 21,4 C 12,9 km/h (3 Bft) 100,00 %
06.07.2016 18:16 21,3 C 48 % 1016,4 hPa 0,0 l/m 7,1 km/h (2 Bft) W-SW 237 2 min 0,000 mm 0,9 UV-I 341 W/m 9,8 C 21,0 C 14,5 km/h (3 Bft) 100,00 %
06.07.2016 18:18 21,3 C 47 % 1016,4 hPa 0,0 l/m 3,9 km/h (1 Bft) W 281 2 min 0,000 mm 0,9 UV-I 371 W/m 9,5 C 21,3 C 6,4 km/h (2 Bft) 100,00 %
06.07.2016 18:20 21,3 C 47 % 1016,4 hPa 0,0 l/m 9,0 km/h (2 Bft) W 261 2 min 0,000 mm 0,9 UV-I 371 W/m 9,5 C 20,4 C 17,7 km/h (3 Bft) 100,00 %
06.07.2016 18:22 21,3 C 46 % 1016,4 hPa 0,0 l/m 10,1 km/h (2 Bft) W-NW 298 2 min 0,000 mm 0,9 UV-I 365 W/m 9,2 C 20,0 C 19,3 km/h (3 Bft) 97,73 %
06.07.2016 18:24 21,4 C 50 % 1016,5 hPa 0,0 l/m 4,4 km/h (1 Bft) N-NO 18 2 min 0,000 mm 0,8 UV-I 356 W/m 10,5 C 21,4 C 14,5 km/h (3 Bft) 100,00 %
06.07.2016 18:26 21,3 C 47 % 1016,4 hPa 0,0 l/m 6,9 km/h (2 Bft) NW 311 2 min 0,000 mm 0,8 UV-I 352 W/m 9,5 C 21,1 C 12,9 km/h (3 Bft) 98,15 %
06.07.2016 18:28 21,2 C 49 % 1016,4 hPa 0,0 l/m 2,7 km/h (1 Bft) W 265 2 min 0,000 mm 0,8 UV-I 344 W/m 10,1 C 21,2 C 4,8 km/h (1 Bft) 100,00 %
06.07.2016 18:30 21,3 C 49 % 1016,4 hPa 0,0 l/m 3,3 km/h (1 Bft) O-NO 75 2 min 0,000 mm 0,8 UV-I 337 W/m 10,1 C 21,3 C 4,8 km/h (1 Bft) 100,00 %
06.07.2016 18:32 21,4 C 48 % 1016,5 hPa 0,0 l/m 4,1 km/h (1 Bft) NW 325 2 min 0,000 mm 0,8 UV-I 329 W/m 9,9 C 21,4 C 11,3 km/h (2 Bft) 100,00 %
06.07.2016 18:34 21,3 C 49 % 1016,4 hPa 0,0 l/m 6,5 km/h (2 Bft) W-NW 298 2 min 0,000 mm 0,7 UV-I 323 W/m 10,1 C 21,3 C 16,1 km/h (3 Bft) 100,00 %
06.07.2016 18:36 21,3 C 48 % 1016,4 hPa 0,0 l/m 4,8 km/h (1 Bft) NW 306 2 min 0,000 mm 0,7 UV-I 318 W/m 9,8 C 21,3 C 11,3 km/h (2 Bft) 100,00 %
06.07.2016 18:38 21,3 C 46 % 1016,4 hPa 0,0 l/m 7,5 km/h (2 Bft) N-NW 331 2 min 0,000 mm 0,7 UV-I 314 W/m 9,2 C 20,9 C 17,7 km/h (3 Bft) 98,00 %
06.07.2016 18:40 21,2 C 47 % 1016,4 hPa 0,0 l/m 4,7 km/h (1 Bft) N-NW 336 2 min 0,000 mm 0,7 UV-I 310 W/m 9,4 C 21,2 C 14,5 km/h (3 Bft) 100,00 %
06.07.2016 18:42 21,2 C 46 % 1016,4 hPa 0,0 l/m 2,0 km/h (1 Bft) SO 128 2 min 0,000 mm 0,7 UV-I 305 W/m 9,1 C 21,2 C 6,4 km/h (2 Bft) 100,00 %
06.07.2016 18:44 21,2 C 47 % 1016,4 hPa 0,0 l/m 4,4 km/h (1 Bft) SW 235 2 min 0,000 mm 0,7 UV-I 299 W/m 9,4 C 21,2 C 11,3 km/h (2 Bft) 98,00 %
06.07.2016 18:46 21,2 C 50 % 1016,4 hPa 0,0 l/m 7,2 km/h (2 Bft) W-NW 298 2 min 0,000 mm 0,6 UV-I 293 W/m 10,4 C 20,9 C 14,5 km/h (3 Bft) 100,00 %
06.07.2016 18:48 21,2 C 47 % 1016,5 hPa 0,0 l/m 9,1 km/h (2 Bft) W-NW 283 2 min 0,000 mm 0,6 UV-I 285 W/m 9,4 C 20,2 C 16,1 km/h (3 Bft) 100,00 %
06.07.2016 18:50 21,2 C 46 % 1016,5 hPa 0,0 l/m 7,1 km/h (2 Bft) W 267 2 min 0,000 mm 0,6 UV-I 250 W/m 9,1 C 20,9 C 17,7 km/h (3 Bft) 100,00 %
06.07.2016 18:52 21,1 C 46 % 1016,6 hPa 0,0 l/m 5,4 km/h (1 Bft) N 5 2 min 0,000 mm 0,6 UV-I 273 W/m 9,0 C 21,1 C 17,7 km/h (3 Bft) 100,00 %
06.07.2016 18:54 21,1 C 45 % 1016,6 hPa 0,0 l/m 6,2 km/h (2 Bft) W-NW 288 2 min 0,000 mm 0,5 UV-I 270 W/m 8,7 C 21,1 C 16,1 km/h (3 Bft) 100,00 %
06.07.2016 18:56 21,0 C 46 % 1016,6 hPa 0,0 l/m 5,8 km/h (2 Bft) W-SW 243 2 min 0,000 mm 0,5 UV-I 265 W/m 8,9 C 21,0 C 11,3 km/h (2 Bft) 100,00 %
06.07.2016 18:58 20,9 C 47 % 1016,6 hPa 0,0 l/m 2,9 km/h (1 Bft) SW 236 2 min 0,000 mm 0,5 UV-I 260 W/m 9,2 C 20,9 C 16,1 km/h (3 Bft) 98,11 %
06.07.2016 19:00 20,9 C 47 % 1016,6 hPa 0,0 l/m 7,0 km/h (2 Bft) W-NW 296 2 min 0,254 mm 0,5 UV-I 255 W/m 9,2 C 20,7 C 16,1 km/h (3 Bft) 100,00 %
06.07.2016 19:02 20,8 C 48 % 1016,6 hPa 0,0 l/m 3,3 km/h (1 Bft) N 350 2 min 0,000 mm 0,5 UV-I 250 W/m 9,4 C 20,8 C 9,7 km/h (2 Bft) 98,11 %
06.07.2016 19:04 20,7 C 47 % 1016,6 hPa 0,0 l/m 7,0 km/h (2 Bft) NW 313 2 min 0,000 mm 0,2 UV-I 245 W/m 9,0 C 20,5 C 16,1 km/h (3 Bft) 100,00 %
06.07.2016 19:06 20,7 C 48 % 1016,7 hPa 0,0 l/m 5,0 km/h (1 Bft) W 260 2 min 0,000 mm 0,0 UV-I 238 W/m 9,3 C 20,7 C 11,3 km/h (2 Bft) 100,00 %
06.07.2016 19:08 20,7 C 45 % 1016,7 hPa 0,0 l/m 5,2 km/h (1 Bft) W-NW 285 2 min 0,000 mm 0,0 UV-I 230 W/m 8,3 C 20,7 C 12,9 km/h (3 Bft) 94,34 %
06.07.2016 19:10 20,8 C 47 % 1016,8 hPa 0,0 l/m 3,5 km/h (1 Bft) W-SW 252 2 min 0,000 mm 0,0 UV-I 224 W/m 9,1 C 20,8 C 8,0 km/h (2 Bft) 98,08 %
06.07.2016 19:12 20,8 C 46 % 1016,7 hPa 0,0 l/m 4,0 km/h (1 Bft) NW 317 2 min 0,000 mm 0,0 UV-I 218 W/m 8,8 C 20,8 C 8,0 km/h (2 Bft) 97,44 %
06.07.2016 19:14 20,8 C 47 % 1016,7 hPa 0,0 l/m 2,5 km/h (1 Bft) N 11 2 min 0,000 mm 0,0 UV-I 208 W/m 9,1 C 20,8 C 6,4 km/h (2 Bft) 96,55 %
06.07.2016 19:16 20,8 C 47 % 1016,8 hPa 0,0 l/m 8,9 km/h (2 Bft) W 271 2 min 0,000 mm 0,0 UV-I 203 W/m 9,1 C 19,9 C 16,1 km/h (3 Bft) 98,46 %
06.07.2016 19:18 20,8 C 47 % 1016,8 hPa 0,0 l/m 5,4 km/h (1 Bft) NW 311 2 min 0,000 mm 0,0 UV-I 200 W/m 9,1 C 20,8 C 12,9 km/h (3 Bft) 96,00 %
06.07.2016 19:20 20,7 C 47 % 1016,8 hPa 0,0 l/m 8,9 km/h (2 Bft) W 265 2 min 0,000 mm 0,0 UV-I 193 W/m 9,0 C 19,8 C 17,7 km/h (3 Bft) 96,00 %
06.07.2016 19:22 20,7 C 47 % 1016,8 hPa 0,0 l/m 5,9 km/h (2 Bft) W-NW 282 2 min 0,000 mm 0,0 UV-I 172 W/m 9,0 C 20,7 C 19,3 km/h (3 Bft) 100,00 %
06.07.2016 19:24 20,6 C 47 % 1016,8 hPa 0,0 l/m 5,0 km/h (1 Bft) W-SW 238 2 min 0,000 mm 0,0 UV-I 181 W/m 8,9 C 20,6 C 12,9 km/h (3 Bft) 94,00 %
06.07.2016 19:26 20,5 C 46 % 1016,9 hPa 0,0 l/m 3,4 km/h (1 Bft) NW 306 2 min 0,000 mm 0,0 UV-I 175 W/m 8,5 C 20,5 C 12,9 km/h (3 Bft) 95,45 %
06.07.2016 19:28 20,5 C 45 % 1016,9 hPa 0,0 l/m 9,1 km/h (2 Bft) W-NW 285 2 min 0,000 mm 0,0 UV-I 170 W/m 8,2 C 19,5 C 19,3 km/h (3 Bft) 98,21 %
06.07.2016 19:30 20,4 C 47 % 1016,9 hPa 0,0 l/m 5,0 km/h (1 Bft) SW 219 2 min 0,000 mm 0,0 UV-I 163 W/m 8,7 C 20,4 C 14,5 km/h (3 Bft) 97,37 %
06.07.2016 19:32 20,4 C 46 % 1016,8 hPa 0,0 l/m 7,9 km/h (2 Bft) W-SW 247 2 min 0,000 mm 0,0 UV-I 157 W/m 8,4 C 19,8 C 20,9 km/h (4 Bft) 97,87 %
06.07.2016 19:34 20,4 C 47 % 1016,8 hPa 0,0 l/m 6,0 km/h (2 Bft) W-NW 298 2 min 0,000 mm 0,0 UV-I 153 W/m 8,7 C 20,4 C 11,3 km/h (2 Bft) 98,11 %
06.07.2016 19:36 20,4 C 47 % 1016,8 hPa 0,0 l/m 2,2 km/h (1 Bft) NW 307 2 min 0,000 mm 0,0 UV-I 142 W/m 8,7 C 20,4 C 6,4 km/h (2 Bft) 97,37 %
06.07.2016 19:38 20,3 C 50 % 1016,9 hPa 0,0 l/m 3,4 km/h (1 Bft) SW 227 2 min 0,000 mm 0,0 UV-I 138 W/m 9,5 C 20,3 C 9,7 km/h (2 Bft) 98,00 %
06.07.2016 19:40 20,3 C 46 % 1016,9 hPa 0,0 l/m 7,2 km/h (2 Bft) W-SW 238 2 min 0,000 mm 0,0 UV-I 131 W/m 8,3 C 20,0 C 16,1 km/h (3 Bft) 98,00 %
06.07.2016 19:42 20,3 C 46 % 1016,9 hPa 0,0 l/m 4,2 km/h (1 Bft) N-NW 345 2 min 0,000 mm 0,0 UV-I 124 W/m 8,3 C 20,3 C 8,0 km/h (2 Bft) 100,00 %
06.07.2016 19:44 20,2 C 47 % 1016,9 hPa 0,0 l/m 5,7 km/h (1 Bft) NW 317 2 min 0,000 mm 0,0 UV-I 120 W/m 8,5 C 20,2 C 16,1 km/h (3 Bft) 98,00 %
06.07.2016 19:46 20,3 C 46 % 1016,9 hPa 0,0 l/m 6,9 km/h (2 Bft) W-NW 283 2 min 0,000 mm 0,0 UV-I 114 W/m 8,3 C 20,1 C 12,9 km/h (3 Bft) 97,92 %
06.07.2016 19:48 20,2 C 48 % 1016,9 hPa 0,0 l/m 4,0 km/h (1 Bft) W 273 2 min 0,000 mm 0,0 UV-I 107 W/m 8,8 C 20,2 C 11,3 km/h (2 Bft) 100,00 %
06.07.2016 19:50 20,1 C 50 % 1017,0 hPa 0,0 l/m 3,5 km/h (1 Bft) W 273 2 min 0,000 mm 0,0 UV-I 104 W/m 9,3 C 20,1 C 6,4 km/h (2 Bft) 100,00 %
06.07.2016 19:52 20,0 C 48 % 1017,0 hPa 0,0 l/m 6,9 km/h (2 Bft) SW 222 2 min 0,000 mm 0,0 UV-I 98 W/m 8,7 C 19,8 C 20,9 km/h (4 Bft) 100,00 %
06.07.2016 19:54 19,9 C 47 % 1016,9 hPa 0,0 l/m 9,9 km/h (2 Bft) W-SW 250 2 min 0,000 mm 0,0 UV-I 94 W/m 8,3 C 18,6 C 19,3 km/h (3 Bft) 100,00 %
06.07.2016 19:56 19,9 C 46 % 1017,0 hPa 0,0 l/m 7,1 km/h (2 Bft) SW 236 2 min 0,000 mm 0,0 UV-I 89 W/m 7,9 C 19,6 C 12,9 km/h (3 Bft) 100,00 %
06.07.2016 19:58 19,9 C 47 % 1017,0 hPa 0,0 l/m 3,7 km/h (1 Bft) W-SW 242 0 min 0,000 mm 0,0 UV-I 75 W/m 8,3 C 19,9 C 8,0 km/h (2 Bft) 100,00 %
06.07.2016 20:00 19,9 C 48 % 1017,0 hPa 0,0 l/m 3,1 km/h (1 Bft) W-NW 288 0 min 0,000 mm 0,0 UV-I 76 W/m 8,6 C 19,9 C 8,0 km/h (2 Bft) 100,00 %
06.07.2016 20:02 19,8 C 47 % 1017,0 hPa 0,0 l/m 6,4 km/h (2 Bft) W 262 0 min 0,152 mm 0,0 UV-I 73 W/m 8,2 C 19,8 C 12,9 km/h (3 Bft) 100,00 %
06.07.2016 20:04 19,8 C 47 % 1017,0 hPa 0,0 l/m 5,6 km/h (1 Bft) W 273 0 min 0,000 mm 0,0 UV-I 71 W/m 8,2 C 19,8 C 12,9 km/h (3 Bft) 100,00 %
06.07.2016 20:06 19,7 C 48 % 1017,1 hPa 0,0 l/m 7,2 km/h (2 Bft) W-NW 294 0 min 0,000 mm 0,0 UV-I 66 W/m 8,4 C 19,4 C 16,1 km/h (3 Bft) 100,00 %
06.07.2016 20:08 19,7 C 48 % 1017,0 hPa 0,0 l/m 1,8 km/h (1 Bft) NW 322 0 min 0,000 mm 0,0 UV-I 62 W/m 8,4 C 19,7 C 4,8 km/h (1 Bft) 97,14 %
06.07.2016 20:10 19,6 C 48 % 1017,0 hPa 0,0 l/m 3,1 km/h (1 Bft) W 259 0 min 0,000 mm 0,0 UV-I 57 W/m 8,3 C 19,6 C 9,7 km/h (2 Bft) 98,53 %
06.07.2016 20:12 19,6 C 49 % 1017,1 hPa 0,0 l/m 5,0 km/h (1 Bft) W-SW 254 0 min 0,000 mm 0,0 UV-I 53 W/m 8,6 C 19,6 C 12,9 km/h (3 Bft) 97,62 %
06.07.2016 20:14 19,5 C 50 % 1017,0 hPa 0,0 l/m 2,7 km/h (1 Bft) SW 226 0 min 0,000 mm 0,0 UV-I 49 W/m 8,8 C 19,5 C 8,0 km/h (2 Bft) 100,00 %
06.07.2016 20:16 19,4 C 48 % 1017,1 hPa 0,0 l/m 4,6 km/h (1 Bft) W-SW 242 0 min 0,000 mm 0,0 UV-I 46 W/m 8,1 C 19,4 C 17,7 km/h (3 Bft) 97,87 %
06.07.2016 20:18 19,3 C 49 % 1017,1 hPa 0,0 l/m 3,6 km/h (1 Bft) W-SW 248 0 min 0,000 mm 0,0 UV-I 42 W/m 8,3 C 19,3 C 6,4 km/h (2 Bft) 97,87 %
06.07.2016 20:20 19,3 C 49 % 1017,1 hPa 0,0 l/m 4,9 km/h (1 Bft) W 259 0 min 0,000 mm 0,0 UV-I 38 W/m 8,3 C 19,3 C 8,0 km/h (2 Bft) 97,56 %
06.07.2016 20:22 19,2 C 50 % 1017,1 hPa 0,0 l/m 3,3 km/h (1 Bft) W-SW 249 0 min 0,000 mm 0,0 UV-I 32 W/m 8,5 C 19,2 C 6,4 km/h (2 Bft) 100,00 %
06.07.2016 20:24 19,1 C 50 % 1017,1 hPa 0,0 l/m 3,1 km/h (1 Bft) W-NW 288 0 min 0,000 mm 0,0 UV-I 25 W/m 8,4 C 19,1 C 11,3 km/h (2 Bft) 100,00 %
06.07.2016 20:26 19,1 C 49 % 1017,1 hPa 0,0 l/m 5,0 km/h (1 Bft) W 271 0 min 0,000 mm 0,0 UV-I 22 W/m 8,1 C 19,1 C 9,7 km/h (2 Bft) 98,08 %
06.07.2016 20:28 19,0 C 50 % 1017,1 hPa 0,0 l/m 6,4 km/h (2 Bft) W-SW 251 0 min 0,000 mm 0,0 UV-I 19 W/m 8,3 C 19,0 C 12,9 km/h (3 Bft) 100,00 %
06.07.2016 20:30 19,0 C 49 % 1017,2 hPa 0,0 l/m 4,3 km/h (1 Bft) W-SW 248 0 min 0,000 mm 0,0 UV-I 19 W/m 8,0 C 19,0 C 12,9 km/h (3 Bft) 100,00 %
06.07.2016 20:32 18,9 C 50 % 1017,1 hPa 0,0 l/m 4,6 km/h (1 Bft) SW 235 0 min 0,000 mm 0,0 UV-I 19 W/m 8,2 C 18,9 C 12,9 km/h (3 Bft) 100,00 %
06.07.2016 20:34 18,8 C 51 % 1017,1 hPa 0,0 l/m 3,5 km/h (1 Bft) W 264 0 min 0,000 mm 0,0 UV-I 17 W/m 8,4 C 18,8 C 9,7 km/h (2 Bft) 100,00 %
06.07.2016 20:36 18,8 C 51 % 1017,2 hPa 0,0 l/m 3,4 km/h (1 Bft) W 275 0 min 0,000 mm 0,0 UV-I 16 W/m 8,4 C 18,8 C 6,4 km/h (2 Bft) 100,00 %
06.07.2016 20:38 18,7 C 51 % 1017,2 hPa 0,0 l/m 4,9 km/h (1 Bft) W-NW 292 0 min 0,000 mm 0,0 UV-I 15 W/m 8,4 C 18,7 C 12,9 km/h (3 Bft) 98,11 %
06.07.2016 20:40 18,6 C 51 % 1017,2 hPa 0,0 l/m 6,9 km/h (2 Bft) W 270 0 min 0,000 mm 0,0 UV-I 13 W/m 8,3 C 18,4 C 16,1 km/h (3 Bft) 100,00 %
06.07.2016 20:42 18,5 C 51 % 1017,2 hPa 0,0 l/m 6,6 km/h (2 Bft) W-SW 256 0 min 0,000 mm 0,0 UV-I 12 W/m 8,2 C 18,4 C 14,5 km/h (3 Bft) 100,00 %
06.07.2016 20:44 18,5 C 51 % 1017,3 hPa 0,0 l/m 5,0 km/h (1 Bft) W-SW 258 0 min 0,000 mm 0,0 UV-I 12 W/m 8,2 C 18,5 C 11,3 km/h (2 Bft) 97,37 %
06.07.2016 20:46 18,4 C 52 % 1017,3 hPa 0,0 l/m 4,5 km/h (1 Bft) W-SW 242 0 min 0,000 mm 0,0 UV-I 11 W/m 8,4 C 18,4 C 9,7 km/h (2 Bft) 98,11 %
06.07.2016 20:48 18,4 C 51 % 1017,3 hPa 0,0 l/m 4,1 km/h (1 Bft) SW 234 0 min 0,000 mm 0,0 UV-I 10 W/m 8,1 C 18,4 C 6,4 km/h (2 Bft) 100,00 %
06.07.2016 20:50 18,3 C 52 % 1017,3 hPa 0,0 l/m 4,2 km/h (1 Bft) W-SW 244 0 min 0,000 mm 0,0 UV-I 9 W/m 8,3 C 18,3 C 6,4 km/h (2 Bft) 100,00 %
06.07.2016 20:52 18,2 C 52 % 1017,4 hPa 0,0 l/m 3,4 km/h (1 Bft) W-SW 252 0 min 0,000 mm 0,0 UV-I 9 W/m 8,2 C 18,2 C 6,4 km/h (2 Bft) 100,00 %
06.07.2016 20:54 18,1 C 52 % 1017,4 hPa 0,0 l/m 3,0 km/h (1 Bft) W-SW 252 0 min 0,000 mm 0,0 UV-I 8 W/m 8,1 C 18,1 C 4,8 km/h (1 Bft) 100,00 %
06.07.2016 20:56 18,1 C 53 % 1017,3 hPa 0,0 l/m 4,4 km/h (1 Bft) W 277 0 min 0,000 mm 0,0 UV-I 7 W/m 8,4 C 18,1 C 6,4 km/h (2 Bft) 100,00 %
06.07.2016 20:58 18,1 C 53 % 1017,4 hPa 0,0 l/m 4,5 km/h (1 Bft) SW 222 0 min 0,000 mm 0,0 UV-I 7 W/m 8,4 C 18,1 C 11,3 km/h (2 Bft) 97,87 %
06.07.2016 21:00 18,0 C 53 % 1017,4 hPa 0,0 l/m 5,7 km/h (1 Bft) W 263 0 min 0,000 mm 0,0 UV-I 7 W/m 8,3 C 18,0 C 9,7 km/h (2 Bft) 98,00 %
06.07.2016 21:02 17,9 C 53 % 1017,5 hPa 0,0 l/m 4,7 km/h (1 Bft) W 267 0 min 0,051 mm 0,0 UV-I 5 W/m 8,2 C 17,9 C 11,3 km/h (2 Bft) 100,00 %
06.07.2016 21:04 17,9 C 53 % 1017,5 hPa 0,0 l/m 3,8 km/h (1 Bft) W 270 0 min 0,000 mm 0,0 UV-I 5 W/m 8,2 C 17,9 C 9,7 km/h (2 Bft) 98,08 %
06.07.2016 21:06 17,9 C 53 % 1017,5 hPa 0,0 l/m 4,5 km/h (1 Bft) W-SW 250 0 min 0,000 mm 0,0 UV-I 5 W/m 8,2 C 17,9 C 9,7 km/h (2 Bft) 96,23 %
06.07.2016 21:08 17,9 C 53 % 1017,5 hPa 0,0 l/m 4,2 km/h (1 Bft) W 262 0 min 0,000 mm 0,0 UV-I 5 W/m 8,2 C 17,9 C 11,3 km/h (2 Bft) 97,22 %
06.07.2016 21:10 17,8 C 53 % 1017,6 hPa 0,0 l/m 6,8 km/h (2 Bft) W 273 0 min 0,000 mm 0,0 UV-I 0 W/m 8,1 C 17,6 C 12,9 km/h (3 Bft) 94,34 %
06.07.2016 21:12 17,8 C 53 % 1017,6 hPa 0,0 l/m 3,7 km/h (1 Bft) W 267 0 min 0,000 mm 0,0 UV-I 0 W/m 8,1 C 17,8 C 6,4 km/h (2 Bft) 96,00 %
06.07.2016 21:14 17,8 C 53 % 1017,7 hPa 0,0 l/m 4,0 km/h (1 Bft) W-NW 286 0 min 0,000 mm 0,0 UV-I 0 W/m 8,1 C 17,8 C 9,7 km/h (2 Bft) 97,37 %
06.07.2016 21:16 17,7 C 52 % 1017,7 hPa 0,0 l/m 4,7 km/h (1 Bft) W-SW 255 0 min 0,000 mm 0,0 UV-I 0 W/m 7,7 C 17,7 C 8,0 km/h (2 Bft) 95,74 %
06.07.2016 21:18 17,7 C 54 % 1017,6 hPa 0,0 l/m 5,2 km/h (1 Bft) W-NW 285 0 min 0,000 mm 0,0 UV-I 0 W/m 8,3 C 17,7 C 12,9 km/h (3 Bft) 97,87 %
06.07.2016 21:20 17,6 C 53 % 1017,7 hPa 0,0 l/m 5,7 km/h (1 Bft) W-SW 252 0 min 0,000 mm 0,0 UV-I 0 W/m 7,9 C 17,6 C 12,9 km/h (3 Bft) 98,21 %
06.07.2016 21:22 17,6 C 53 % 1017,7 hPa 0,0 l/m 3,3 km/h (1 Bft) W-SW 246 0 min 0,000 mm 0,0 UV-I 0 W/m 7,9 C 17,6 C 6,4 km/h (2 Bft) 97,37 %
06.07.2016 21:24 17,4 C 53 % 1017,8 hPa 0,0 l/m 3,5 km/h (1 Bft) W 277 0 min 0,000 mm 0,0 UV-I 0 W/m 7,7 C 17,4 C 8,0 km/h (2 Bft) 96,00 %
06.07.2016 21:26 17,4 C 54 % 1017,9 hPa 0,0 l/m 2,8 km/h (1 Bft) W-SW 256 0 min 0,000 mm 0,0 UV-I 0 W/m 8,0 C 17,4 C 4,8 km/h (1 Bft) 98,00 %
06.07.2016 21:28 17,4 C 53 % 1017,9 hPa 0,0 l/m 4,3 km/h (1 Bft) W-SW 241 0 min 0,000 mm 0,0 UV-I 0 W/m 7,7 C 17,4 C 6,4 km/h (2 Bft) 97,56 %
06.07.2016 21:30 17,4 C 53 % 1017,9 hPa 0,0 l/m 3,8 km/h (1 Bft) W 259 0 min 0,000 mm 0,0 UV-I 0 W/m 7,7 C 17,4 C 4,8 km/h (1 Bft) 98,00 %
06.07.2016 21:32 17,4 C 53 % 1018,0 hPa 0,0 l/m 3,0 km/h (1 Bft) W 270 0 min 0,000 mm 0,0 UV-I 0 W/m 7,7 C 17,4 C 4,8 km/h (1 Bft) 97,87 %
06.07.2016 21:34 17,5 C 54 % 1018,0 hPa 0,0 l/m 3,1 km/h (1 Bft) W-NW 282 0 min 0,000 mm 0,0 UV-I 0 W/m 8,1 C 17,5 C 6,4 km/h (2 Bft) 97,73 %
06.07.2016 21:36 17,6 C 53 % 1018,0 hPa 0,0 l/m 6,0 km/h (2 Bft) W 263 0 min 0,000 mm 0,0 UV-I 0 W/m 7,9 C 17,6 C 11,3 km/h (2 Bft) 98,11 %
06.07.2016 21:38 17,7 C 53 % 1018,0 hPa 0,0 l/m 3,8 km/h (1 Bft) W-SW 242 0 min 0,000 mm 0,0 UV-I 0 W/m 8,0 C 17,7 C 8,0 km/h (2 Bft) 97,37 %
06.07.2016 21:40 17,7 C 53 % 1018,1 hPa 0,0 l/m 4,9 km/h (1 Bft) W 267 0 min 0,000 mm 0,0 UV-I 0 W/m 8,0 C 17,7 C 8,0 km/h (2 Bft) 93,33 %
06.07.2016 21:42 17,8 C 53 % 1018,0 hPa 0,0 l/m 4,2 km/h (1 Bft) W-SW 258 0 min 0,000 mm 0,0 UV-I 0 W/m 8,1 C 17,8 C 11,3 km/h (2 Bft) 98,75 %
06.07.2016 21:44 17,8 C 54 % 1018,1 hPa 0,0 l/m 3,7 km/h (1 Bft) W-SW 238 0 min 0,000 mm 0,0 UV-I 0 W/m 8,4 C 17,8 C 4,8 km/h (1 Bft) 100,00 %
06.07.2016 21:46 17,7 C 53 % 1018,1 hPa 0,0 l/m 5,0 km/h (1 Bft) W-SW 257 0 min 0,000 mm 0,0 UV-I 0 W/m 8,0 C 17,7 C 9,7 km/h (2 Bft) 98,00 %
06.07.2016 21:48 17,7 C 53 % 1018,1 hPa 0,0 l/m 4,5 km/h (1 Bft) W-SW 252 0 min 0,000 mm 0,0 UV-I 0 W/m 8,0 C 17,7 C 6,4 km/h (2 Bft) 100,00 %
06.07.2016 21:50 17,7 C 55 % 1018,1 hPa 0,0 l/m 5,6 km/h (1 Bft) W-SW 250 0 min 0,000 mm 0,0 UV-I 0 W/m 8,5 C 17,7 C 8,0 km/h (2 Bft) 98,11 %
06.07.2016 21:52 17,6 C 55 % 1018,2 hPa 0,0 l/m 4,7 km/h (1 Bft) W-SW 242 0 min 0,000 mm 0,0 UV-I 0 W/m 8,5 C 17,6 C 8,0 km/h (2 Bft) 95,12 %
06.07.2016 21:54 17,4 C 56 % 1018,2 hPa 0,0 l/m 3,8 km/h (1 Bft) SW 233 0 min 0,000 mm 0,0 UV-I 0 W/m 8,5 C 17,4 C 6,4 km/h (2 Bft) 100,00 %
06.07.2016 21:56 17,3 C 56 % 1018,2 hPa 0,0 l/m 4,4 km/h (1 Bft) W-SW 243 0 min 0,000 mm 0,0 UV-I 0 W/m 8,4 C 17,3 C 6,4 km/h (2 Bft) 100,00 %
06.07.2016 21:58 17,3 C 58 % 1018,2 hPa 0,0 l/m 4,2 km/h (1 Bft) W-SW 240 0 min 0,000 mm 0,0 UV-I 0 W/m 9,0 C 17,3 C 6,4 km/h (2 Bft) 98,21 %
06.07.2016 22:00 17,2 C 59 % 1018,2 hPa 0,0 l/m 4,2 km/h (1 Bft) SW 236 0 min 0,000 mm 0,0 UV-I 0 W/m 9,1 C 17,2 C 6,4 km/h (2 Bft) 100,00 %
06.07.2016 22:02 17,1 C 59 % 1018,2 hPa 0,0 l/m 5,4 km/h (1 Bft) W-SW 242 0 min 0,025 mm 0,0 UV-I 0 W/m 9,0 C 17,1 C 8,0 km/h (2 Bft) 100,00 %
06.07.2016 22:04 17,1 C 61 % 1018,3 hPa 0,0 l/m 4,4 km/h (1 Bft) SW 221 0 min 0,000 mm 0,0 UV-I 0 W/m 9,5 C 17,1 C 6,4 km/h (2 Bft) 100,00 %
06.07.2016 22:06 16,9 C 60 % 1018,3 hPa 0,0 l/m 3,9 km/h (1 Bft) SW 234 0 min 0,000 mm 0,0 UV-I 0 W/m 9,1 C 16,9 C 6,4 km/h (2 Bft) 100,00 %
06.07.2016 22:08 16,9 C 61 % 1018,3 hPa 0,0 l/m 5,6 km/h (1 Bft) SW 223 0 min 0,000 mm 0,0 UV-I 0 W/m 9,3 C 16,9 C 8,0 km/h (2 Bft) 100,00 %
06.07.2016 22:10 16,8 C 61 % 1018,4 hPa 0,0 l/m 5,0 km/h (1 Bft) SW 231 0 min 0,000 mm 0,0 UV-I 0 W/m 9,2 C 16,8 C 8,0 km/h (2 Bft) 100,00 %
06.07.2016 22:12 16,8 C 62 % 1018,4 hPa 0,0 l/m 4,5 km/h (1 Bft) W-SW 240 0 min 0,000 mm 0,0 UV-I 0 W/m 9,5 C 16,8 C 8,0 km/h (2 Bft) 100,00 %
06.07.2016 22:14 16,7 C 63 % 1018,4 hPa 0,0 l/m 4,6 km/h (1 Bft) SW 216 0 min 0,000 mm 0,0 UV-I 0 W/m 9,6 C 16,7 C 8,0 km/h (2 Bft) 100,00 %
06.07.2016 22:16 16,6 C 63 % 1018,4 hPa 0,0 l/m 3,9 km/h (1 Bft) SW 217 0 min 0,000 mm 0,0 UV-I 0 W/m 9,5 C 16,6 C 6,4 km/h (2 Bft) 100,00 %
06.07.2016 22:18 16,6 C 64 % 1018,4 hPa 0,0 l/m 5,0 km/h (1 Bft) SW 232 0 min 0,000 mm 0,0 UV-I 0 W/m 9,8 C 16,6 C 8,0 km/h (2 Bft) 100,00 %
06.07.2016 22:20 16,5 C 63 % 1018,5 hPa 0,0 l/m 5,9 km/h (2 Bft) W-SW 249 0 min 0,000 mm 0,0 UV-I 0 W/m 9,4 C 16,5 C 8,0 km/h (2 Bft) 100,00 %
06.07.2016 22:22 16,5 C 63 % 1018,4 hPa 0,0 l/m 5,8 km/h (2 Bft) W 271 0 min 0,000 mm 0,0 UV-I 0 W/m 9,4 C 16,5 C 11,3 km/h (2 Bft) 100,00 %
06.07.2016 22:24 16,4 C 62 % 1018,5 hPa 0,0 l/m 6,5 km/h (2 Bft) SW 229 0 min 0,000 mm 0,0 UV-I 0 W/m 9,1 C 16,4 C 11,3 km/h (2 Bft) 100,00 %
06.07.2016 22:26 16,4 C 63 % 1018,5 hPa 0,0 l/m 5,4 km/h (1 Bft) W-SW 246 0 min 0,000 mm 0,0 UV-I 0 W/m 9,3 C 16,4 C 6,4 km/h (2 Bft) 98,08 %
06.07.2016 22:28 16,4 C 64 % 1018,5 hPa 0,0 l/m 6,2 km/h (2 Bft) W-SW 257 0 min 0,000 mm 0,0 UV-I 0 W/m 9,6 C 16,4 C 9,7 km/h (2 Bft) 100,00 %
06.07.2016 22:30 16,4 C 65 % 1018,5 hPa 0,0 l/m 4,4 km/h (1 Bft) W-SW 247 0 min 0,000 mm 0,0 UV-I 0 W/m 9,8 C 16,4 C 6,4 km/h (2 Bft) 100,00 %
06.07.2016 22:32 16,3 C 64 % 1018,6 hPa 0,0 l/m 5,0 km/h (1 Bft) W-SW 250 0 min 0,000 mm 0,0 UV-I 0 W/m 9,5 C 16,3 C 8,0 km/h (2 Bft) 100,00 %
06.07.2016 22:34 16,3 C 63 % 1018,6 hPa 0,0 l/m 6,1 km/h (2 Bft) W-SW 238 0 min 0,000 mm 0,0 UV-I 0 W/m 9,2 C 16,3 C 8,0 km/h (2 Bft) 98,11 %
06.07.2016 22:36 16,4 C 62 % 1018,6 hPa 0,0 l/m 6,6 km/h (2 Bft) W-SW 255 0 min 0,000 mm 0,0 UV-I 0 W/m 9,1 C 16,3 C 11,3 km/h (2 Bft) 100,00 %
06.07.2016 22:38 16,4 C 63 % 1018,6 hPa 0,0 l/m 7,1 km/h (2 Bft) W-SW 247 0 min 0,000 mm 0,0 UV-I 0 W/m 9,3 C 16,0 C 11,3 km/h (2 Bft) 100,00 %
06.07.2016 22:40 16,5 C 62 % 1018,6 hPa 0,0 l/m 5,6 km/h (1 Bft) W 262 0 min 0,000 mm 0,0 UV-I 0 W/m 9,2 C 16,5 C 9,7 km/h (2 Bft) 100,00 %
06.07.2016 22:42 16,5 C 62 % 1018,6 hPa 0,0 l/m 6,5 km/h (2 Bft) W-SW 238 0 min 0,000 mm 0,0 UV-I 0 W/m 9,2 C 16,5 C 11,3 km/h (2 Bft) 97,87 %
06.07.2016 22:44 16,5 C 62 % 1018,7 hPa 0,0 l/m 5,5 km/h (1 Bft) W-SW 241 0 min 0,000 mm 0,0 UV-I 0 W/m 9,2 C 16,5 C 11,3 km/h (2 Bft) 100,00 %
06.07.2016 22:46 16,6 C 62 % 1018,7 hPa 0,0 l/m 4,9 km/h (1 Bft) W-SW 257 0 min 0,000 mm 0,0 UV-I 0 W/m 9,3 C 16,6 C 8,0 km/h (2 Bft) 100,00 %
06.07.2016 22:48 16,5 C 62 % 1018,8 hPa 0,0 l/m 5,2 km/h (1 Bft) SW 230 0 min 0,000 mm 0,0 UV-I 0 W/m 9,2 C 16,5 C 8,0 km/h (2 Bft) 100,00 %
06.07.2016 22:50 16,4 C 62 % 1018,8 hPa 0,0 l/m 5,3 km/h (1 Bft) W 261 0 min 0,000 mm 0,0 UV-I 0 W/m 9,1 C 16,4 C 8,0 km/h (2 Bft) 100,00 %
06.07.2016 22:52 16,4 C 61 % 1018,8 hPa 0,0 l/m 6,3 km/h (2 Bft) SW 230 0 min 0,000 mm 0,0 UV-I 0 W/m 8,9 C 16,4 C 11,3 km/h (2 Bft) 96,00 %
06.07.2016 22:54 16,4 C 61 % 1018,8 hPa 0,0 l/m 3,4 km/h (1 Bft) W-SW 254 0 min 0,000 mm 0,0 UV-I 0 W/m 8,9 C 16,4 C 4,8 km/h (1 Bft) 100,00 %
06.07.2016 22:56 16,4 C 61 % 1018,9 hPa 0,0 l/m 5,1 km/h (1 Bft) W-SW 254 0 min 0,000 mm 0,0 UV-I 0 W/m 8,9 C 16,4 C 6,4 km/h (2 Bft) 100,00 %
06.07.2016 22:58 16,4 C 62 % 1018,9 hPa 0,0 l/m 4,3 km/h (1 Bft) SW 227 0 min 0,000 mm 0,0 UV-I 0 W/m 9,1 C 16,4 C 6,4 km/h (2 Bft) 100,00 %
06.07.2016 23:00 16,3 C 62 % 1018,9 hPa 0,0 l/m 4,8 km/h (1 Bft) W-SW 242 0 min 0,000 mm 0,0 UV-I 0 W/m 9,0 C 16,3 C 8,0 km/h (2 Bft) 97,44 %
06.07.2016 23:02 16,3 C 62 % 1018,9 hPa 0,0 l/m 5,4 km/h (1 Bft) W-SW 246 0 min 0,026 mm 0,0 UV-I 0 W/m 9,0 C 16,3 C 8,0 km/h (2 Bft) 100,00 %
06.07.2016 23:04 16,3 C 63 % 1019,0 hPa 0,0 l/m 4,7 km/h (1 Bft) SW 232 0 min 0,000 mm 0,0 UV-I 0 W/m 9,2 C 16,3 C 6,4 km/h (2 Bft) 100,00 %
06.07.2016 23:06 16,2 C 64 % 1019,0 hPa 0,0 l/m 6,2 km/h (2 Bft) SW 232 0 min 0,000 mm 0,0 UV-I 0 W/m 9,4 C 16,2 C 8,0 km/h (2 Bft) 97,56 %
06.07.2016 23:08 16,2 C 64 % 1019,0 hPa 0,0 l/m 5,2 km/h (1 Bft) SW 221 0 min 0,000 mm 0,0 UV-I 0 W/m 9,4 C 16,2 C 6,4 km/h (2 Bft) 100,00 %
06.07.2016 23:10 16,2 C 64 % 1019,0 hPa 0,0 l/m 6,0 km/h (2 Bft) W-SW 237 0 min 0,000 mm 0,0 UV-I 0 W/m 9,4 C 16,2 C 9,7 km/h (2 Bft) 96,77 %
06.07.2016 23:12 16,1 C 64 % 1019,0 hPa 0,0 l/m 5,1 km/h (1 Bft) SW 236 0 min 0,000 mm 0,0 UV-I 0 W/m 9,3 C 16,1 C 8,0 km/h (2 Bft) 96,55 %
06.07.2016 23:14 16,1 C 65 % 1019,1 hPa 0,0 l/m 5,1 km/h (1 Bft) W-SW 244 0 min 0,000 mm 0,0 UV-I 0 W/m 9,5 C 16,1 C 8,0 km/h (2 Bft) 98,46 %
06.07.2016 23:16 16,1 C 65 % 1019,0 hPa 0,0 l/m 4,4 km/h (1 Bft) W-SW 241 0 min 0,000 mm 0,0 UV-I 0 W/m 9,5 C 16,1 C 6,4 km/h (2 Bft) 97,37 %
06.07.2016 23:18 16,1 C 65 % 1019,0 hPa 0,0 l/m 3,0 km/h (1 Bft) SW 220 0 min 0,000 mm 0,0 UV-I 0 W/m 9,5 C 16,1 C 4,8 km/h (1 Bft) 95,74 %
06.07.2016 23:20 16,1 C 65 % 1019,0 hPa 0,0 l/m 4,7 km/h (1 Bft) S-SW 207 0 min 0,000 mm 0,0 UV-I 0 W/m 9,5 C 16,1 C 8,0 km/h (2 Bft) 98,11 %
06.07.2016 23:22 16,1 C 65 % 1019,1 hPa 0,0 l/m 3,5 km/h (1 Bft) SW 227 0 min 0,000 mm 0,0 UV-I 0 W/m 9,5 C 16,1 C 4,8 km/h (1 Bft) 97,56 %
06.07.2016 23:24 16,0 C 66 % 1019,1 hPa 0,0 l/m 4,7 km/h (1 Bft) SW 229 0 min 0,000 mm 0,0 UV-I 0 W/m 9,7 C 16,0 C 8,0 km/h (2 Bft) 97,87 %
06.07.2016 23:26 15,9 C 66 % 1019,1 hPa 0,0 l/m 4,6 km/h (1 Bft) S-SW 205 0 min 0,000 mm 0,0 UV-I 0 W/m 9,6 C 15,9 C 8,0 km/h (2 Bft) 94,00 %
06.07.2016 23:28 15,9 C 67 % 1019,2 hPa 0,0 l/m 6,1 km/h (2 Bft) S-SW 199 0 min 0,000 mm 0,0 UV-I 0 W/m 9,8 C 15,9 C 9,7 km/h (2 Bft) 96,00 %
06.07.2016 23:30 15,9 C 67 % 1019,2 hPa 0,0 l/m 5,9 km/h (2 Bft) W-SW 241 0 min 0,000 mm 0,0 UV-I 0 W/m 9,8 C 15,9 C 8,0 km/h (2 Bft) 97,87 %
06.07.2016 23:32 15,9 C 66 % 1019,2 hPa 0,0 l/m 4,8 km/h (1 Bft) SW 227 0 min 0,000 mm 0,0 UV-I 0 W/m 9,6 C 15,9 C 8,0 km/h (2 Bft) 97,37 %
06.07.2016 23:34 15,9 C 66 % 1019,2 hPa 0,0 l/m 4,9 km/h (1 Bft) S-SW 205 0 min 0,000 mm 0,0 UV-I 0 W/m 9,6 C 15,9 C 8,0 km/h (2 Bft) 98,11 %
06.07.2016 23:36 15,9 C 65 % 1019,2 hPa 0,0 l/m 4,6 km/h (1 Bft) SW 216 0 min 0,000 mm 0,0 UV-I 0 W/m 9,3 C 15,9 C 8,0 km/h (2 Bft) 97,87 %
06.07.2016 23:38 16,0 C 65 % 1019,2 hPa 0,0 l/m 5,4 km/h (1 Bft) S 184 0 min 0,000 mm 0,0 UV-I 0 W/m 9,4 C 16,0 C 8,0 km/h (2 Bft) 96,67 %
06.07.2016 23:40 16,1 C 65 % 1019,2 hPa 0,0 l/m 5,7 km/h (1 Bft) S-SW 209 0 min 0,000 mm 0,0 UV-I 0 W/m 9,5 C 16,1 C 9,7 km/h (2 Bft) 98,39 %
06.07.2016 23:42 16,1 C 64 % 1019,2 hPa 0,0 l/m 5,2 km/h (1 Bft) SW 215 0 min 0,000 mm 0,0 UV-I 0 W/m 9,3 C 16,1 C 9,7 km/h (2 Bft) 97,87 %
06.07.2016 23:44 16,1 C 64 % 1019,2 hPa 0,0 l/m 5,8 km/h (2 Bft) S-SW 202 0 min 0,000 mm 0,0 UV-I 0 W/m 9,3 C 16,1 C 8,0 km/h (2 Bft) 100,00 %
06.07.2016 23:46 16,1 C 64 % 1019,3 hPa 0,0 l/m 5,8 km/h (2 Bft) S-SW 213 0 min 0,000 mm 0,0 UV-I 0 W/m 9,3 C 16,1 C 8,0 km/h (2 Bft) 94,74 %
06.07.2016 23:48 16,1 C 65 % 1019,3 hPa 0,0 l/m 5,7 km/h (1 Bft) S-SW 199 0 min 0,000 mm 0,0 UV-I 0 W/m 9,5 C 16,1 C 8,0 km/h (2 Bft) 98,31 %
06.07.2016 23:50 16,1 C 65 % 1019,3 hPa 0,0 l/m 6,4 km/h (2 Bft) SW 221 0 min 0,000 mm 0,0 UV-I 0 W/m 9,5 C 16,1 C 11,3 km/h (2 Bft) 100,00 %
06.07.2016 23:52 16,0 C 65 % 1019,3 hPa 0,0 l/m 5,1 km/h (1 Bft) S-SW 198 0 min 0,000 mm 0,0 UV-I 0 W/m 9,4 C 16,0 C 8,0 km/h (2 Bft) 100,00 %
06.07.2016 23:54 15,9 C 66 % 1019,3 hPa 0,0 l/m 7,4 km/h (2 Bft) S 176 0 min 0,000 mm 0,0 UV-I 0 W/m 9,6 C 15,4 C 11,3 km/h (2 Bft) 100,00 %
06.07.2016 23:56 15,9 C 65 % 1019,3 hPa 0,0 l/m 8,2 km/h (2 Bft) S-SW 196 0 min 0,000 mm 0,0 UV-I 0 W/m 9,3 C 14,9 C 11,3 km/h (2 Bft) 97,87 %
06.07.2016 23:58 15,9 C 66 % 1019,3 hPa 0,0 l/m 6,3 km/h (2 Bft) SW 219 0 min 0,000 mm 0,0 UV-I 0 W/m 9,6 C 15,9 C 11,3 km/h (2 Bft) 100,00 %
_ Min-Zeit 23:26 17:26 00:00 - 20:08 - - - - - - 21:16 05:24 17:00 05:46
Minimum _ 15,9 C 44 % 1013,4 hPa - 1,8 km/h (1 Bft) - - - - - - 7,7 C 14,4 C 4,8 km/h (1 Bft) 90,57 %
_ Max-Zeit 17:24 06:20 23:46 00:00 14:48 - - 07:26 14:00 13:06 13:50 11:40 17:28 14:44 00:02
Maximum _ 22,3 C 79 % 1019,3 hPa 0,0 l/m 29,2 km/h
W-SW (5 Bft)
- - 2 min 0,508 mm 6,9 UV-I 1124 W/m 14,2 C 22,2 C 46,7 km/h
W-SW (6 Bft)
100,00 %
Durchschnitt _ 19,1 C 62 % 1016,1 hPa #0,0 l/m 9,9 km/h (2 Bft) W-SW - #7:12 h #4,801 mm 2,9 UV-I 359 W/m 11,4 C 17,9 C 17,0 km/h (3 Bft) 98,54 %